[[{"header":{"parameterUnit":"m.s-1","parameterCategory":1,"la1":30.6,"la2":28.766,"lo1":-90.7593,"lo2":-88.6598,"dy":0.0162,"dx":0.0183,"nx":116,"ny":114,"refTime":"2023-09-14T18:00:00:Z","depth":0,"parameterNumber":2,"parameterNumberName":"U-component_of_WINDS"},"data":[0.0,0.0,0.0,0.0,0.0,0.0,0.0,0.0,0.0,0.0,0.0,0.0,0.0,0.0,0.0,0.0,0.0,0.0,0.0,0.0,0.0,0.0,0.0,0.0,0.0,0.0,0.0,0.0,0.0,0.0,0.0,0.0,0.0,0.0,0.0,0.0,0.0,0.0,0.0,0.0,0.0,0.0,0.0,0.0,0.0,0.0,0.0,0.0,0.0,0.0,0.0,0.0,0.0,0.0,0.0,0.0,0.0,0.0,0.0,0.0,0.0,0.0,0.0,0.0,0.0,0.0,0.0,0.0,0.0,0.0,0.0,0.0,0.0,0.0,0.0,0.0,0.0,0.0,0.0,0.0,0.0,0.0,0.0,0.0,0.0,0.0,0.0,0.0,0.0,0.0,0.0,0.0,0.0,0.0,0.0,0.0,0.0,0.0,0.0,0.0,0.0,0.0,0.0,0.0,0.0,0.0,0.0,0.0,0.0,0.0,0.0,0.0,0.0,0.0,0.0,0.0,0.0,0.0,0.0,0.0,0.0,0.0,0.0,0.0,0.0,0.0,0.0,0.0,0.0,0.0,0.0,0.0,0.0,0.0,0.0,0.0,0.0,0.0,0.0,0.0,0.0,0.0,0.0,0.0,0.0,0.0,0.0,0.0,0.0,0.0,0.0,0.0,0.0,0.0,0.0,0.0,0.0,0.0,0.0,0.0,0.0,0.0,0.0,0.0,0.0,0.0,0.0,0.0,0.0,0.0,0.0,0.0,0.0,0.0,0.0,0.0,0.0,0.0,0.0,0.0,0.0,0.0,0.0,0.0,0.0,0.0,0.0,0.0,0.0,0.0,0.0,0.0,0.0,0.0,0.0,0.0,0.0,0.0,0.0,0.0,0.0,0.0,0.0,0.0,0.0,0.0,0.0,0.0,0.0,0.0,0.0,0.0,0.0,0.0,0.0,0.0,0.0,0.0,0.0,0.0,0.0,0.0,0.0,0.0,0.0,0.0,0.0,0.0,0.0,0.0,0.0,0.0,0.0,0.0,0.0,0.0,0.0,0.0,0.0,0.0,0.0,0.0,0.0,0.0,0.0,0.0,0.0,0.0,0.0,0.0,0.0,0.0,0.0,0.0,0.0,0.0,0.0,0.0,0.0,0.0,0.0,0.0,0.0,0.0,0.0,0.0,0.0,0.0,0.0,0.0,0.0,0.0,0.0,0.0,0.0,0.0,0.0,0.0,0.0,0.0,0.0,0.0,0.0,0.0,0.0,0.0,0.0,0.0,0.0,0.0,0.0,0.0,0.0,0.0,0.0,0.0,0.0,0.0,0.0,0.0,0.0,0.0,0.0,0.0,0.0,0.0,0.0,0.0,0.0,0.0,0.0,0.0,0.0,0.0,0.0,0.0,0.0,0.0,0.0,0.0,0.0,0.0,0.0,0.0,0.0,0.0,0.0,0.0,0.0,0.0,0.0,0.0,0.0,0.0,0.0,0.0,0.0,0.0,0.0,0.0,0.0,0.0,0.0,0.0,0.0,0.0,0.0,0.0,0.0,0.0,0.0,0.0,0.0,0.0,0.0,0.0,0.0,0.0,0.0,0.0,0.0,0.0,0.0,0.0,0.0,0.0,0.0,0.0,0.0,0.0,0.0,0.0,0.0,0.0,0.0,0.0,0.0,0.0,0.0,0.0,0.0,0.0,0.0,0.0,0.0,0.0,0.0,0.0,0.0,0.0,0.0,0.0,0.0,0.0,0.0,0.0,0.0,0.0,0.0,0.0,0.0,0.0,0.0,0.0,0.0,0.0,0.0,0.0,0.0,0.0,0.0,0.0,0.0,0.0,0.0,0.0,0.0,0.0,0.0,0.0,0.0,0.0,0.0,0.0,0.0,0.0,0.0,0.0,0.0,0.0,0.0,0.0,0.0,0.0,0.0,0.0,0.0,0.0,0.0,0.0,0.0,0.0,0.0,0.0,0.0,0.0,0.0,0.0,0.0,0.0,0.0,0.0,0.0,0.0,0.0,0.0,0.0,0.0,0.0,0.0,0.0,0.0,0.0,0.0,0.0,0.0,0.0,0.0,0.0,0.0,0.0,0.0,0.0,0.0,0.0,0.0,0.0,0.0,0.0,0.0,0.0,0.0,0.0,0.0,0.0,0.0,0.0,0.0,0.0,0.0,0.0,0.0,0.0,0.0,0.0,0.0,0.0,0.0,0.0,0.0,0.0,0.0,0.0,0.0,0.0,0.0,0.0,0.0,0.0,0.0,0.0,0.0,0.0,0.0,0.0,0.0,0.0,0.0,0.0,0.0,0.0,0.0,0.0,0.0,0.0,0.0,0.0,0.0,0.0,0.0,0.0,0.0,0.0,0.0,0.0,0.0,0.0,0.0,0.0,0.0,0.0,0.0,0.0,0.0,0.0,0.0,0.0,0.0,0.0,0.0,0.0,0.0,0.0,0.0,0.0,0.0,0.0,0.0,0.0,0.0,0.0,0.0,0.0,0.0,0.0,0.0,0.0,0.0,0.0,0.0,0.0,0.0,0.0,0.0,0.0,0.0,0.0,0.0,0.0,0.0,0.0,0.0,0.0,0.0,0.0,0.0,0.0,0.0,0.0,0.0,0.0,0.0,0.0,0.0,0.0,0.0,0.0,0.0,0.0,0.0,0.0,0.0,0.0,0.0,0.0,0.0,0.0,0.0,0.0,0.0,0.0,0.0,0.0,0.0,0.0,0.0,0.0,0.0,0.0,0.0,0.0,0.0,0.0,0.0,0.0,0.0,0.0,0.0,0.0,0.0,0.0,0.0,0.0,0.0,0.0,0.0,0.0,0.0,0.0,0.0,0.0,0.0,0.0,0.0,0.0,0.0,0.0,0.0,0.0,0.0,0.0,0.0,0.0,0.0,0.0,0.0,0.0,0.0,0.0,0.0,0.0,0.0,0.0,0.0,0.0,0.0,0.0,0.0,0.0,0.0,0.0,0.0,0.0,0.0,0.0,0.0,0.0,0.0,0.0,0.0,0.0,0.0,0.0,0.0,0.0,0.0,0.0,0.0,0.0,0.0,0.0,0.0,0.0,0.0,0.0,0.0,0.0,0.0,0.0,0.0,0.0,0.0,0.0,0.0,0.0,0.0,0.0,0.0,0.0,0.0,0.0,0.0,0.0,0.0,0.0,0.0,0.0,0.0,0.0,0.0,0.0,0.0,0.0,0.0,0.0,0.0,0.0,0.0,0.0,0.0,0.0,0.0,0.0,0.0,0.0,0.0,0.0,0.0,0.0,0.0,0.0,0.0,0.0,0.0,0.0,0.0,0.0,0.0,0.0,0.0,0.0,0.0,0.0,0.0,0.0,0.0,0.0,0.0,0.0,0.0,0.0,0.0,0.0,0.0,0.0,0.0,0.0,0.0,0.0,0.0,0.0,0.0,0.0,0.0,0.0,0.0,0.0,0.0,0.0,0.0,0.0,0.0,0.0,0.0,0.0,0.0,0.0,0.0,0.0,0.0,0.0,0.0,0.0,0.0,0.0,0.0,0.0,0.0,0.0,0.0,0.0,0.0,0.0,0.0,0.0,0.0,0.0,0.0,0.0,0.0,0.0,0.0,0.0,0.0,0.0,0.0,0.0,0.0,0.0,0.0,0.0,0.0,0.0,0.0,0.0,0.0,0.0,0.0,0.0,0.0,0.0,0.0,0.0,0.0,0.0,0.0,0.0,0.0,0.0,0.0,0.0,0.0,0.0,0.0,0.0,0.0,0.0,0.0,0.0,0.0,0.0,0.0,0.0,0.0,0.0,0.0,0.0,0.0,0.0,0.0,0.0,0.0,0.0,0.0,0.0,0.0,0.0,0.0,0.0,0.0,0.0,0.0,0.0,0.0,0.0,0.0,0.0,0.0,0.0,0.0,0.0,0.0,0.0,0.0,0.0,0.0,0.0,0.0,0.0,0.0,0.0,0.0,0.0,0.0,0.0,0.0,0.0,0.0,0.0,0.0,0.0,0.0,0.0,0.0,0.0,0.0,0.0,0.0,0.0,0.0,0.0,0.0,0.0,0.0,0.0,0.0,0.0,0.0,0.0,0.0,0.0,0.0,0.0,0.0,0.0,0.0,0.0,0.0,0.0,0.0,0.0,0.0,0.0,0.0,0.0,0.0,0.0,0.0,0.0,0.0,0.0,0.0,0.0,0.0,0.0,0.0,0.0,0.0,0.0,0.0,0.0,0.0,0.0,0.0,0.0,0.0,0.0,0.0,0.0,0.0,0.0,0.0,0.0,0.0,0.0,0.0,0.0,0.0,0.0,0.0,0.0,0.0,0.0,0.0,0.0,0.0,0.0,0.0,0.0,0.0,0.0,0.0,0.0,0.0,0.0,0.0,0.0,0.0,0.0,0.0,0.0,0.0,0.0,0.0,0.0,0.0,0.0,0.0,0.0,0.0,0.0,0.0,0.0,0.0,0.0,0.0,0.0,0.0,0.0,0.0,0.0,0.0,0.0,0.0,0.0,0.0,0.0,0.0,0.0,0.0,0.0,0.0,0.0,0.0,0.0,0.0,0.0,0.0,0.0,0.0,0.0,0.0,0.0,0.0,0.0,0.0,0.0,0.0,0.0,0.0,0.0,0.0,0.0,0.0,0.0,0.0,0.0,0.0,0.0,0.0,0.0,0.0,0.0,0.0,0.0,0.0,0.0,0.0,0.0,0.0,0.0,0.0,0.0,0.0,0.0,0.0,0.0,0.0,0.0,0.0,0.0,0.0,0.0,0.0,0.0,0.0,0.0,0.0,0.0,0.0,0.0,0.0,0.0,0.0,0.0,0.0,0.0,0.0,0.0,0.0,0.0,0.0,0.0,0.0,0.0,0.0,0.0,0.0,0.0,0.0,0.0,0.0,0.0,0.0,0.0,0.0,0.0,0.0,0.0,0.0,0.0,0.0,0.0,0.0,0.0,0.0,0.0,0.0,0.0,0.0,0.0,0.0,0.0,0.0,0.0,0.0,0.0,0.0,0.0,0.0,0.0,0.0,0.0,0.0,0.0,0.0,0.0,0.0,0.0,0.0,0.0,0.0,0.0,0.0,0.0,0.0,0.0,0.0,0.0,0.0,0.0,0.0,0.0,0.0,0.0,0.0,0.0,0.0,0.0,0.0,0.0,0.0,0.0,0.0,0.0,0.0,0.0,0.0,0.0,0.0,0.0,0.0,0.0,0.0,0.0,0.0,0.0,0.0,0.0,0.0,0.0,0.0,0.0,0.0,0.0,0.0,0.0,0.0,0.0,0.0,0.0,0.0,0.0,0.0,0.0,0.0,0.0,0.0,0.0,0.0,0.0,0.0,0.0,0.0,0.0,0.0,0.0,0.0,0.0,0.0,0.0,0.0,0.0,0.0,0.0,0.0,0.0,0.0,0.0,0.0,0.0,0.0,0.0,0.0,0.0,0.0,0.0,0.0,0.0,0.0,0.0,0.0,0.0,0.0,0.0,0.0,0.0,0.0,0.0,0.0,0.0,0.0,0.0,0.0,0.0,0.0,0.0,0.0,0.0,0.0,0.0,0.0,0.0,0.0,0.0,0.0,0.0,0.0,0.0,0.0,0.0,0.0,0.0,0.0,0.0,0.0,0.0,0.0,0.0,0.0,0.0,0.0,0.0,0.0,0.0,0.0,0.0,0.0,0.0,0.0,0.0,0.0,0.0,0.0,0.0,0.0,0.0,0.0,0.0,0.0,0.0,0.0,0.0,0.0,0.0,0.0,0.0,0.0,0.0,0.0,0.0,0.0,0.0,0.0,0.0,0.0,0.0,0.0,0.0,0.0,0.0,0.0,0.0,0.0,0.0,0.0,0.0,0.0,0.0,0.0,0.0,0.0,0.0,0.0,0.0,0.0,0.0,0.0,0.0,0.0,0.0,0.0,0.0,0.0,0.0,0.0,0.0,0.0,0.0,0.0,0.0,0.0,0.0,0.0,0.0,0.0,0.0,0.0,0.0,0.0,0.0,0.0,0.0,0.0,0.0,0.0,0.0,0.0,0.0,0.0,0.0,0.0,0.0,0.0,0.0,0.0,0.0,0.0,0.0,0.0,0.0,0.0,0.0,0.0,0.0,0.0,0.0,0.0,0.0,0.0,-2.351,0.0,0.0,0.0,0.0,0.0,0.0,0.0,0.0,0.0,0.0,0.0,0.0,0.0,0.0,0.0,0.0,0.0,0.0,0.0,0.0,0.0,0.0,0.0,0.0,0.0,0.0,0.0,0.0,0.0,0.0,0.0,0.0,0.0,0.0,0.0,0.0,0.0,0.0,0.0,0.0,-2.5662,-2.645,-2.6635,-2.5953,-2.4587,0.0,0.0,0.0,0.0,0.0,0.0,0.0,0.0,0.0,0.0,0.0,0.0,0.0,0.0,0.0,0.0,0.0,0.0,0.0,0.0,0.0,0.0,0.0,0.0,0.0,0.0,0.0,0.0,0.0,0.0,0.0,0.0,0.0,0.0,0.0,0.0,0.0,0.0,0.0,0.0,0.0,0.0,0.0,0.0,0.0,0.0,0.0,0.0,0.0,0.0,0.0,0.0,0.0,0.0,0.0,0.0,0.0,0.0,0.0,0.0,0.0,0.0,0.0,0.0,0.0,0.0,0.0,0.0,0.0,0.0,0.0,-2.2678,0.0,0.0,0.0,0.0,0.0,0.0,0.0,0.0,0.0,0.0,0.0,0.0,0.0,0.0,0.0,0.0,0.0,0.0,0.0,0.0,0.0,0.0,0.0,0.0,0.0,0.0,0.0,0.0,0.0,0.0,0.0,0.0,0.0,0.0,0.0,0.0,0.0,0.0,0.0,-2.6123,-2.7496,-2.7696,-2.6591,-2.4413,-2.3997,0.0,0.0,0.0,0.0,0.0,0.0,0.0,0.0,0.0,0.0,0.0,0.0,0.0,0.0,0.0,0.0,0.0,0.0,0.0,0.0,0.0,0.0,0.0,0.0,0.0,0.0,0.0,0.0,0.0,0.0,0.0,0.0,0.0,0.0,0.0,0.0,0.0,0.0,0.0,0.0,0.0,0.0,0.0,0.0,0.0,0.0,0.0,0.0,0.0,0.0,0.0,0.0,0.0,0.0,0.0,0.0,0.0,0.0,0.0,0.0,0.0,0.0,0.0,-2.9264,-2.8482,-2.7471,-2.7405,-2.6778,-2.5665,-2.4671,-2.3566,-2.2409,0.0,0.0,0.0,0.0,0.0,0.0,0.0,0.0,0.0,0.0,0.0,0.0,0.0,0.0,0.0,0.0,0.0,0.0,0.0,0.0,0.0,0.0,0.0,0.0,0.0,0.0,0.0,0.0,0.0,0.0,0.0,0.0,0.0,0.0,0.0,0.0,0.0,0.0,-2.7142,-2.7407,-2.7103,-2.6526,-2.573,-2.526,-2.5461,-2.6046,0.0,0.0,0.0,0.0,0.0,0.0,0.0,0.0,0.0,0.0,0.0,0.0,0.0,0.0,0.0,0.0,0.0,0.0,0.0,0.0,0.0,0.0,0.0,0.0,0.0,0.0,0.0,0.0,0.0,0.0,0.0,0.0,0.0,0.0,0.0,0.0,0.0,0.0,0.0,0.0,0.0,-2.8272,-2.7535,0.0,0.0,0.0,0.0,0.0,0.0,0.0,0.0,0.0,0.0,0.0,0.0,0.0,-3.1432,-3.1954,-3.3214,-3.2835,-3.0907,-3.278,-3.2345,-2.987,-2.9352,-2.9103,-2.8922,-2.8146,0.0,-2.3117,-2.2681,0.0,0.0,0.0,0.0,0.0,0.0,0.0,0.0,0.0,0.0,0.0,0.0,0.0,0.0,0.0,0.0,0.0,0.0,0.0,0.0,0.0,0.0,0.0,0.0,0.0,0.0,0.0,0.0,0.0,0.0,0.0,0.0,0.0,0.0,0.0,0.0,-2.7159,-2.7776,-2.612,-2.7037,-2.6421,-2.4579,-2.4938,-2.548,-2.6051,-2.5122,0.0,0.0,0.0,0.0,0.0,0.0,0.0,0.0,0.0,0.0,0.0,0.0,0.0,0.0,0.0,0.0,0.0,0.0,0.0,0.0,0.0,0.0,0.0,0.0,0.0,0.0,0.0,0.0,0.0,0.0,0.0,0.0,0.0,0.0,0.0,0.0,0.0,0.0,0.0,-2.7571,-2.851,-2.6765,-2.819,-2.8521,0.0,0.0,0.0,0.0,0.0,0.0,0.0,0.0,0.0,-3.4176,-3.4427,-3.4703,-3.5071,-3.5529,-3.5231,-3.4263,-3.4064,-3.3123,-3.1546,-3.0949,-3.0241,-2.9619,-2.963,-2.8156,-2.5622,-2.4658,-2.3564,-2.2375,0.0,0.0,0.0,0.0,-2.0443,-2.0939,0.0,0.0,0.0,0.0,0.0,0.0,0.0,0.0,0.0,0.0,0.0,0.0,0.0,0.0,0.0,-2.9138,0.0,0.0,0.0,0.0,0.0,0.0,0.0,0.0,0.0,0.0,0.0,-2.3096,-2.4613,-2.425,-2.2138,-2.2716,-2.254,-2.1887,-2.4146,-2.5557,-2.6326,-2.5971,-2.6424,0.0,0.0,0.0,0.0,0.0,0.0,0.0,0.0,0.0,0.0,0.0,0.0,0.0,0.0,0.0,0.0,0.0,0.0,0.0,0.0,0.0,0.0,0.0,0.0,0.0,0.0,0.0,0.0,0.0,0.0,0.0,0.0,0.0,0.0,0.0,0.0,0.0,0.0,-2.8264,-2.9238,-2.6576,-2.9228,-3.0174,0.0,0.0,0.0,0.0,0.0,0.0,-3.4898,-3.5441,-3.6269,-3.7608,-3.7975,-3.8238,-3.8431,-3.797,-3.7518,-3.6944,-3.5039,-3.3675,-3.2778,-3.1905,-3.0911,-2.9834,-3.0448,-2.9728,-2.7966,-2.6428,-2.5287,-2.4394,-2.2803,-2.198,-2.1678,-2.166,-2.1645,-2.178,0.0,0.0,0.0,0.0,0.0,0.0,0.0,0.0,0.0,0.0,0.0,0.0,0.0,0.0,-2.8768,-3.0724,-2.8429,-2.6633,0.0,0.0,0.0,0.0,0.0,0.0,0.0,0.0,0.0,-2.1418,-1.6202,-1.3807,-1.4004,-1.087,-1.2254,-1.7673,-2.3031,-2.6348,-2.7776,-2.7586,-2.846,-2.978,0.0,0.0,0.0,0.0,0.0,0.0,0.0,0.0,0.0,0.0,0.0,0.0,0.0,0.0,0.0,0.0,0.0,0.0,0.0,0.0,0.0,0.0,0.0,0.0,0.0,0.0,0.0,0.0,0.0,0.0,0.0,0.0,0.0,0.0,0.0,0.0,0.0,0.0,0.0,-2.8469,-3.3122,0.0,0.0,0.0,0.0,-3.3864,-3.3969,-3.5198,-3.7929,-3.876,-4.0131,-4.2283,-4.2196,-4.2077,-4.2055,-4.1157,-3.9682,-3.771,-3.6357,-3.4892,-3.3411,-3.2108,-3.115,-3.0518,-3.1075,-3.0624,-2.928,-2.7331,-2.5781,-2.4507,-2.3796,-2.2775,-2.1697,-2.1697,-2.1712,-2.1702,0.0,0.0,0.0,0.0,0.0,0.0,0.0,0.0,0.0,0.0,0.0,0.0,0.0,-2.9068,-3.0134,-2.9436,-2.9187,-2.7802,-2.4729,0.0,0.0,0.0,0.0,0.0,0.0,0.0,-2.6021,-2.4567,-2.0989,-1.9608,-2.0214,-1.4447,-1.3141,-1.5921,-2.0809,-2.4831,-2.8051,-2.9128,-2.9557,-2.9306,-2.7184,-2.543,0.0,0.0,0.0,0.0,0.0,0.0,0.0,0.0,0.0,0.0,0.0,0.0,0.0,0.0,0.0,0.0,0.0,0.0,0.0,0.0,0.0,0.0,0.0,0.0,0.0,0.0,0.0,0.0,0.0,0.0,0.0,0.0,0.0,0.0,0.0,0.0,0.0,-3.2028,-3.5801,0.0,-3.459,-3.5116,-3.6203,-3.7572,-3.8224,-3.9656,-4.2162,-4.2623,-4.3261,-4.4211,-4.3589,-4.3124,-4.2867,-4.1442,-4.0144,-3.9043,-3.7173,-3.5582,-3.425,-3.2844,-3.1778,-3.1106,-3.1289,-3.0896,-3.0054,-2.9312,-2.828,-2.7011,-2.5894,-2.4934,-2.4134,-2.3688,-2.3583,-2.3568,0.0,0.0,0.0,0.0,0.0,0.0,0.0,0.0,0.0,0.0,0.0,-2.7148,-2.6823,-2.9028,-2.9951,-2.8478,-2.8614,-2.7363,-2.3971,0.0,0.0,0.0,-2.315,0.0,0.0,-2.721,-2.7004,-2.5291,-2.1151,-1.9338,-1.9539,-1.1998,-1.0941,-1.5618,-2.1989,-2.6002,-2.8038,-2.9613,-2.9947,-2.9232,-2.7276,-2.5629,-2.4109,0.0,0.0,0.0,0.0,0.0,0.0,0.0,0.0,0.0,0.0,0.0,0.0,0.0,0.0,0.0,0.0,0.0,0.0,0.0,0.0,0.0,0.0,0.0,0.0,0.0,0.0,0.0,0.0,0.0,0.0,0.0,0.0,0.0,0.0,0.0,-3.5359,-3.3595,-3.7655,-3.9533,-3.6869,-3.8258,-3.9903,-4.1324,-4.1992,-4.3164,-4.5018,-4.5111,-4.5184,-4.5353,-4.4602,-4.3922,-4.3365,-4.2106,-4.0787,-3.9411,-3.7719,-3.6146,-3.461,-3.3231,-3.2144,-3.1404,-3.142,-3.0887,-3.008,-3.0523,-2.9936,-2.8681,-2.7578,-2.6643,-2.5777,-2.5104,-2.4476,-2.3844,0.0,0.0,0.0,0.0,0.0,0.0,0.0,0.0,0.0,0.0,-2.5632,-2.6596,-2.6807,-2.7412,-2.7835,-2.7833,-2.644,-2.4957,-2.3564,-2.3242,0.0,0.0,0.0,0.0,-2.7642,-2.8013,-2.6593,-2.3359,-1.5896,-1.2015,-1.1449,-0.2941,-0.526,-1.7014,-2.6674,-2.9804,-2.7908,-2.8903,-2.9507,-2.9598,-2.7325,-2.5658,-2.4298,0.0,0.0,0.0,0.0,0.0,0.0,0.0,0.0,0.0,0.0,0.0,0.0,0.0,0.0,0.0,0.0,0.0,0.0,0.0,0.0,0.0,0.0,0.0,0.0,0.0,0.0,0.0,0.0,0.0,0.0,0.0,0.0,0.0,-2.987,-3.3984,-3.6037,-3.3268,-3.8884,-4.1819,-3.8926,-4.1751,-4.4121,-4.498,-4.5039,-4.541,-4.625,-4.6039,-4.5899,-4.5899,-4.5353,-4.4649,-4.3748,-4.3361,-4.169,-3.8795,-3.8095,-3.6652,-3.4595,-3.3233,-3.2191,-3.1518,-3.1454,-3.0686,-2.956,-3.0778,-3.0559,-2.9405,-2.8759,-2.7665,-2.6356,-2.5719,-2.4235,-2.2326,0.0,0.0,0.0,0.0,0.0,0.0,0.0,0.0,0.0,0.0,-2.4375,-2.4321,-2.3086,-2.3496,-2.3245,-2.1626,-2.1975,-2.1882,-2.0918,0.0,0.0,0.0,0.0,0.0,-2.9159,-2.9757,-2.9842,-2.9418,-2.2815,-2.0843,-2.3106,-1.5024,-1.6256,-2.5289,-2.5658,-2.6834,-2.8384,-2.6365,-2.5563,-2.555,-2.4312,-2.2806,-2.1104,0.0,0.0,0.0,0.0,0.0,0.0,0.0,0.0,0.0,0.0,0.0,0.0,0.0,0.0,0.0,0.0,0.0,0.0,0.0,0.0,0.0,0.0,0.0,0.0,0.0,0.0,0.0,0.0,0.0,0.0,0.0,0.0,-3.3629,-3.4476,-3.6733,-3.8821,-4.0189,-4.2889,-4.4432,-4.3892,-4.4807,-4.5573,-4.5918,-4.5937,-4.5994,-4.615,-4.5988,-4.5881,-4.5832,-4.4746,-4.4341,-4.4711,-4.2941,-4.1728,-4.1067,-3.947,-3.7644,-3.5582,-3.4651,-3.3533,-3.2273,-3.1909,-3.1524,-3.1116,-3.1194,-3.1022,-3.054,-2.9032,-2.7934,-2.7011,-2.5452,-2.3919,-2.2455,0.0,0.0,0.0,0.0,0.0,0.0,0.0,0.0,0.0,0.0,-2.292,-2.2447,-2.1626,-2.1395,-2.0284,-1.7778,-1.9195,-2.0158,-1.996,0.0,0.0,0.0,0.0,-2.8572,-3.0264,-3.0351,-3.0682,-3.1335,-2.7078,-2.5913,-2.7685,-2.3227,-2.3761,-2.8355,-2.6823,-2.6876,-2.7925,-2.5354,-2.3312,-2.1654,-2.0165,-1.9425,-1.9067,-1.7712,-1.6823,-1.6258,-1.5922,-1.5967,-1.6213,-1.6118,0.0,0.0,0.0,0.0,0.0,0.0,0.0,0.0,0.0,0.0,0.0,0.0,0.0,0.0,0.0,0.0,0.0,0.0,0.0,0.0,0.0,0.0,0.0,0.0,-3.4138,-3.6005,-3.8552,-3.9479,-4.0626,-4.2561,-4.4122,-4.512,-4.5304,-4.5793,-4.612,-4.6202,-4.6268,-4.6268,-4.6198,-4.6069,-4.5979,-4.593,-4.4794,-4.4338,-4.4632,-4.2921,-4.1578,-4.0652,-3.941,-3.77,-3.5603,-3.4731,-3.387,0.0,-3.2409,-3.2154,-3.2039,-3.1296,-3.1008,0.0,0.0,0.0,0.0,0.0,-2.3299,-2.2679,0.0,0.0,0.0,0.0,0.0,0.0,0.0,0.0,0.0,0.0,0.0,-2.0511,-2.0889,-1.9827,-1.7889,-1.4773,-1.7195,-1.9413,0.0,0.0,0.0,-2.7618,-2.8651,-2.9803,-3.0984,-3.0226,-3.0162,-3.0786,-2.9244,-2.8267,-2.7898,-2.823,-2.8338,-2.8201,-2.9027,-2.8612,-2.7175,-2.5406,-2.2535,-1.8915,-1.6272,-1.6074,-1.7245,-1.5746,-1.4811,-1.432,-1.4182,-1.4728,-1.5439,-1.5573,0.0,0.0,0.0,0.0,0.0,0.0,0.0,0.0,0.0,0.0,0.0,0.0,0.0,0.0,0.0,0.0,0.0,0.0,0.0,0.0,0.0,0.0,0.0,0.0,-3.679,-3.7828,-4.1805,-4.1869,-4.1734,-4.2321,-4.3753,-4.4671,-4.4647,-4.5515,-4.608,-4.6108,-4.6223,-4.6308,-4.6308,0.0,0.0,0.0,0.0,-4.4361,-4.394,-4.2832,-4.1169,-3.8943,-3.8507,-3.7198,-3.5173,-3.4264,-3.3743,-3.3547,-3.2823,-3.2403,-3.2181,-3.1062,-3.0439,-3.0161,-2.8782,-2.7729,-2.656,-2.3519,-2.263,-2.2783,0.0,0.0,0.0,0.0,0.0,0.0,0.0,0.0,0.0,-2.1644,-1.9127,-1.6972,-1.638,-1.5132,-1.268,-0.8534,-1.3519,-1.892,0.0,0.0,-2.7333,-2.7978,-2.9687,-3.0802,-3.115,-3.0842,-3.0861,-3.1267,-2.9758,-2.9237,-2.9627,-2.9751,-2.9559,-2.9131,-2.9249,-2.8994,-2.8298,-2.5665,-2.3467,-2.1439,-1.7547,-1.4759,-1.2849,-1.1939,-1.1517,-1.1496,-1.247,-1.308,-1.3619,-1.4275,-1.6158,-1.8302,-1.9274,-2.0965,0.0,0.0,0.0,0.0,0.0,0.0,0.0,0.0,0.0,0.0,0.0,0.0,0.0,0.0,0.0,0.0,0.0,0.0,0.0,-3.7946,-3.9197,-4.0484,-4.2339,-4.2497,-4.2865,-4.3958,-4.4411,-4.4865,-4.5485,-4.5794,-4.5981,-4.6084,-4.6223,-4.6308,-4.6308,-4.6173,-4.5777,-4.5074,-4.4143,-4.3616,-4.3509,-4.1052,-3.9832,-3.9924,0.0,0.0,-3.5745,-3.5525,-3.4717,-3.3403,-3.2732,-3.1827,-3.0825,-3.0062,-2.8955,-2.7774,-2.746,-2.602,-2.3994,-2.3227,-2.2639,-2.2103,0.0,0.0,0.0,0.0,0.0,0.0,0.0,0.0,0.0,0.0,-1.786,-1.5334,-1.4613,-1.1882,-1.0118,-1.0243,-1.5171,0.0,0.0,-2.6877,-2.8223,-2.9154,-3.0071,-3.0688,-3.1035,-3.0453,-3.0185,-3.0279,-2.954,-2.9529,-3.0135,-2.9768,-2.9566,-2.9496,-2.9185,-2.8722,-2.8032,-2.6253,-2.4604,-2.2887,-1.9261,-1.6137,-1.3405,-1.1154,-0.9946,-0.9632,-1.0518,-1.1558,-1.2584,-1.3036,-1.4767,-1.693,-1.845,-1.9978,-2.16,0.0,0.0,0.0,0.0,0.0,0.0,0.0,0.0,0.0,0.0,0.0,0.0,0.0,0.0,-3.1054,0.0,0.0,-3.8255,-4.0874,-4.1509,-4.205,-4.3201,-4.3259,-4.3555,-4.4482,-4.458,-4.4912,-4.5722,-4.5861,-4.5924,-4.5995,-4.612,-4.6173,-4.6089,-4.5699,-4.525,-4.482,-4.3177,-4.2266,-4.2208,-3.9874,-3.8664,-3.8537,-3.7321,-3.6311,-3.5477,-3.4904,-3.4182,-3.3352,-3.2478,-3.1728,-3.1045,-2.9792,-2.7989,-2.5957,-2.6233,-2.5427,-2.3945,-2.3129,-2.2781,-2.2592,0.0,0.0,0.0,0.0,0.0,0.0,0.0,0.0,0.0,0.0,-1.7458,-1.522,-1.48,-1.1258,-1.0844,0.0,0.0,0.0,0.0,-2.7555,-2.8929,-3.0054,-3.019,-3.0401,-3.0774,-2.9739,-2.9219,-2.9296,-2.9173,-2.9435,-3.0062,-2.9663,-2.9521,-2.959,-2.9225,-2.8615,-2.7767,-2.7206,-2.5979,-2.4173,-2.1453,-1.8924,-1.6327,-1.2367,-0.9799,-0.8383,-0.8768,-0.9911,-1.1285,-1.1614,-1.3162,-1.5321,-1.7277,-1.8648,-2.0019,-2.2421,-2.3712,0.0,0.0,0.0,0.0,0.0,0.0,0.0,0.0,0.0,-2.7933,-2.9846,-3.1579,-3.3844,-3.7425,-3.8957,-4.0655,-4.3717,-4.3558,-4.3305,-4.4034,-4.3986,-4.4018,-4.4386,-4.4588,-4.4976,-4.5699,-4.5817,-4.5881,-4.5881,-4.5852,-4.5774,-4.5674,-4.4773,-4.4202,-4.4046,-4.1995,-4.0767,-4.0476,-3.8858,-3.7661,-3.6889,-3.6229,-3.5531,-3.4819,-3.3733,-3.3129,-3.2882,-3.171,-3.118,-3.1016,-2.9323,-2.7222,-2.5096,-2.5213,-2.4962,-2.4394,-2.319,-2.2926,-2.3119,0.0,0.0,0.0,0.0,0.0,0.0,0.0,0.0,0.0,0.0,0.0,0.0,0.0,0.0,0.0,0.0,0.0,0.0,-2.617,-2.7971,-2.9039,-2.9313,-3.0277,-3.069,-3.0382,-2.9103,-2.8811,-2.964,-2.9046,-2.9076,-2.9679,-3.0685,-3.0571,-2.9612,-2.9911,-2.9611,-2.8828,-2.8682,-2.7687,-2.6061,-2.4413,-2.2581,-2.0373,-1.6042,-1.1814,-0.8079,-0.7542,-0.7921,-0.8808,-0.9776,-1.1334,-1.3142,-1.5378,-1.7104,-1.8858,-2.1679,-2.2994,-2.3766,-2.4819,-2.5303,-2.5878,-2.7479,-2.7751,-2.8395,0.0,0.0,-3.1592,-3.4237,-3.6068,-3.7871,-4.01,-4.2329,-4.4079,-4.4851,-4.498,-4.4878,-4.4568,-4.4508,-4.4354,-4.3938,-4.4554,-4.5201,-4.5584,-4.5747,-4.5815,-4.5815,-4.5211,-4.4853,-4.4837,-4.3284,-4.2071,-4.1363,-4.0325,-3.939,-3.8618,-3.7631,-3.7067,-3.689,-3.53,-3.4327,-3.3917,-3.3064,-3.2169,-3.1204,-2.9771,-2.8991,-2.8688,-2.7465,-2.6602,-2.59,-2.4589,-2.3883,-2.3533,-2.3369,-2.2926,-2.2423,0.0,0.0,0.0,0.0,0.0,0.0,0.0,0.0,0.0,0.0,0.0,0.0,0.0,0.0,0.0,0.0,0.0,0.0,-2.6446,-2.7388,-2.8384,-2.9547,-2.9797,-2.9819,-2.9648,-2.9758,-2.9599,-2.9144,-2.942,-2.9715,-2.9993,-2.9567,-2.9047,-2.8485,-2.8522,-2.8133,-2.7563,-2.7864,-2.7795,-2.7361,-2.5393,-2.3992,-2.2637,-1.8626,-1.5167,-1.2172,-0.9913,-0.9319,0.0,0.0,-1.1133,-1.2848,-1.4852,-1.6335,-1.7972,-2.1065,-2.2535,-2.3418,-2.4771,-2.6119,-2.7305,-2.8066,-2.8856,-2.9883,-3.1652,-3.2288,-3.3175,-3.5544,-3.7958,-4.0174,-4.1912,-4.3888,-4.5321,0.0,-4.5567,-4.5439,-4.5051,-4.4664,-4.4262,-4.3836,-4.3866,-4.4207,-4.4897,-4.5001,-4.5041,-4.5041,-4.4281,-4.3722,-4.3501,-4.2071,-4.1042,-4.0505,-3.8924,-3.7903,-3.7546,-3.6651,-3.6173,-3.6124,-3.4859,-3.409,-3.3745,-3.2447,-3.1189,-3.0001,-2.8886,-2.8136,-2.7637,-2.6683,-2.5833,-2.504,-2.4398,-2.3667,-2.296,-2.2813,-2.257,-2.231,0.0,0.0,0.0,0.0,0.0,0.0,0.0,0.0,0.0,0.0,0.0,0.0,0.0,0.0,0.0,0.0,0.0,0.0,0.0,-2.6626,-2.7536,-2.91,-2.8992,-2.8971,-2.9128,-2.9676,-2.9576,-2.8768,-2.9548,-2.9857,-2.9745,-2.8841,-2.8236,-2.7928,-2.7666,-2.7349,-2.6995,-2.725,-2.7503,-2.7548,-2.5756,-2.4683,-2.3897,-2.0689,-1.8523,-1.6663,-1.2791,-1.1308,0.0,0.0,-1.1794,-1.3228,-1.4935,-1.6236,-1.7705,-2.0681,-2.2418,-2.3713,-2.5072,-2.6619,-2.7969,-2.8451,-2.9778,-3.1178,-3.2031,-3.3178,-3.4528,-3.6141,-3.8658,-4.0908,-4.2027,-4.3995,-4.546,-4.5501,-4.5689,-4.5731,-4.5468,-4.482,-4.4179,-4.3655,-4.3308,-4.3265,-4.3703,-4.3968,-4.4219,-4.4432,-4.3427,-4.2695,-4.2374,-4.0838,-3.9797,-3.9487,-3.7591,-3.655,-3.6474,-3.588,-3.545,-3.5198,-3.4282,-3.3465,-3.2733,-3.0912,-2.9548,-2.8584,-2.7954,-2.7451,-2.697,-2.6159,-2.5301,-2.4449,-2.4125,-2.3472,-2.2668,-2.24,-2.231,-2.231,0.0,0.0,0.0,0.0,0.0,0.0,0.0,0.0,0.0,0.0,0.0,0.0,0.0,0.0,0.0,0.0,0.0,0.0,0.0,-2.5832,-2.6705,-2.7349,-2.7837,-2.8424,-2.9008,-2.8075,-2.8065,-2.8988,-2.9095,-2.8905,-2.8476,-2.9331,-2.9299,-2.857,-2.8351,-2.8277,-2.8219,-2.7691,-2.7024,-2.6217,-2.5773,-2.5075,-2.4089,-2.2374,-2.1469,-2.0479,-1.5497,0.0,-1.215,-1.2548,-1.3224,-1.411,-1.5354,-1.6832,-1.8473,-2.0513,-2.2831,-2.4934,-2.5837,-2.6407,-2.7147,-2.8855,-3.0584,-3.2215,-3.3537,-3.4899,-3.6065,-3.6587,-3.8305,-3.9743,-3.9804,-4.2401,-4.4549,-4.4538,-4.5307,-4.587,-4.5801,-4.5041,-4.4142,-4.3236,-4.3124,-4.2777,0.0,-4.2659,-4.3467,-4.4256,-4.2794,-4.1835,-4.1819,-3.945,-3.7951,-3.7695,-3.6285,-3.5417,-3.5157,-3.5383,-3.5084,-3.4231,-3.3353,-3.1974,-3.0151,-2.801,-2.6913,-2.6667,-2.6649,-2.6649,-2.6554,-2.5764,-2.5228,-2.4756,-2.3661,-2.3003,-2.2659,-2.2409,-2.231,-2.231,0.0,0.0,0.0,0.0,0.0,0.0,0.0,0.0,0.0,0.0,0.0,0.0,0.0,0.0,0.0,0.0,-2.0219,0.0,0.0,-2.2656,-2.3814,-2.5196,-2.6007,-2.6882,-2.7848,-2.807,-2.8452,-2.906,-2.9089,-2.8859,-2.8481,-2.8339,-2.7831,-2.7023,-2.6834,-2.662,-2.6363,-2.6029,-2.6006,-2.5994,-2.3866,-2.3819,-2.4798,-2.2508,-2.1905,-2.2036,0.0,0.0,-1.6138,-1.5537,-1.5923,-1.6691,-1.7066,-1.8266,-1.9893,-2.1966,-2.3952,-2.5584,-2.6144,-2.7398,-2.8789,-2.9726,-3.093,-3.2085,-3.2756,-3.3647,-3.4393,-3.4542,-3.5541,-3.6438,-3.6616,-3.9095,-4.1325,-4.2007,-4.3796,-4.5304,-4.5917,-4.5122,-4.4176,-4.3258,-4.2622,0.0,0.0,0.0,0.0,-4.2585,-4.1085,-4.029,-4.0652,-3.8969,-3.7859,-3.7526,-3.6031,-3.492,-3.4241,-3.4327,-3.3957,-3.3111,-3.1699,-3.0395,-2.9179,-2.76,-2.686,-2.6764,-2.6088,-2.5786,-2.5731,-2.4942,-2.4537,-2.4388,-2.4003,-2.3539,-2.3038,-2.2943,-2.2634,-2.231,0.0,0.0,0.0,0.0,0.0,0.0,0.0,0.0,0.0,0.0,0.0,0.0,0.0,0.0,0.0,0.0,0.0,-1.8732,0.0,0.0,-2.1858,-2.3353,-2.4521,-2.5505,-2.6276,-2.7052,-2.7513,-2.7677,-2.7677,-2.7455,-2.7009,-2.6332,-2.5735,-2.5243,-2.4807,-2.4709,-2.472,-2.4156,-2.4325,-2.4737,-2.2486,-2.2469,-2.3683,-2.2505,-2.2374,0.0,0.0,0.0,-2.0242,-1.8622,-1.8467,-1.8965,-1.8904,-1.9991,-2.1556,-2.3084,-2.4671,-2.6033,-2.6656,-2.8027,-2.9338,-2.9564,-3.0658,-3.1532,-3.0952,-3.1756,-3.2496,-3.2072,-3.2731,-3.3431,-3.3612,-3.6017,-3.8236,-3.891,-4.0667,-4.2595,-4.4416,-4.3298,-4.2539,-4.3129,-4.2143,-4.1393,0.0,0.0,0.0,-4.172,-4.0508,-3.9868,-4.023,-3.8731,-3.7706,-3.7414,-3.5818,-3.449,-3.3506,-3.3597,-3.2999,-3.1688,-3.0084,-2.8809,-2.7864,-2.6729,-2.6145,-2.6023,-2.5356,-2.504,-2.4924,-2.441,-2.419,-2.419,-2.4074,-2.3682,-2.3179,-2.3074,-2.2721,-2.231,0.0,0.0,0.0,0.0,0.0,0.0,0.0,0.0,0.0,0.0,0.0,0.0,0.0,0.0,0.0,0.0,0.0,0.0,0.0,0.0,0.0,-2.1761,-2.3261,-2.4201,-2.4395,-2.5016,-2.5236,-2.5016,-2.5016,-2.4792,-2.4367,-2.3647,-2.3381,-2.3435,-2.2526,-2.263,-2.3533,-2.2276,-2.212,-2.2642,-2.1668,-2.1254,-2.131,-2.246,0.0,0.0,0.0,-2.4197,-2.4056,-2.1609,-2.0831,-2.0894,-2.0912,-2.2005,-2.3361,-2.3987,-2.512,-2.6396,-2.7403,-2.8298,-2.8833,-2.8422,-2.9711,-3.0525,-2.8376,-2.9371,-3.0439,-2.94,-3.002,-3.0731,-3.0731,-3.3245,-3.5342,-3.5514,-3.6514,-3.8438,-4.1776,-4.021,-3.9844,0.0,0.0,0.0,0.0,0.0,0.0,-4.1623,0.0,-4.0431,-4.0431,-3.864,-3.7452,-3.7156,-3.5507,-3.406,-3.2952,-3.3066,-3.2086,-2.9999,-2.8509,-2.7294,-2.627,-2.5411,-2.4818,-2.4512,-2.4512,-2.4393,-2.419,-2.419,-2.419,-2.417,-2.3837,-2.3522,-2.3165,-2.2848,-2.2537,-2.231,0.0,0.0,0.0,0.0,0.0,0.0,0.0,0.0,0.0,0.0,0.0,0.0,0.0,0.0,0.0,0.0,0.0,0.0,0.0,0.0,0.0,0.0,0.0,0.0,0.0,0.0,0.0,-2.4152,-2.3851,-2.3786,-2.4031,-2.3576,-2.3381,-2.329,-2.2275,-2.2008,-2.2287,-2.1448,-2.1871,-2.3033,0.0,-2.214,-2.3681,0.0,0.0,0.0,0.0,-2.4638,-2.4432,-2.2767,-2.2755,-2.353,-2.4037,-2.4577,-2.5225,-2.6171,-2.6851,-2.7479,-2.834,-2.8994,-2.9102,-2.7712,-2.7698,-2.7752,-2.6674,-2.6831,-2.7265,-2.7535,-2.7304,-2.7098,-2.725,-3.0106,-3.2961,-3.4529,-3.8176,0.0,-4.3925,-4.3587,0.0,-4.3324,0.0,-4.1262,-4.0581,-4.0296,0.0,0.0,-4.0065,-3.9604,-3.9604,-3.8333,-3.7278,-3.6539,-3.4538,-3.3004,-3.2098,-3.0334,-2.9269,-2.8885,-2.7407,-2.6555,-2.627,-2.5411,-2.4898,-2.4716,-2.4578,-2.4393,-2.419,-2.419,-2.419,-2.419,-2.4094,-2.3714,-2.3189,-2.3093,-2.2747,-2.231,0.0,0.0,0.0,0.0,0.0,0.0,0.0,0.0,0.0,0.0,0.0,0.0,0.0,0.0,0.0,0.0,0.0,0.0,0.0,0.0,0.0,0.0,0.0,0.0,0.0,0.0,0.0,0.0,0.0,0.0,-2.1612,-2.1714,-2.1736,-2.1649,-2.0616,-2.0527,-2.1161,-2.0297,0.0,0.0,0.0,0.0,0.0,0.0,0.0,0.0,-2.4976,-2.5195,-2.5504,-2.518,-2.5333,-2.5834,-2.671,-2.6876,-2.6889,-2.7593,-2.8004,-2.8435,-2.9187,-2.9459,-2.912,-2.7283,-2.6621,-2.6157,-2.4986,-2.4844,-2.5182,-2.5888,-2.5578,-2.5217,-2.5442,-2.7818,-3.0285,0.0,0.0,0.0,-4.2238,-4.1947,-4.1877,0.0,-4.1842,0.0,-4.0023,-3.9623,-3.9392,0.0,-3.9335,-3.9296,-3.9296,-3.7733,-3.6464,-3.5628,-3.3795,-3.2093,-3.058,-2.8925,-2.783,-2.7261,-2.6612,-2.6079,-2.562,-2.5203,-2.4872,-2.4654,0.0,-2.4393,-2.419,-2.419,-2.419,-2.419,-2.4054,-2.3671,-2.3165,-2.3045,-2.2695,-2.2265,0.0,0.0,0.0,0.0,0.0,0.0,0.0,0.0,0.0,0.0,0.0,0.0,0.0,0.0,0.0,0.0,0.0,0.0,0.0,0.0,0.0,0.0,0.0,0.0,0.0,0.0,0.0,0.0,0.0,0.0,0.0,0.0,0.0,0.0,0.0,0.0,0.0,0.0,0.0,0.0,0.0,0.0,0.0,0.0,0.0,0.0,-2.5109,-2.5691,-2.6646,-2.7783,-2.7916,-2.7772,-2.8728,-2.8685,-2.8375,-2.8662,-2.894,-2.9316,-3.009,-2.9999,-2.9112,-2.7016,-2.6065,-2.5231,-2.3518,-2.3328,-2.379,-2.4636,-2.4623,-2.4528,-2.476,-2.6308,-2.8006,-2.9431,0.0,-3.4199,-3.9276,-3.8607,-3.8951,-4.2634,-4.0888,-3.9335,-3.9138,-3.843,-3.8007,-3.8007,-3.8584,-3.895,-3.895,-3.7015,-3.5392,-3.4293,-3.2863,-3.1072,-2.8847,-2.8116,-2.7046,-2.5652,-2.5962,-2.5625,-2.4775,-2.4924,-2.4818,-2.4495,-2.4495,0.0,-2.419,-2.419,-2.419,-2.417,-2.3816,-2.35,-2.3165,-2.2822,-2.2527,-2.2231,0.0,0.0,0.0,0.0,0.0,0.0,0.0,0.0,0.0,0.0,-1.6681,-1.8449,0.0,0.0,0.0,0.0,0.0,0.0,0.0,0.0,0.0,0.0,0.0,0.0,0.0,0.0,0.0,0.0,0.0,0.0,0.0,0.0,0.0,0.0,0.0,0.0,0.0,0.0,0.0,0.0,0.0,0.0,0.0,0.0,0.0,0.0,-2.5106,-2.5625,-2.6569,-2.8072,-2.8893,-2.9261,-2.9062,-2.923,-2.964,-3.0417,-3.0286,-3.0201,-3.1544,-3.1131,-2.9582,-2.655,-2.5192,-2.4265,-2.2997,-2.2446,-2.2722,-2.4441,-2.4515,-2.4357,-2.4731,-2.6189,-2.8268,-3.1074,-3.3554,-3.648,-4.0408,-4.0508,-4.0446,0.0,-4.0142,-3.9032,-3.8296,-3.8084,0.0,0.0,0.0,-3.7161,-3.7161,-3.6368,-3.4695,-3.2064,-3.0465,-2.9108,-2.8026,-2.6583,-2.572,-2.5444,-2.5198,-2.4877,-2.4559,-2.4858,-2.4818,-2.4495,-2.4495,0.0,-2.419,-2.419,-2.419,-2.417,-2.3816,-2.35,-2.3165,-2.2822,-2.2527,-2.2231,0.0,0.0,0.0,0.0,0.0,0.0,0.0,0.0,-1.0398,-1.6202,-1.8375,-1.9636,-2.0385,-1.9791,0.0,0.0,0.0,0.0,0.0,0.0,0.0,0.0,0.0,0.0,0.0,0.0,-1.7276,-1.7287,0.0,0.0,0.0,0.0,0.0,0.0,0.0,0.0,0.0,0.0,0.0,0.0,0.0,0.0,0.0,0.0,0.0,0.0,0.0,-2.6201,-2.7025,-2.8328,-2.9164,-2.9813,-3.0412,-3.0534,-3.0601,-3.1542,-3.1336,-3.1083,-3.2486,-3.1788,-3.0106,-2.7818,-2.5788,-2.4225,-2.3709,-2.2758,-2.2533,-2.4409,-2.455,-2.4444,-2.4746,-2.58,-2.7363,-2.9562,-3.1721,-3.4389,-3.7942,-3.8261,-3.8661,-4.0057,-3.888,-3.7623,-3.6776,-3.6699,-3.6315,0.0,0.0,-3.6257,-3.668,-3.4959,-3.3064,-3.1057,-2.9292,-2.7989,-2.7181,-2.5988,-2.5201,-2.4778,-2.4698,-2.4545,-2.4357,-2.4636,-2.4586,-2.4339,-2.4339,0.0,-2.419,-2.419,-2.4094,-2.3917,-2.3566,-2.3236,-2.2898,-2.2616,-2.226,-2.1857,0.0,0.0,0.0,0.0,0.0,0.0,0.0,-1.0958,-1.3242,-1.8542,-1.9378,-1.9435,-1.9295,-1.947,-1.9406,0.0,0.0,0.0,0.0,0.0,0.0,0.0,0.0,0.0,0.0,0.0,0.0,-1.6979,-1.796,0.0,0.0,0.0,0.0,0.0,-2.1744,0.0,0.0,0.0,0.0,0.0,0.0,0.0,0.0,0.0,0.0,0.0,0.0,-2.6292,-2.6958,-2.7949,-2.8587,-2.9233,-3.0751,-3.0931,-3.0762,-3.1714,-3.1686,-3.1632,-3.3044,-3.232,-3.0779,-2.9171,-2.6743,-2.4692,-2.4509,-2.3322,-2.2762,-2.4488,-2.467,-2.4559,-2.4799,-2.5343,-2.6243,0.0,-2.9214,-3.1354,-3.4842,-3.538,-3.6253,-3.8493,-3.7533,0.0,-3.5584,-3.5493,0.0,0.0,0.0,0.0,-3.6046,-3.3489,-3.1525,-3.0406,-2.8621,-2.7294,-2.6482,-2.563,-2.4892,-2.4284,-2.4409,-2.4393,-2.4209,-2.441,-2.4393,-2.419,-2.419,0.0,0.0,-2.419,-2.3996,-2.3671,-2.3346,-2.2996,-2.2686,-2.2415,-2.2053,-2.168,0.0,0.0,0.0,0.0,0.0,0.0,0.0,-1.8283,-2.0463,-2.0845,-1.986,-1.7008,-1.142,-1.5923,-2.0067,0.0,0.0,0.0,0.0,0.0,0.0,0.0,0.0,0.0,0.0,0.0,0.0,-1.8565,-1.9192,0.0,0.0,0.0,0.0,0.0,0.0,-2.2841,-2.3434,0.0,0.0,0.0,0.0,0.0,0.0,0.0,0.0,0.0,0.0,-2.4903,-2.5348,-2.6223,-2.6561,-2.6815,-2.7994,-2.874,-2.9343,-3.0161,-3.0755,-3.1468,-3.3051,-3.2921,-3.1735,-2.923,-2.7291,-2.5661,-2.4573,-2.3544,-2.3237,-2.4683,-2.4715,-2.4588,-2.4924,-2.4934,-2.5596,0.0,0.0,-2.9565,-3.3044,-3.4108,-3.4897,-3.5937,0.0,0.0,-3.5584,-3.5493,0.0,0.0,0.0,0.0,-3.4031,-3.2359,-3.0861,-2.9738,-2.8101,-2.686,-2.6054,-2.5084,-2.4552,-2.4478,-2.4495,-2.4393,-2.4209,-2.441,-2.4393,-2.419,-2.419,0.0,0.0,-2.419,-2.3996,-2.3671,-2.3346,-2.2996,-2.2686,-2.2415,-2.2282,-2.2111,0.0,0.0,0.0,0.0,0.0,0.0,-1.927,-1.992,-2.0379,-2.0584,-1.8148,-1.4695,-1.0232,-0.5423,-0.443,0.0,0.0,0.0,0.0,0.0,0.0,0.0,0.0,0.0,0.0,0.0,0.0,-1.9526,-2.0131,0.0,0.0,0.0,0.0,0.0,0.0,-2.375,-2.4289,0.0,0.0,0.0,0.0,0.0,0.0,0.0,0.0,0.0,0.0,0.0,-2.452,-2.5313,-2.5583,-2.5684,-2.6248,-2.664,-2.7246,-2.9062,-2.9971,-3.0538,-3.1354,-3.1345,-3.0715,-2.9058,-2.7369,-2.5979,-2.5534,-2.4592,-2.4031,-2.4821,-2.4923,-2.4885,-2.4979,-2.4949,-2.5256,0.0,0.0,0.0,-2.9879,-3.0443,-3.1495,-3.39,-3.432,0.0,0.0,0.0,0.0,0.0,0.0,0.0,-3.1546,-3.0833,-2.9876,-2.8746,-2.7136,-2.6145,-2.5809,-2.5051,-2.4685,-2.4685,-2.4561,-2.4461,-2.4375,-2.4339,-2.4266,-2.419,-2.419,0.0,0.0,-2.3976,-2.3692,-2.3369,-2.3021,-2.273,-2.2453,-2.2349,-2.1991,-2.1479,0.0,0.0,0.0,0.0,0.0,-2.0134,-2.0931,-2.0431,-1.9914,-1.9878,-1.7729,-1.4388,-0.9588,-0.1352,0.269,-0.0153,0.0,0.0,0.0,0.0,0.0,0.0,0.0,0.0,0.0,0.0,0.0,-2.0846,-2.1413,-2.2247,0.0,0.0,-2.3876,-2.4445,0.0,0.0,0.0,0.0,0.0,0.0,0.0,0.0,0.0,0.0,0.0,0.0,0.0,0.0,0.0,0.0,0.0,-2.5043,-2.5251,-2.5313,-2.5743,-2.7846,-2.8776,-2.9235,-2.968,-2.9716,-2.942,-2.8496,-2.7122,-2.5973,-2.5967,-2.5198,-2.4594,-2.5019,-2.509,-2.5101,-2.5091,-2.505,-2.5118,-2.5364,0.0,-2.6065,-2.7563,-2.7962,-2.9078,-3.1708,0.0,-3.2256,0.0,-3.3103,0.0,0.0,0.0,0.0,-2.9227,-2.8815,-2.8252,-2.7511,-2.6441,-2.5761,-2.5499,-2.5068,-2.4869,-2.4869,-2.4685,-2.4575,-2.4575,-2.4375,-2.4284,-2.4284,-2.4228,0.0,0.0,-2.3837,-2.35,-2.3165,-2.2822,-2.2537,-2.2282,-2.2135,-2.1705,-2.115,0.0,0.0,0.0,0.0,0.0,0.0,0.0,-2.0579,-2.0468,-1.9003,-1.953,-1.6832,-0.8329,-0.7371,-0.5029,0.0679,0.0,0.0,0.0,0.0,0.0,0.0,0.0,0.0,0.0,0.0,0.0,-2.2865,-2.3143,-2.3651,-2.4374,-2.4393,-2.4528,-2.4784,0.0,0.0,0.0,0.0,0.0,0.0,0.0,0.0,0.0,0.0,0.0,0.0,0.0,0.0,0.0,0.0,0.0,0.0,0.0,-2.5014,-2.5144,-2.6369,-2.7005,-2.7523,-2.8384,-2.8459,-2.8118,-2.7396,-2.6453,-2.5646,-2.5448,-2.505,-2.4805,-2.5211,-2.5182,-2.5139,-2.5264,-2.5197,-2.5167,-2.5379,-2.5503,0.0,-2.6699,-2.7553,-2.8379,0.0,0.0,-3.0756,-3.1641,0.0,0.0,0.0,0.0,0.0,-2.7296,-2.6289,-2.5841,-2.6031,-2.6203,-2.5876,-2.5018,-2.4998,-2.501,-2.4998,-2.4869,-2.4804,-2.479,-2.4575,-2.4495,0.0,0.0,0.0,0.0,-2.3837,-2.35,-2.3165,-2.2822,-2.2537,-2.2237,-2.1794,-2.1582,-2.146,0.0,0.0,0.0,0.0,0.0,0.0,0.0,-1.991,-1.8648,-1.8242,-1.6787,-1.3665,-0.8086,-0.7802,-0.6443,-0.2481,0.0,0.0,0.0,0.0,0.0,0.0,0.0,0.0,0.0,0.0,0.0,-2.3378,-2.3928,-2.4398,-2.4797,-2.4958,-2.5064,-2.5135,-2.4836,0.0,0.0,0.0,0.0,0.0,0.0,0.0,0.0,0.0,0.0,0.0,0.0,0.0,0.0,0.0,0.0,0.0,0.0,0.0,0.0,-2.5294,-2.5918,-2.6474,-2.6427,-2.6767,-2.7034,-2.6504,-2.5938,-2.5521,-2.5589,-2.5306,-2.5098,-2.5327,-2.5418,-2.5445,-2.5447,-2.5402,-2.5407,-2.5516,-2.5527,0.0,0.0,0.0,0.0,-2.9038,-3.043,-3.116,0.0,0.0,0.0,0.0,0.0,0.0,-2.6408,-2.5429,-2.5111,-2.5579,-2.5374,-2.5134,-2.4869,-2.5096,-2.5203,-2.5203,-2.503,-2.4943,-2.4924,-2.4771,-2.4623,0.0,0.0,0.0,0.0,-2.3837,-2.35,-2.3165,-2.2822,-2.2537,-2.2237,-2.1764,-2.143,-2.1118,0.0,0.0,0.0,0.0,0.0,0.0,0.0,-1.9502,-1.8044,-1.7945,-1.6725,-1.4882,-1.2276,-1.1984,-1.1211,-0.9372,0.0,0.0,0.0,0.0,0.0,0.0,0.0,0.0,0.0,-2.3225,-2.3901,-2.4056,-2.4547,-2.4918,-2.5156,-2.5283,-2.5302,-2.5207,-2.4917,0.0,0.0,0.0,0.0,0.0,0.0,0.0,-2.393,0.0,0.0,0.0,0.0,0.0,0.0,0.0,0.0,0.0,0.0,0.0,0.0,0.0,-2.5081,-2.5546,-2.5242,-2.5536,-2.5876,-2.5626,-2.5424,-2.5314,-2.546,-2.5369,-2.5299,-2.5372,-2.5488,-2.5547,-2.5507,-2.5508,-2.5517,-2.5554,-2.5527,-2.5481,0.0,0.0,0.0,-2.8106,0.0,0.0,0.0,0.0,0.0,0.0,0.0,0.0,-2.5655,-2.4917,-2.4668,-2.5041,-2.4885,-2.4804,-2.4804,-2.5126,-2.5303,-2.5303,-2.5163,-2.5111,-2.5099,-2.4943,-2.4809,0.0,0.0,0.0,0.0,-2.3551,-2.3231,-2.3147,-2.2509,-2.227,-2.2209,-2.1598,-2.1213,-2.0894,0.0,0.0,0.0,0.0,0.0,0.0,0.0,0.0,-1.8229,-1.7795,-1.8435,-1.8989,-1.925,-1.8511,-1.8167,-1.8546,0.0,0.0,0.0,0.0,0.0,0.0,0.0,0.0,0.0,-2.4325,-2.4803,-2.4803,-2.4998,-2.5177,-2.5368,-2.5364,-2.5277,-2.5061,-2.4866,0.0,0.0,0.0,0.0,0.0,0.0,0.0,0.0,0.0,0.0,0.0,0.0,0.0,0.0,0.0,0.0,0.0,0.0,0.0,0.0,0.0,0.0,0.0,0.0,-2.4843,-2.4859,-2.4918,-2.5024,-2.512,-2.512,-2.5277,0.0,-2.5402,-2.544,-2.5506,-2.5496,-2.5496,-2.5507,-2.5507,-2.5489,-2.5389,0.0,-2.6022,0.0,0.0,-2.7448,0.0,0.0,0.0,0.0,0.0,0.0,0.0,-2.5024,-2.4637,-2.4418,-2.4385,-2.452,-2.4639,-2.4681,-2.495,-2.5091,-2.5091,-2.5158,-2.5197,-2.5197,-2.505,-2.4979,0.0,0.0,0.0,0.0,-2.2992,-2.2676,-2.2935,-2.1927,-2.1815,-2.2113,-2.1306,-2.1023,-2.0926,0.0,0.0,0.0,0.0,0.0,0.0,0.0,0.0,0.0,0.0,-1.5304,-1.5878,-1.772,-1.7985,-1.8874,0.0,0.0,0.0,0.0,0.0,0.0,0.0,0.0,0.0,0.0,-2.4686,-2.4809,-2.4809,-2.4955,-2.5003,-2.4937,-2.5038,-2.5015,-2.4858,-2.4666,0.0,0.0,0.0,0.0,0.0,0.0,0.0,0.0,0.0,0.0,0.0,-2.2557,-2.3106,0.0,0.0,0.0,0.0,0.0,0.0,0.0,0.0,-2.4795,-2.4972,-2.5081,0.0,-2.5274,-2.5344,-2.535,-2.5329,0.0,-2.5372,-2.5401,-2.5408,-2.5454,-2.5499,-2.5498,-2.5506,-2.5492,-2.5492,-2.5318,-2.5174,-2.5111,0.0,0.0,-2.8352,-2.814,0.0,0.0,0.0,0.0,0.0,0.0,-2.5337,-2.4869,-2.4148,-2.3618,-2.3363,-2.2896,-2.2982,-2.3659,-2.3207,-2.3011,-2.3011,-2.3793,-2.4143,-2.4162,-2.4748,-2.4937,0.0,0.0,0.0,-2.3271,-2.2355,-2.1765,-2.1472,-2.1784,-2.17,-2.1417,-2.1111,-2.1181,-2.1256,0.0,0.0,0.0,0.0,0.0,0.0,0.0,0.0,0.0,0.0,0.0,0.0,0.0,0.0,0.0,0.0,0.0,0.0,0.0,0.0,0.0,0.0,0.0,0.0,0.0,-2.4511,-2.4416,-2.4416,-2.4507,-2.4637,-2.4804,-2.4864,-2.4809,-2.4654,-2.4444,0.0,0.0,0.0,0.0,0.0,-2.3508,0.0,0.0,0.0,0.0,0.0,-2.2173,-2.2683,0.0,-2.3886,-2.4355,-2.4654,0.0,0.0,0.0,0.0,-2.4891,-2.5019,-2.5138,-2.5309,-2.5465,-2.5535,-2.5503,-2.5409,-2.5294,-2.5234,-2.5197,-2.5139,-2.5155,-2.5194,-2.5219,-2.5209,-2.5178,-2.5178,-2.5061,0.0,0.0,0.0,-2.6606,-2.7811,-2.7563,0.0,0.0,0.0,0.0,0.0,0.0,-2.3968,-2.3803,-2.3172,-2.2724,-2.2545,-2.1729,-2.1755,-2.27,-2.2434,-2.23,-2.23,-2.2854,-2.3099,-2.313,-2.3652,-2.3857,0.0,0.0,0.0,-2.2603,-2.171,-2.1242,-2.1072,-2.098,-2.1115,-2.1309,-2.0911,-2.091,-2.0934,0.0,0.0,0.0,0.0,0.0,0.0,0.0,0.0,0.0,0.0,0.0,0.0,0.0,0.0,0.0,0.0,0.0,0.0,0.0,0.0,0.0,0.0,0.0,-2.4716,-2.4304,-2.4025,-2.3853,-2.3873,-2.395,-2.4227,-2.4716,-2.4746,-2.4654,-2.4444,-2.4266,0.0,0.0,0.0,0.0,0.0,-2.3459,0.0,0.0,0.0,0.0,0.0,0.0,0.0,0.0,-2.3676,-2.4245,-2.4586,-2.478,0.0,0.0,0.0,0.0,0.0,-2.5139,-2.5406,-2.5664,-2.5603,-2.5516,-2.5389,-2.5157,-2.4985,-2.4879,-2.4809,-2.4746,-2.4764,-2.4856,-2.4847,0.0,-2.4809,0.0,0.0,-2.6241,-2.6034,-2.5949,-2.6447,0.0,0.0,0.0,0.0,0.0,0.0,0.0,-2.2609,-2.2566,-2.2122,-2.1834,-2.176,-2.0723,-2.0541,-2.1403,-2.1703,-2.1783,-2.167,-2.1941,-2.201,-2.1897,-2.2322,-2.2525,-2.2536,0.0,0.0,-2.2002,-2.1013,-2.0751,-2.0856,-2.0028,-2.0298,-2.111,-2.0533,-2.036,-2.0343,0.0,0.0,0.0,0.0,0.0,0.0,0.0,0.0,0.0,0.0,0.0,0.0,0.0,0.0,0.0,0.0,0.0,0.0,0.0,0.0,0.0,0.0,-2.4386,-2.4293,-2.3811,-2.3492,-2.3298,-2.3226,-2.3755,-2.41,-2.4303,-2.4474,-2.4441,-2.4247,-2.4209,-2.419,-2.419,0.0,0.0,0.0,0.0,0.0,0.0,0.0,0.0,0.0,0.0,0.0,0.0,-2.3676,-2.4337,-2.4778,-2.4998,0.0,0.0,0.0,0.0,0.0,-2.534,-2.5929,-2.6352,-2.5683,-2.5344,-2.5157,-2.5111,-2.474,-2.447,-2.4747,-2.4565,-2.4467,-2.4752,-2.4804,-2.4809,0.0,0.0,-2.5066,0.0,0.0,-2.507,0.0,0.0,0.0,0.0,0.0,0.0,0.0,0.0,-2.2651,-2.2351,-2.1633,-2.1068,-2.0749,-1.9268,-1.8533,-1.8705,-1.9398,-1.9427,-1.8763,-2.0299,-2.068,-2.0062,-2.1461,-2.2182,-2.2287,0.0,-2.105,-2.0966,-2.0117,-1.9611,-1.9381,-1.9601,-1.9672,-1.9636,-1.9601,-1.9797,-1.9941,0.0,0.0,0.0,0.0,0.0,0.0,0.0,0.0,0.0,0.0,0.0,0.0,0.0,0.0,0.0,0.0,0.0,0.0,0.0,0.0,0.0,0.0,-2.1971,-2.1987,-2.272,-2.2535,-2.2574,-2.2833,-2.3495,-2.3958,-2.419,-2.4284,-2.4303,-2.419,-2.419,-2.419,-2.419,0.0,0.0,0.0,0.0,0.0,0.0,0.0,0.0,0.0,0.0,0.0,0.0,0.0,-2.431,-2.4855,-2.5167,0.0,0.0,0.0,0.0,0.0,-2.5337,-2.5562,-2.5697,-2.532,-2.5842,-2.6102,-2.4809,-2.464,-2.4617,-2.4042,-2.3949,0.0,0.0,0.0,-2.4478,-2.4478,0.0,-2.5134,-2.5538,-2.4978,0.0,0.0,0.0,0.0,0.0,0.0,0.0,0.0,0.0,0.0,-2.0953,-2.0527,-1.9963,-1.9234,-1.85,-1.7894,-1.7458,-1.7821,-1.7821,-1.7458,-1.8301,-1.849,-1.8175,-1.9471,-2.0144,-2.0311,0.0,-2.0368,-2.0318,-1.9888,-1.9564,-1.9329,-1.9309,-1.948,-1.9691,-1.9446,-1.9384,-1.9251,0.0,0.0,0.0,0.0,0.0,0.0,0.0,0.0,0.0,0.0,0.0,0.0,0.0,0.0,0.0,0.0,0.0,0.0,0.0,0.0,-2.1496,-2.098,-1.9829,-1.9889,-2.1324,-2.1576,-2.2017,-2.2716,-2.3371,-2.3858,-2.419,-2.419,-2.419,-2.4208,-2.4113,-2.4074,-2.4074,-2.3996,-2.3816,0.0,0.0,0.0,0.0,0.0,0.0,0.0,0.0,0.0,0.0,0.0,0.0,0.0,0.0,0.0,0.0,-2.5441,-2.5408,-2.5383,-2.5255,-2.5264,-2.5234,-2.4949,-2.5825,-2.6332,-2.4635,-2.4598,-2.4689,-2.3898,0.0,0.0,0.0,-2.4103,0.0,-2.4447,-2.4832,-2.502,-2.4744,0.0,0.0,0.0,0.0,0.0,0.0,0.0,0.0,0.0,0.0,0.0,-1.9762,-1.9662,-1.9142,-1.8133,-1.7931,-1.7422,-1.6633,-1.6431,-1.6431,-1.6615,-1.6758,-1.6758,-1.6665,-1.776,-1.8267,-1.8359,-1.9466,-1.9869,-1.9726,-1.9782,-1.9713,-1.9555,-1.9168,-1.9273,-1.9606,-1.9185,-1.8876,-1.8508,0.0,0.0,0.0,0.0,0.0,0.0,0.0,0.0,0.0,0.0,0.0,0.0,0.0,0.0,0.0,0.0,0.0,0.0,0.0,0.0,-1.9942,-1.9646,-1.9113,-1.9122,-1.9749,-2.0803,-2.1905,-2.3055,-2.3483,-2.388,-2.419,-2.419,-2.419,-2.419,-2.3858,-2.3753,-2.3714,-2.3392,-2.3259,-2.3212,0.0,0.0,0.0,0.0,0.0,0.0,0.0,0.0,0.0,0.0,0.0,0.0,0.0,0.0,-2.5489,-2.5484,-2.5453,-2.5348,-2.5083,-2.5602,-2.5945,-2.4826,-2.4409,-2.4395,-2.4902,-2.4504,-2.4243,-2.5147,0.0,0.0,0.0,-2.4426,-2.4428,-2.5201,-2.474,-2.4539,0.0,0.0,0.0,0.0,0.0,0.0,0.0,0.0,0.0,0.0,0.0,0.0,-1.9623,-1.9614,-1.9142,-1.8133,-1.7385,-1.6597,-1.5784,-1.505,-1.505,-1.5784,-1.6355,-1.6333,-1.5839,-1.7202,-1.7683,-1.748,-1.9103,-1.9463,-1.8935,-1.9544,-1.9713,-1.9555,-1.9168,-1.8732,-1.8336,-1.8295,-1.8104,-1.7833,0.0,0.0,0.0,0.0,0.0,0.0,0.0,0.0,0.0,0.0,0.0,0.0,0.0,0.0,0.0,0.0,0.0,0.0,0.0,0.0,-1.9551,-1.9561,-1.916,-1.9269,-2.003,-2.1278,-2.2329,-2.3101,-2.3705,-2.4344,-2.4948,-2.443,-2.4467,-2.491,-2.407,-2.3558,-2.3302,-2.2975,-2.2539,-2.2129,-2.199,-2.1824,0.0,0.0,0.0,0.0,0.0,0.0,0.0,0.0,-2.4141,-2.4855,-2.5155,-2.5376,-2.5484,-2.5459,-2.5415,-2.534,-2.5072,-2.5029,-2.4914,-2.4337,-2.3689,-2.3448,-2.439,-2.4645,-2.4566,-2.4253,-2.4243,0.0,0.0,0.0,-2.4869,-2.4685,-2.4814,-2.4869,0.0,0.0,0.0,0.0,0.0,0.0,0.0,0.0,0.0,0.0,0.0,0.0,-1.9614,-1.9143,-1.8395,-1.7399,-1.6573,-1.5715,-1.4774,-1.4471,-1.4402,-1.4599,-1.507,-1.5172,-1.4995,-1.6013,-1.6479,-1.6511,-1.7732,-1.8174,-1.8096,-1.872,-1.867,-1.8139,-1.7831,-1.7694,-1.7711,-1.7711,-1.7731,-1.7726,0.0,0.0,0.0,0.0,0.0,0.0,0.0,0.0,0.0,0.0,0.0,0.0,0.0,0.0,0.0,0.0,0.0,0.0,0.0,-1.9722,-1.9151,-1.9658,-1.9505,-1.9887,-2.0909,-2.2224,-2.3064,-2.3445,-2.3958,-2.4485,-2.5021,-2.4458,-2.4441,-2.4817,-2.393,-2.3249,-2.275,-2.2412,-2.1907,-2.1348,-2.1348,-2.1195,0.0,0.0,0.0,0.0,0.0,0.0,0.0,0.0,-2.397,-2.4596,-2.4908,-2.5172,-2.535,-2.5325,-2.5128,-2.4932,-2.4927,-2.4396,-2.3839,-2.3895,-2.3494,-2.3345,-2.4425,-2.4784,-2.4792,-2.4359,-2.4584,-2.4718,-2.4356,0.0,0.0,0.0,-2.4707,0.0,0.0,0.0,0.0,0.0,0.0,0.0,0.0,0.0,0.0,0.0,0.0,0.0,0.0,-1.8644,-1.7723,-1.6474,-1.589,-1.5119,-1.411,-1.411,-1.4065,-1.3997,-1.427,-1.4375,-1.4344,-1.5103,-1.5446,-1.5484,-1.6664,-1.7339,-1.7628,-1.7952,-1.7731,-1.7176,-1.7156,-1.7287,-1.7524,-1.761,-1.77,-1.7687,0.0,0.0,0.0,0.0,0.0,0.0,0.0,0.0,0.0,0.0,0.0,0.0,0.0,0.0,0.0,0.0,0.0,0.0,0.0,-1.8875,-1.8663,-1.9877,-2.017,-2.0946,-2.2297,-2.3563,-2.419,-2.419,-2.419,-2.419,-2.4208,-2.4198,-2.4035,-2.3692,-2.3342,-2.2794,-2.2079,-2.1745,-2.1341,-2.1007,-2.1007,-2.0991,-2.0991,0.0,0.0,0.0,0.0,0.0,0.0,0.0,-2.3717,-2.4081,-2.4623,-2.493,-2.5101,-2.5101,-2.4523,-2.4034,-2.4636,-2.3822,-2.296,-2.3539,-2.3802,-2.418,-2.5235,-2.4953,-2.4832,-2.5945,-2.6074,-2.5669,-2.4688,-2.4339,0.0,-2.4461,0.0,0.0,0.0,0.0,0.0,0.0,0.0,0.0,0.0,0.0,0.0,0.0,0.0,0.0,0.0,-1.8209,-1.7256,-1.5456,-1.5402,-1.4908,-1.3913,-1.3899,-1.3997,-1.4188,-1.4188,-1.4096,-1.3917,-1.4592,-1.4695,-1.4492,-1.6159,-1.7154,-1.7543,-1.7294,-1.7071,-1.6936,-1.7475,-1.7704,-1.7746,-1.8076,-1.7967,-1.7603,0.0,0.0,0.0,0.0,0.0,0.0,0.0,0.0,0.0,0.0,0.0,0.0,0.0,0.0,0.0,0.0,0.0,0.0,0.0,-1.9296,-2.0021,-2.1188,-2.1638,-2.2479,-2.382,-2.4079,-2.4282,-2.4411,-2.4282,-2.4559,-2.5243,-2.4533,-2.446,-2.4854,-2.3709,-2.2728,-2.1917,-2.1393,-2.0758,-2.0085,-2.0085,-1.9879,-1.9585,0.0,0.0,0.0,0.0,0.0,0.0,0.0,0.0,0.0,-2.4188,-2.4531,-2.4905,-2.5008,-2.487,-2.469,-2.478,-2.4176,-2.347,-2.3374,-2.3432,-2.3511,0.0,-2.4076,0.0,0.0,-2.498,-2.4632,-2.4714,0.0,0.0,0.0,0.0,0.0,0.0,0.0,0.0,0.0,0.0,0.0,0.0,0.0,0.0,0.0,0.0,0.0,0.0,-1.7541,-1.6544,-1.5438,-1.4538,-1.3941,-1.3676,-1.3555,-1.354,-1.3638,-1.3638,-1.3801,-1.4123,-1.4454,-1.4487,-1.4307,-1.5032,-1.5436,-1.5546,-1.5475,-1.6021,-1.6858,-1.6451,-1.6778,-1.7489,-1.7593,-1.7682,-1.7603,0.0,0.0,0.0,0.0,0.0,0.0,0.0,0.0,0.0,0.0,0.0,0.0,0.0,0.0,0.0,0.0,0.0,0.0,0.0,0.0,-2.0926,-2.2291,-2.2643,-2.3381,-2.4577,-2.4506,-2.4522,-2.4703,-2.4356,-2.4543,-2.5206,-2.4522,-2.4319,-2.4503,-2.3606,-2.2586,-2.1524,-2.1148,-2.0512,-1.969,-1.969,-1.9398,-1.9003,0.0,0.0,0.0,0.0,0.0,0.0,0.0,0.0,0.0,-2.3648,-2.4044,-2.4441,-2.4208,-2.4219,-2.4317,-2.4227,-2.3762,-2.3315,-2.3374,-2.3484,-2.3517,-2.3175,0.0,0.0,0.0,-2.4985,-2.4858,-2.4929,-2.4613,0.0,0.0,0.0,0.0,0.0,0.0,0.0,0.0,0.0,0.0,0.0,0.0,0.0,0.0,0.0,0.0,0.0,-1.6628,-1.5656,-1.4688,-1.385,-1.3342,-1.3194,-1.3193,-1.3227,-1.3346,-1.3445,-1.365,-1.3969,-1.4028,-1.4056,-1.411,-1.4866,-1.4974,-1.468,-1.5394,-1.5977,-1.6431,-1.6479,-1.6986,-1.7677,-1.7699,-1.7812,-1.7764,0.0,0.0,0.0,0.0,0.0,0.0,0.0,0.0,0.0,0.0,0.0,0.0,0.0,0.0,0.0,0.0,0.0,0.0,0.0,0.0,-2.124,-2.2911,-2.3216,-2.3798,-2.4783,-2.4804,-2.4862,-2.4993,-2.4485,-2.4315,-2.4522,-2.4301,-2.3857,-2.3247,-2.3206,-2.2417,-2.1109,-2.1025,-2.0502,-1.9752,-1.9711,-1.9339,-1.8884,-1.9426,0.0,0.0,0.0,0.0,0.0,0.0,0.0,0.0,-2.2979,-2.3454,-2.3746,-2.307,-2.3085,-2.331,-2.3361,-2.2978,-2.277,-2.3512,-2.3773,-2.3937,-2.429,-2.4531,-2.478,-2.5096,0.0,-2.5826,-2.5221,-2.4312,0.0,0.0,0.0,0.0,0.0,0.0,0.0,0.0,0.0,0.0,0.0,0.0,0.0,0.0,0.0,0.0,0.0,-1.5625,-1.4792,-1.3544,-1.3294,-1.3001,-1.261,-1.2834,-1.3086,-1.3278,-1.3475,-1.3586,-1.357,-1.3494,-1.362,-1.4005,-1.5249,-1.5314,-1.4662,-1.6399,-1.6606,-1.5962,-1.7249,-1.7951,-1.8194,-1.8227,-1.8177,-1.8004,0.0,0.0,0.0,0.0,0.0,0.0,0.0,0.0,0.0,0.0,0.0,0.0,0.0,0.0,0.0,0.0,0.0,0.0,0.0,0.0,-1.9659,-2.1263,-2.2839,-2.4038,-2.4782,-2.4809,-2.4881,-2.4998,-2.462,-2.4554,-2.4725,-2.4374,-2.3971,-2.3575,-2.3333,-2.2708,-2.1826,-2.1234,-2.0682,-2.0137,-1.9818,-1.9133,-1.8341,-1.886,-1.8769,0.0,0.0,0.0,0.0,0.0,0.0,0.0,-2.2201,-2.2591,-2.2965,-2.3253,-2.3404,-2.3502,-2.3787,-2.3578,-2.335,-2.362,-2.3534,-2.362,-2.4697,-2.4691,-2.4542,-2.4831,-2.5111,-2.5129,-2.4535,-2.423,0.0,0.0,0.0,0.0,0.0,0.0,0.0,0.0,0.0,0.0,0.0,0.0,0.0,0.0,0.0,0.0,-1.6196,-1.5365,-1.4488,-1.3528,-1.2809,-1.2494,-1.261,-1.2649,-1.2815,0.0,-1.3312,-1.3446,-1.3446,-1.368,-1.3913,-1.4162,-1.4718,-1.4836,-1.4751,-1.5874,-1.6517,-1.6898,-1.7868,-1.8478,-1.8783,-1.8589,-1.8373,-1.7983,0.0,0.0,0.0,0.0,0.0,0.0,0.0,0.0,0.0,0.0,0.0,0.0,0.0,0.0,0.0,0.0,0.0,0.0,0.0,0.0,0.0,-2.2015,-2.3187,-2.4197,-2.5024,-2.5043,-2.5072,-2.5149,-2.4867,-2.4754,-2.478,-2.4308,-2.3869,-2.3443,-2.2909,-2.2255,-2.1519,-2.0906,-2.0426,-1.9959,-1.9501,-1.8841,-1.8145,-1.8425,-1.8147,-1.7813,-1.8829,0.0,0.0,0.0,0.0,0.0,0.0,0.0,-2.2366,-2.25,-2.2932,-2.3303,-2.3112,-2.3295,-2.3645,-2.3787,-2.3908,-2.4118,-2.4633,-2.4719,-2.4636,-2.4445,-2.4914,-2.5132,-2.4417,0.0,0.0,0.0,0.0,0.0,0.0,0.0,0.0,0.0,0.0,0.0,0.0,0.0,0.0,0.0,0.0,-1.6848,-1.5461,-1.4738,-1.4011,-1.3243,-1.2676,-1.2412,-1.2412,-1.2533,-1.2781,-1.314,-1.3379,-1.351,-1.3493,-1.3768,-1.3955,-1.4078,-1.4512,-1.4707,-1.4773,-1.5706,-1.6267,-1.6648,-1.787,-1.836,-1.8391,-1.8555,-1.843,-1.8004,0.0,0.0,0.0,0.0,0.0,0.0,0.0,0.0,0.0,0.0,0.0,0.0,0.0,0.0,0.0,0.0,0.0,0.0,0.0,0.0,0.0,0.0,-2.3764,-2.4312,-2.5303,-2.5312,-2.5312,-2.5303,-2.5135,-2.4991,-2.4819,-2.4247,-2.3719,-2.3159,-2.2437,-2.1728,-2.107,-2.0543,-2.0048,-1.9654,-1.9114,-1.8504,-1.7963,-1.7963,-1.7624,-1.7258,-1.8193,-1.8527,-1.8589,-1.9016,0.0,0.0,0.0,0.0,-2.1747,-2.1574,-2.2235,-2.2898,-2.2289,-2.2914,-2.3824,-2.4026,-2.4457,-2.4763,-2.455,-2.4783,-2.483,-2.4172,-2.4734,-2.5068,-2.414,0.0,0.0,0.0,0.0,0.0,0.0,0.0,0.0,0.0,0.0,0.0,0.0,0.0,0.0,0.0,0.0,-1.5719,-1.4709,-1.4142,-1.358,-1.3006,-1.2748,-1.2494,-1.2271,-1.2549,-1.2891,-1.3312,-1.3507,-1.3586,-1.357,-1.3768,-1.387,-1.3924,-1.4482,-1.4737,-1.4803,-1.5772,-1.6083,-1.6119,-1.7708,-1.8126,-1.7876,-1.8395,-1.845,-1.8125,0.0,0.0,0.0,0.0,0.0,0.0,0.0,0.0,0.0,0.0,0.0,0.0,0.0,0.0,0.0,0.0,0.0,0.0,-1.7241,0.0,0.0,-2.3788,-2.4043,-2.4534,-2.537,-2.5388,-2.535,-2.5303,-2.5332,-2.5216,-2.4955,-2.4316,-2.3705,-2.3165,-2.2439,-2.1866,-2.146,-2.0638,-2.0039,-1.9564,-1.9084,-1.8314,-1.7401,-1.7431,-1.7047,-1.668,-1.7299,-1.749,-1.7572,-1.8104,-1.8299,0.0,0.0,0.0,-2.0606,-2.1357,-2.1972,-2.2463,-2.2565,-2.3276,-2.4063,-2.442,-2.467,-2.4832,0.0,0.0,-2.4901,0.0,-2.4296,-2.3945,0.0,0.0,0.0,0.0,0.0,0.0,0.0,0.0,0.0,0.0,0.0,0.0,0.0,0.0,0.0,0.0,-1.6689,-1.5742,-1.4896,-1.4031,-1.3511,-1.3418,-1.2898,-1.2591,-1.2553,-1.2815,-1.307,-1.3312,-1.3507,-1.354,-1.3429,-1.3572,-1.3754,-1.3941,-1.459,-1.4859,-1.4952,-1.6017,-1.6323,-1.6317,-1.7882,-1.8372,-1.825,-1.852,-1.8566,-1.8327,0.0,0.0,0.0,0.0,0.0,0.0,0.0,0.0,0.0,0.0,0.0,0.0,0.0,0.0,0.0,-1.3206,-1.3783,-1.5678,-1.9328,-2.066,-2.2282,-2.4413,-2.3847,-2.407,-2.5362,-2.5445,-2.544,-2.5408,-2.5451,-2.5328,0.0,-2.4478,-2.3934,0.0,0.0,0.0,0.0,-2.0304,-1.9626,-1.9126,-1.833,-1.7515,-1.6769,-1.6441,-1.5983,-1.5511,-1.5752,-1.5828,-1.5915,-1.6506,-1.6886,-1.7369,-1.8717,0.0,0.0,0.0,-2.1568,-2.2027,-2.2565,-2.3271,-2.397,-2.4327,-2.4764,-2.511,-2.5242,-2.5249,-2.4888,-2.3764,-2.3497,0.0,0.0,0.0,0.0,0.0,0.0,0.0,0.0,0.0,0.0,0.0,0.0,0.0,0.0,0.0,0.0,0.0,-1.6522,-1.574,-1.4776,-1.4093,-1.3546,-1.3177,-1.2931,-1.2799,-1.2769,-1.3019,-1.3378,-1.3795,-1.3626,-1.3598,-1.3665,-1.3524,-1.36,-1.3924,-1.4489,-1.4804,-1.4959,-1.5529,-1.5964,-1.6366,-1.7413,-1.7857,-1.7906,-1.7967,-1.7706,-1.7096,0.0,0.0,0.0,0.0,0.0,0.0,0.0,0.0,0.0,0.0,0.0,0.0,0.0,0.0,0.0,0.0,-1.3625,-1.6192,-2.0608,-2.1255,-2.2352,-2.4325,-2.3643,-2.3812,-2.5077,-2.533,-2.5469,-2.547,0.0,0.0,-2.5192,-2.4767,-2.426,0.0,-2.259,-2.1753,0.0,0.0,-1.9259,-1.8612,-1.7531,-1.6744,-1.6133,-1.5576,-1.5107,-1.4698,-1.4698,-1.4698,-1.4789,-1.541,-1.5884,-1.6464,-1.7944,-1.8769,0.0,0.0,0.0,-2.1595,-2.2361,-2.3035,-2.3713,-2.4219,-2.4791,-2.5258,0.0,0.0,-2.4929,0.0,-2.3037,0.0,0.0,0.0,0.0,0.0,0.0,0.0,0.0,0.0,0.0,0.0,0.0,0.0,0.0,0.0,0.0,0.0,-1.6366,-1.5763,-1.4729,-1.4217,-1.3716,-1.3177,-1.3053,-1.3035,-1.3126,-1.347,-1.376,-1.4038,-1.3628,-1.3509,-1.3646,-1.3261,-1.3343,-1.3835,-1.4364,-1.4719,-1.4921,-1.5127,-1.5517,-1.6098,-1.6734,-1.7059,-1.7146,-1.7181,-1.6791,-1.6022,0.0,0.0,0.0,0.0,0.0,0.0,0.0,0.0,0.0,0.0,0.0,0.0,0.0,-1.0325,-1.0411,-1.0714,-1.2204,-1.4924,-1.9218,-2.1924,-2.3208,-2.2837,-2.3651,0.0,-2.4266,-2.5004,-2.5409,0.0,0.0,0.0,-2.5479,-2.5181,-2.4817,-2.4287,-2.2764,-2.1881,-2.1376,0.0,0.0,0.0,0.0,0.0,0.0,0.0,-1.4744,0.0,0.0,-1.4698,-1.4789,0.0,0.0,0.0,0.0,-1.7693,-1.8282,0.0,0.0,0.0,-2.1927,-2.2547,-2.3196,-2.4223,-2.4747,-2.509,0.0,0.0,-2.5062,-2.4224,-2.3285,0.0,0.0,0.0,0.0,0.0,0.0,0.0,0.0,0.0,0.0,0.0,0.0,0.0,0.0,0.0,0.0,0.0,-1.6418,-1.5874,-1.4942,-1.4393,-1.402,-1.3853,-1.3295,-1.3227,-1.3754,-1.4276,-1.4235,-1.363,-1.3357,-1.3156,-1.3033,-1.2697,-1.2904,-1.3572,-1.4281,-1.4719,-1.4921,-1.5127,-1.5228,-1.5319,-1.5938,-1.6041,-1.5929,-1.6243,-1.622,-1.5832,0.0,0.0,0.0,0.0,0.0,0.0,0.0,0.0,0.0,0.0,0.0,0.0,0.0,-0.9784,-0.9815,-1.1265,-1.43,-1.7497,-2.0733,-2.2172,-2.3229,-2.3889,-2.3983,-2.4245,-2.4761,-2.5231,-2.5407,0.0,0.0,-2.5499,-2.5494,-2.5226,-2.4934,-2.4606,-2.3495,-2.2444,-2.1406,-2.0042,0.0,0.0,0.0,0.0,0.0,0.0,0.0,0.0,0.0,0.0,0.0,0.0,0.0,0.0,0.0,0.0,0.0,0.0,0.0,-2.0975,-2.0895,-2.1709,-2.2688,-2.3063,-2.335,-2.386,-2.5141,-2.5005,-2.4525,-2.4284,-2.3449,0.0,0.0,0.0,0.0,0.0,0.0,0.0,0.0,0.0,0.0,0.0,0.0,0.0,0.0,0.0,0.0,0.0,0.0,-1.5782,-1.4757,-1.4241,-1.3742,-1.3277,-1.3261,-1.352,-1.4053,-1.4247,-1.4101,-1.3592,-1.2757,-1.2343,-1.2265,-1.154,-1.1953,-1.3252,-1.3581,-1.4167,-1.4921,-1.5127,-1.5541,-1.6042,-1.6079,-1.6223,-1.6318,-1.5741,-1.521,-1.4622,0.0,0.0,0.0,0.0,0.0,0.0,0.0,0.0,0.0,0.0,0.0,0.0,0.0,0.0,-0.916,-1.2011,-1.5997,-1.918,-2.1165,-2.2398,-2.3188,-2.354,-2.3701,-2.4017,-2.4545,-2.4909,-2.5089,0.0,0.0,0.0,0.0,-2.5212,-2.5001,-2.4779,-2.3979,-2.2893,0.0,0.0,0.0,-1.7096,0.0,0.0,-1.2773,0.0,0.0,0.0,0.0,0.0,0.0,0.0,0.0,0.0,0.0,0.0,0.0,0.0,0.0,0.0,-1.9982,0.0,0.0,0.0,-2.1868,-2.2412,-2.392,0.0,-2.4169,-2.417,0.0,0.0,0.0,0.0,0.0,0.0,0.0,0.0,0.0,0.0,0.0,0.0,0.0,0.0,0.0,0.0,0.0,0.0,0.0,0.0,-1.4661,-1.4204,-1.3669,-1.3056,-1.3278,-1.3591,-1.3954,-1.3951,-1.3663,-1.3116,-1.2029,-1.1475,-1.1414,-1.0703,-1.1145,-1.2502,-1.3036,-1.3887,-1.4921,-1.5127,-1.5541,-1.6042,-1.5795,-1.578,-1.5801,-1.4992,-1.4279,-1.362,0.0,0.0,0.0,0.0,0.0,0.0,0.0,0.0,0.0,0.0,0.0,0.0,0.0,0.0,0.0,-1.2801,-1.6891,-1.9506,-2.0242,-2.2569,-2.3194,-2.1606,-2.2812,-2.3488,-2.3488,-2.3998,-2.4426,0.0,0.0,0.0,0.0,0.0,-2.5036,-2.476,-2.416,-2.312,-2.1748,0.0,-1.8527,-1.7001,0.0,-1.3888,-1.2677,0.0,0.0,0.0,-1.1765,-1.2236,0.0,-1.3542,0.0,0.0,0.0,0.0,0.0,0.0,0.0,0.0,0.0,0.0,0.0,0.0,0.0,0.0,-2.1865,0.0,-2.4011,-2.3905,0.0,0.0,0.0,0.0,0.0,0.0,0.0,0.0,0.0,0.0,0.0,0.0,0.0,0.0,0.0,0.0,0.0,0.0,-1.7163,-1.6697,-1.4708,-1.4264,-1.3825,-1.3328,-1.3354,-1.3444,-1.3494,-1.3408,-1.2974,-1.2141,-1.113,-1.0583,-1.0436,-1.022,-1.0512,-1.1257,-1.2727,-1.3932,-1.4875,-1.5101,-1.5189,-1.5177,-1.4976,-1.4662,-1.4263,-1.3998,-1.3506,-1.2928,0.0,0.0,0.0,0.0,0.0,0.0,0.0,0.0,0.0,0.0,0.0,0.0,0.0,0.0,-1.062,-1.2995,-1.6862,-1.9514,-2.0258,-2.2798,-2.3749,-2.2565,-2.3148,-2.3453,-2.3362,-2.345,-2.3309,0.0,0.0,0.0,0.0,0.0,0.0,0.0,-2.3743,-2.2461,-2.0808,-1.9353,0.0,-1.5842,-1.4573,-1.2966,0.0,0.0,0.0,0.0,0.0,-1.1124,-1.2178,0.0,-1.3334,-1.3822,0.0,0.0,0.0,0.0,0.0,0.0,-1.8064,0.0,0.0,0.0,0.0,0.0,0.0,0.0,0.0,-2.3283,0.0,0.0,0.0,0.0,0.0,0.0,0.0,0.0,0.0,0.0,0.0,0.0,0.0,0.0,0.0,0.0,0.0,0.0,-1.6907,-1.5984,-1.4457,-1.3694,-1.3295,-1.3312,-1.3328,-1.3334,-1.3352,-1.3099,-1.2332,-1.1117,-0.9993,-0.9335,-0.9042,-0.8591,-0.9166,-1.0557,-1.189,-1.3001,-1.3969,-1.4839,-1.5189,-1.5183,-1.5033,-1.471,-1.4274,-1.4105,-1.329,-1.224,0.0,0.0,0.0,0.0,0.0,0.0,0.0,0.0,0.0,0.0,0.0,0.0,0.0,0.0,-1.1463,-1.3059,-1.6879,-1.9303,-1.9576,-2.199,-2.2936,-2.1901,-2.2031,-2.2173,-2.2303,-2.1961,-2.1397,0.0,0.0,0.0,0.0,0.0,0.0,0.0,0.0,0.0,0.0,0.0,0.0,0.0,-1.3125,0.0,0.0,-1.0033,-0.9894,0.0,0.0,0.0,-1.1516,-1.215,-1.3024,0.0,0.0,0.0,0.0,0.0,0.0,0.0,0.0,0.0,0.0,0.0,0.0,0.0,-2.2525,-2.2733,-2.2317,0.0,0.0,0.0,0.0,0.0,0.0,0.0,0.0,0.0,0.0,0.0,0.0,0.0,0.0,0.0,0.0,-1.9252,-1.8765,-1.7991,-1.7543,-1.6569,-1.4885,-1.376,-1.3277,-1.3537,-1.3312,-1.3176,-1.3226,-1.2773,-1.1861,-1.052,-0.9102,-0.8156,-0.7667,-0.7751,-0.8447,-0.9636,-1.1009,-1.2128,-1.3073,-1.4114,-1.4565,-1.4597,-1.4463,-1.4194,-1.3853,-1.3636,-1.2889,-1.1876,0.0,0.0,0.0,0.0,0.0,0.0,0.0,0.0,0.0,0.0,0.0,0.0,0.0,0.0,0.0,0.0,-1.683,-1.8978,-1.8729,-2.0464,-2.105,-2.0018,-1.9248,-1.9046,-1.9555,-1.8722,0.0,0.0,0.0,0.0,0.0,0.0,0.0,0.0,0.0,0.0,0.0,0.0,0.0,-1.2348,-1.1169,-1.0324,0.0,0.0,-0.9197,-0.951,-0.951,-0.9953,-1.0704,-1.1466,-1.2599,0.0,0.0,0.0,0.0,0.0,-1.7229,0.0,0.0,0.0,0.0,0.0,0.0,0.0,-2.0897,-2.1653,-2.1724,0.0,0.0,0.0,0.0,0.0,0.0,0.0,0.0,0.0,0.0,0.0,0.0,0.0,0.0,0.0,-1.889,-1.9215,-1.9122,-1.8373,-1.8399,-1.7585,-1.561,-1.4298,-1.3701,-1.3881,-1.3378,-1.304,-1.2941,-1.2359,-1.1423,-1.0092,-0.8353,-0.716,-0.6527,-0.7411,-0.8109,-0.8706,-1.0223,-1.1344,-1.2172,-1.3062,-1.3569,-1.3778,-1.3742,-1.3559,-1.3259,-1.3058,-1.2537,-1.1825,-0.895,0.0,0.0,0.0,0.0,0.0,0.0,0.0,0.0,0.0,0.0,0.0,0.0,0.0,0.0,0.0,-1.652,-1.8742,-1.9359,-1.8764,-1.8024,-1.7282,-1.2778,-1.0582,-1.1162,-0.9643,0.0,0.0,0.0,0.0,0.0,0.0,0.0,0.0,0.0,0.0,0.0,0.0,0.0,-0.5531,-0.9304,0.0,-0.9044,-1.0037,-0.934,-0.7872,-0.7872,-0.8415,-0.9304,-1.0551,-1.1895,-1.31,0.0,0.0,0.0,-1.6454,0.0,0.0,0.0,0.0,0.0,0.0,0.0,0.0,-2.2566,-2.2364,-2.1369,0.0,-1.8974,0.0,0.0,0.0,0.0,0.0,0.0,0.0,0.0,0.0,0.0,0.0,0.0,0.0,-1.8255,-1.868,-1.8608,-1.7822,-1.7241,-1.651,-1.5554,-1.5147,-1.4588,-1.3839,-1.371,-1.3106,-1.1983,-1.1544,-1.0488,-0.8829,-0.7667,-0.6904,-0.651,-0.6967,-0.7519,-0.823,-0.9978,-1.0776,-1.0925,-1.1975,-1.2887,-1.3713,-1.4384,-1.4055,-1.329,-1.3867,-1.3302,-1.2158,-0.621,0.0,0.0,0.0,0.0,0.0,0.0,0.0,0.0,0.0,0.0,0.0,0.0,0.0,0.0,0.0,0.0,0.0,0.0,0.0,-1.2857,-1.1319,-0.593,-0.2967,-0.3025,-0.2424,0.0,0.0,0.0,0.0,0.0,0.0,0.0,0.0,0.0,0.0,0.0,0.0,-0.0611,0.0894,-0.3239,0.0,-0.5466,-0.5408,-0.5591,-0.5882,-0.5836,-0.6998,-0.8714,-0.9422,-1.0582,0.0,0.0,-1.3402,-1.4402,0.0,-1.6353,-1.7477,0.0,0.0,0.0,-2.2317,0.0,0.0,0.0,-2.201,-2.0701,-1.9038,-1.8339,-1.8053,-1.8216,0.0,0.0,0.0,0.0,0.0,0.0,0.0,0.0,0.0,0.0,0.0,-1.7426,-1.7783,-1.8089,-1.8276,-1.7799,-1.7338,-1.6969,-1.6081,-1.5294,-1.4629,-1.3746,-1.2874,-1.1961,-1.0895,-0.9791,-0.862,-0.7181,-0.6398,-0.6221,-0.6579,-0.721,-0.8062,-0.914,-0.995,-1.0532,-1.1083,-1.1599,-1.2179,-1.3495,-1.3698,-1.3321,-1.352,-1.3111,-1.2347,-0.3012,0.0,0.0,0.0,0.0,0.0,0.0,0.0,0.0,0.0,0.0,0.0,0.0,0.0,0.0,0.0,0.0,0.0,0.0,0.0,0.0,-0.5036,0.0879,0.4404,0.5062,0.4916,0.4991,0.0,0.0,0.0,0.0,0.0,0.0,0.0,0.0,0.0,0.0,0.0,0.0,0.6576,0.0,0.1865,-0.0,0.0649,-0.0813,-0.3204,-0.389,-0.5622,-0.7703,-0.8171,-0.9205,-1.0505,-1.1239,-1.2006,0.0,0.0,0.0,0.0,0.0,0.0,0.0,0.0,0.0,-2.3024,0.0,0.0,0.0,-1.8896,-1.7878,0.0,0.0,0.0,0.0,0.0,0.0,0.0,0.0,0.0,0.0,0.0,0.0,0.0,-1.6533,-1.6896,-1.7591,-1.8713,-1.8563,-1.8426,-1.8407,-1.7099,-1.6083,-1.5481,-1.4042,-1.2852,-1.1939,-1.041,-0.924,-0.8416,-0.6761,-0.5923,-0.5852,-0.629,-0.696,-0.7788,-0.8211,-0.9014,-1.0046,-1.0225,-1.034,-1.0603,-1.2405,-1.3094,-1.311,-1.3124,-1.3001,-1.2707,0.3163,-0.0172,0.0,0.0,0.0,0.0,0.0,0.0,0.0,0.0,0.0,0.0,0.0,0.0,0.0,0.0,0.0,0.0,-1.5288,0.0,0.0,0.0,0.7131,1.2153,1.3247,1.4491,1.431,0.0,0.0,0.0,0.0,0.0,0.0,0.0,0.7011,0.0,0.0,0.0,1.2387,0.0,1.0532,0.9321,0.0,0.4919,0.2952,0.0984,-0.2647,-0.4165,-0.4767,0.0,-0.813,-0.8984,0.0,-1.1306,-1.2183,-1.406,0.0,0.0,0.0,0.0,0.0,0.0,-2.3066,0.0,0.0,0.0,-1.99,-1.8413,0.0,0.0,0.0,0.0,0.0,0.0,0.0,0.0,0.0,0.0,0.0,0.0,0.0,0.0,0.0,-1.6412,-1.7193,-1.8056,-1.8129,-1.8221,-1.8391,-1.8153,-1.7296,-1.5729,-1.5249,-1.3699,-1.0986,-1.0226,-0.8937,-0.7117,-0.6241,-0.575,-0.5659,-0.6236,-0.6661,-0.6983,-0.7732,-0.8177,-0.843,-0.9194,-0.9764,-1.0331,-1.2333,-1.2684,-1.2259,-1.3753,-1.4075,-1.3666,0.262,-0.1464,0.0,0.0,0.0,0.0,0.0,0.0,0.0,0.0,0.0,0.0,0.0,0.0,0.0,0.0,0.0,-1.2772,0.0,0.0,0.0,0.0,0.0,0.0,1.8892,1.9573,1.9534,1.8788,1.7227,0.0,0.0,0.0,0.0,0.0,1.4342,0.0,1.4821,0.0,1.5198,0.0,0.0,0.0,0.0,0.7353,0.4492,0.1666,-0.0771,-0.2542,-0.3904,0.0,-0.6449,0.0,0.0,0.0,0.0,0.0,0.0,0.0,0.0,0.0,0.0,0.0,0.0,0.0,-2.2596,0.0,-2.0132,0.0,0.0,0.0,0.0,0.0,0.0,0.0,-1.8089,0.0,0.0,0.0,0.0,0.0,0.0,0.0,0.0,0.0,0.0,0.0,-1.7932,-1.8409,-1.8726,-1.8492,-1.796,-1.7132,-1.524,-1.3464,-1.1792,-0.9903,-0.8267,-0.6838,-0.5967,-0.5464,-0.5316,-0.5565,-0.593,-0.6378,-0.7023,-0.746,-0.7737,-0.8251,-0.8655,-0.9075,-1.0551,-1.1394,-1.1873,-1.2572,-1.2916,-1.306,0.4009,0.0,0.0,0.0,0.0,0.0,0.0,0.0,0.0,0.0,0.0,0.0,-0.8097,-0.8686,0.0,0.0,-1.0869,-1.0689,0.0,0.0,0.0557,0.0,0.0,0.0,0.0,0.0,2.245,2.273,0.0,0.0,0.0,0.0,0.0,0.0,0.0,1.9753,2.0994,0.0,1.733,1.6507,1.5453,1.3518,1.0948,0.8351,0.5314,0.2292,0.0606,-0.1124,-0.2724,-0.3379,-0.4857,0.0,-0.7195,0.0,0.0,0.0,0.0,0.0,-1.8157,0.0,0.0,0.0,0.0,0.0,0.0,0.0,0.0,0.0,0.0,0.0,0.0,0.0,0.0,0.0,0.0,-1.6626,0.0,0.0,0.0,0.0,0.0,0.0,0.0,0.0,0.0,-1.6693,-1.7441,-1.8145,-1.8707,-1.8553,-1.8126,-1.742,-1.5016,-1.3094,-1.171,-0.9332,-0.763,-0.6645,-0.5772,-0.519,-0.4873,-0.4951,-0.5195,-0.5566,-0.607,-0.6553,-0.6976,-0.7264,-0.7548,-0.7909,-0.8759,-0.9786,-1.0843,-1.147,-1.2053,-1.2516,1.0471,0.5095,0.0,0.0,0.0,0.0,0.0,0.0,0.0,0.0,0.0,0.0,0.0,0.0,0.0,0.0,0.0,-0.8507,-0.6393,0.0,-0.0406,0.0,0.0,1.6599,0.0,0.0,0.0,0.0,0.0,0.0,0.0,0.0,0.0,0.0,2.2968,2.2769,2.2687,2.0875,1.9863,1.9273,1.6968,1.3676,0.9911,0.0,0.5685,0.4042,0.1072,0.0,0.0,-0.282,-0.3665,0.0,0.0,0.0,0.0,0.0,0.0,0.0,0.0,0.0,0.0,-2.218,0.0,0.0,0.0,0.0,-2.135,0.0,0.0,0.0,0.0,0.0,0.0,0.0,0.0,0.0,0.0,0.0,0.0,0.0,0.0,0.0,0.0,0.0,-1.5477,-1.6258,-1.6469,-1.6984,-1.7966,-1.839,-1.7674,-1.5641,-1.48,-1.2876,-0.9731,-0.8378,-0.7247,-0.6312,-0.556,-0.4897,-0.4334,-0.4594,-0.4584,-0.439,-0.4848,-0.5367,-0.5875,-0.6142,-0.6604,-0.7174,-0.7444,-0.7921,-0.869,-1.1026,-1.2228,-1.2565,0.0,0.0,0.0,0.0,0.0,0.0,0.0,-0.5285,0.0,0.0,0.0,0.0,0.0,-0.4855,-0.5822,0.0,0.0,-0.4434,-0.2587,-0.0399,0.0,0.0,0.0,1.5788,0.0,0.0,0.0,0.0,0.0,0.0,0.0,0.0,0.0,0.0,0.0,2.2864,0.0,0.0,0.0,0.0,0.0,1.0344,0.6168,0.0,0.0,0.4102,0.1073,-0.0491,0.0,-0.2155,-0.3431,-0.4909,-0.5878,-0.6771,-0.7854,-1.0054,-1.142,0.0,0.0,0.0,-2.0333,-2.1911,0.0,0.0,0.0,0.0,0.0,0.0,0.0,0.0,0.0,0.0,0.0,0.0,0.0,0.0,0.0,0.0,0.0,0.0,0.0,0.0,0.0,0.0,0.0,-1.5448,-1.578,-1.638,-1.7295,-1.7926,-1.7941,-1.7244,-1.5567,-1.3618,-1.1468,-0.9116,-0.7371,-0.615,-0.5557,-0.5009,-0.4549,-0.3733,-0.3525,-0.3827,-0.46,-0.5095,-0.5367,-0.5813,-0.6212,-0.6545,-0.6903,-0.7475,-0.8232,-0.9407,-1.0296,-1.0908,1.5605,0.0,0.0,0.0,0.0,0.0,0.0,0.0,0.0,0.0,0.125,0.0,-0.085,0.0,-0.2178,0.0,-0.2322,-0.0457,0.1383,0.4522,0.0,0.9147,1.2381,0.0,0.0,0.0,0.0,0.0,0.0,2.3504,0.0,0.0,0.0,0.0,0.0,2.2153,2.1726,2.0591,1.934,0.0,0.0,0.7721,0.0,0.0,0.1912,0.1883,0.0,-0.0957,-0.1317,-0.2244,-0.3527,-0.4636,-0.4401,-0.5566,-0.7357,-0.9226,-1.0563,-1.2066,-1.4919,-1.7219,0.0,-2.1074,-2.1442,0.0,-2.1662,0.0,0.0,0.0,0.0,0.0,0.0,0.0,0.0,0.0,0.0,0.0,0.0,-1.5331,0.0,0.0,0.0,0.0,0.0,0.0,-1.3742,-1.4437,-1.407,-1.3561,0.0,0.0,-1.2616,-1.0795,-0.9892,-0.8932,-0.7942,-0.6279,-0.5795,-0.6392,-0.5645,-0.4822,-0.3933,-0.3008,-0.2732,-0.3042,-0.4002,-0.4593,-0.4938,-0.5439,-0.5866,-0.6234,-0.6483,-0.6999,-0.7649,-0.8359,-0.9005,-0.9576,1.7346,0.0,0.0,0.0,1.0573,0.0,0.0,0.0,0.7031,0.0,0.6465,0.6148,0.4575,0.3589,0.3047,0.3027,0.2854,0.3639,0.5734,0.9349,0.0,0.0,1.3155,1.4971,1.6074,0.0,0.0,0.0,0.0,0.0,0.0,0.0,0.0,0.0,2.1249,0.0,2.048,1.9019,1.7595,1.5822,0.9542,0.5775,0.3477,-0.1199,-0.2709,-0.2386,-0.2303,-0.1421,-0.0569,-0.3003,-0.3707,-0.3385,-0.2194,-0.3562,-0.5926,-0.7546,-0.8984,-1.0716,-1.3762,-1.5779,-1.7529,-1.9653,0.0,0.0,0.0,0.0,-1.9517,0.0,0.0,0.0,0.0,0.0,0.0,0.0,0.0,0.0,0.0,0.0,0.0,0.0,0.0,0.0,0.0,-1.3593,-1.297,-1.3375,-1.1357,-0.8819,0.0,0.0,-0.2188,0.2613,0.1595,0.0901,0.0707,-0.0148,-0.2635,-0.6629,-0.5785,-0.4462,-0.274,-0.2452,-0.2267,-0.2229,-0.3123,-0.3891,-0.4556,-0.5003,-0.5568,-0.6139,-0.6181,-0.6426,-0.6932,-0.7915,-0.8407,-0.8685,1.7909,1.9657,2.1265,0.0,1.9759,1.7971,0.0,0.0,0.0,0.0,1.4392,1.2965,1.0356,0.99,1.0347,1.1797,1.1264,0.0,0.0,0.0,0.0,1.3495,1.5421,1.678,1.745,1.8644,0.0,2.0894,0.0,0.0,2.2067,0.0,0.0,0.0,0.0,0.0,1.8948,1.7297,1.4193,1.0142,0.6996,0.3224,0.0,0.0,-0.4382,-0.4845,-0.418,-0.3685,-0.3091,-0.1541,-0.2167,-0.3375,-0.2191,-0.167,-0.2275,-0.6129,-0.8309,-0.9924,-1.221,-1.4299,-1.6293,-1.8137,-1.8616,-1.8633,0.0,0.0,0.0,0.0,0.0,0.0,0.0,0.0,0.0,0.0,0.0,0.0,0.0,0.0,0.0,-1.6235,0.0,0.0,-1.5023,-1.3485,-1.2826,-1.3632,-0.9757,-0.6778,-0.549,0.0,0.0,0.504,0.8644,0.9656,0.7718,0.3263,0.0081,-0.1823,-0.5028,-0.5876,-0.4534,-0.2313,-0.1968,-0.3151,-0.3509,-0.4066,-0.4731,-0.5015,-0.5223,-0.5412,-0.5822,-0.6341,-0.6983,-0.7837,-0.8102,-0.8025,1.9455,0.0,0.0,2.5607,0.0,0.0,2.4963,2.384,0.0,2.1485,1.9887,0.0,1.5796,1.5048,1.5161,1.628,1.5612,0.0,1.5773,0.0,0.0,1.5684,1.7114,1.7973,1.8051,1.8841,0.0,1.9627,0.0,0.0,2.0219,0.0,0.0,0.0,0.0,1.7263,1.6567,1.3499,0.997,0.6247,0.3221,0.0107,0.0,-0.4908,-0.6284,-0.7046,-0.6582,-0.5543,-0.4217,-0.2557,-0.1996,-0.1919,-0.1233,-0.0549,-0.0518,-0.3154,-0.5252,-0.7392,-1.05,-1.3062,-1.5102,-1.6161,-1.6668,-1.6786,-1.6348,-1.5806,-1.5326,0.0,0.0,0.0,0.0,0.0,0.0,0.0,0.0,0.0,0.0,0.0,0.0,0.0,-1.6548,0.0,-1.6815,-1.4546,-1.2799,-1.2192,-0.7466,-0.3222,0.0,0.0,0.0,1.1156,1.3469,1.2532,0.8008,0.3277,0.02,-0.1169,-0.3432,-0.418,-0.3526,-0.227,-0.2299,-0.3396,-0.3657,-0.4176,-0.4861,-0.5059,-0.5257,-0.5432,-0.5773,-0.6313,-0.6944,-0.732,-0.7428,-0.7395,2.1744,0.0,0.0,0.0,0.0,0.0,0.0,2.7511,0.0,2.5694,0.0,2.2152,2.0841,1.9557,1.8763,1.8623,0.0,1.7365,1.7471,1.7525,1.7622,1.7734,1.8612,1.8889,1.8405,1.9244,1.9244,0.0,0.0,0.0,0.0,0.0,0.0,0.0,0.0,0.0,0.0,0.8984,0.5632,0.3189,-0.0757,-0.2995,-0.4267,-0.6651,-0.7832,-0.8219,-0.9043,-0.7008,-0.3928,-0.3928,-0.239,-0.0468,-0.0468,-0.0254,0.0,0.0,-0.1448,-0.4068,-0.873,-1.1657,-1.3571,-1.4306,-1.4985,-1.5227,-1.427,-1.4411,-1.467,-1.4373,-1.4722,-1.5023,0.0,0.0,0.0,0.0,0.0,0.0,0.0,0.0,0.0,0.0,0.0,0.0,0.0,-1.6203,-1.3094,-0.9798,-0.5029,0.0673,0.0,0.0,0.0,1.6888,1.5134,1.0986,0.4399,0.0,-0.1638,-0.344,-0.2449,-0.1957,-0.1996,-0.2751,-0.3339,-0.3742,-0.3995,-0.4418,-0.5,-0.5169,-0.5446,-0.5761,-0.5821,-0.6224,-0.6744,-0.6532,-0.6541,-0.6646,2.4835,0.0,0.0,0.0,0.0,3.0831,3.2019,3.0476,2.9042,2.8629,2.7847,2.6662,2.4957,2.4051,2.3259,2.244,2.1222,0.0,0.0,0.0,0.0,2.0559,2.0238,2.0004,1.9904,1.9752,1.9603,0.0,0.0,0.0,0.0,0.0,0.0,0.0,0.0,0.0,1.0664,0.6581,0.0,-0.0649,-0.2398,-0.4962,-0.7793,-0.8285,-0.7098,-0.5758,-1.049,-0.7259,-0.079,-0.079,-0.1772,-0.2951,-0.2951,-0.1594,0.0,0.0,-0.0292,-0.1743,-0.6908,-0.8973,-1.0491,-1.4027,-1.4797,-1.462,-1.4404,-1.3556,-1.3077,-1.3815,-1.311,-1.2592,-1.3308,0.0,0.0,0.0,0.0,0.0,0.0,0.0,0.0,0.0,0.0,-1.7903,0.0,0.0,-1.4517,-0.7631,-0.3786,0.0,0.0,0.0,0.0,0.0,0.8574,0.0,0.0,0.0,-0.5599,-0.7876,-0.6313,-0.5536,-0.5408,-0.5261,-0.5696,-0.652,-0.55,-0.5187,-0.5386,-0.5421,-0.549,-0.5568,-0.5562,-0.5782,-0.6045,-0.5786,-0.5579,-0.5465,0.0,0.0,0.0,0.0,0.0,0.0,0.0,3.2401,0.0,3.14,3.0251,2.8843,2.7368,2.6645,2.5856,2.4791,2.3186,2.2397,2.2792,2.1428,2.0777,2.1142,2.084,2.055,2.0314,2.0124,1.963,1.8855,0.0,0.0,0.0,0.0,0.0,0.0,0.0,1.0889,0.0,0.0,0.0,-0.2402,-0.428,-0.6518,-0.8783,-0.9504,-0.7539,-0.4776,-0.755,-0.4873,-0.0,-0.0,-0.0777,-0.1967,-0.322,-0.2788,-0.1611,-0.0366,-0.3256,-0.7588,-1.1057,-1.1966,-1.2293,-1.3898,-1.4384,-1.4405,-1.4029,-1.3533,-1.3188,-1.3168,-1.2763,-1.2173,-1.1275,-1.0952,0.0,0.0,0.0,0.0,0.0,0.0,0.0,0.0,0.0,0.0,0.0,0.0,0.0,0.0,0.0,0.0,0.0,0.0,0.0,0.0,0.0,0.0,0.0,0.0,0.0,-1.0865,-0.9203,-0.7888,-0.6866,-0.6332,-0.6466,-0.7061,-0.6196,-0.5852,-0.5885,-0.5462,-0.53,-0.529,-0.529,-0.5375,-0.544,-0.5184,-0.4914,-0.4741,0.0,3.1572,0.0,0.0,3.3242,0.0,3.2871,3.3162,3.3314,3.2946,3.1462,2.9901,2.8517,2.7932,2.7199,2.6225,2.4454,2.3446,2.3608,2.2135,2.1294,2.1375,2.1135,2.0797,2.0314,2.0227,1.9549,0.0,0.0,0.0,0.0,0.0,0.0,0.0,0.0,0.0,0.0,0.0,-0.1096,-0.4017,-0.5855,-0.7534,-0.9051,-1.0246,-0.8191,-0.4671,-0.4551,-0.2992,-0.0762,0.0373,0.0606,-0.0,-0.2142,-0.3016,-0.2876,-0.1241,-0.5337,-1.1088,-1.4354,-1.4963,-1.4513,-1.3822,-1.3965,-1.4122,-1.3412,-1.3324,-1.3162,-1.2247,-1.2031,-1.1378,-0.9199,-0.9164,0.0,0.0,0.0,0.0,0.0,0.0,0.0,0.0,0.0,0.0,-1.9838,0.0,0.0,0.0,0.0,0.0,0.4951,0.0,0.0,0.0,0.0,-0.8162,-1.1178,0.0,-1.5415,-1.2962,-1.1545,-0.9828,-0.7897,-0.7392,-0.7203,-0.7225,-0.6723,-0.6361,-0.6064,-0.5383,-0.5078,-0.5011,-0.5011,-0.4961,-0.4856,-0.4584,-0.4329,-0.4157,0.0,0.0,0.0,0.0,0.0,0.0,3.2317,3.2181,3.2115,3.1638,3.1163,3.0105,2.8177,2.76,2.7152,2.6691,2.5257,2.4669,2.531,2.3375,2.2304,2.2519,2.1552,2.0797,2.0314,1.9929,1.9442,0.0,0.0,0.0,0.0,0.0,0.0,0.0,0.0,0.0,0.0,-0.0716,-0.3865,-0.6944,-0.6707,-0.7859,-0.9755,-1.0115,-0.8356,-0.5571,-0.479,-0.432,-0.3337,0.1617,0.2547,0.1383,0.0089,-0.109,-0.2146,-0.3025,-0.23,-0.3019,-1.1235,-1.367,-1.3884,-1.3893,-1.3722,-1.3401,-1.266,-1.2146,-1.1566,-1.0763,-0.9506,-0.8278,-0.7363,-0.7266,-0.7487,0.0,0.0,0.0,0.0,0.0,-1.6241,-1.776,0.0,0.0,0.0,-1.7856,-1.8095,0.0,-1.2756,0.0,0.0,0.0,0.0,-0.7101,0.0,-1.3702,-1.8726,-1.8382,-1.6856,-1.423,-1.3458,-1.187,-0.9561,-0.9374,-0.895,-0.8307,-0.753,-0.6575,-0.5545,-0.5224,-0.4952,-0.4745,-0.4745,-0.4507,-0.4152,-0.3888,-0.37,-0.3557,0.0,0.0,0.0,0.0,0.0,0.0,0.0,3.1667,3.103,3.0137,3.0325,2.9946,2.8429,2.8122,2.7486,2.6149,2.5084,2.4425,2.4289,2.2768,2.1927,2.2024,2.1358,2.0649,1.9904,1.9722,1.891,0.0,0.0,0.0,0.0,0.0,0.0,0.0,0.0,-0.222,-0.2273,-0.4061,-0.5845,-0.7399,-0.7306,-0.829,-0.971,-0.8869,-0.8629,-0.8415,-0.5518,-0.2407,0.0439,0.1032,0.1963,0.2784,0.2322,0.0822,-0.0805,-0.1295,-0.0753,-0.0776,-0.432,-0.8954,-1.2765,-1.2665,-1.2518,-1.2281,-1.1734,-1.1084,-1.0327,-0.944,-0.7757,-0.631,-0.6037,-0.6295,-0.6706,0.0,0.0,0.0,0.0,0.0,0.0,-1.675,0.0,-1.7368,0.0,-1.715,-1.7361,-1.7911,0.0,0.0,0.0,0.0,0.0,-1.3081,0.0,-1.778,-2.0326,-1.8888,-1.7085,-1.4919,-1.3644,-1.2017,-1.0134,-0.9695,-0.9008,-0.8166,-0.7703,-0.7031,-0.624,-0.5732,-0.5223,-0.4751,-0.4492,-0.4033,-0.3504,-0.3423,-0.3245,-0.3036,3.7222,0.0,3.5587,0.0,3.42,3.284,3.1707,3.0889,2.9977,2.8853,2.8931,2.8873,2.838,2.7935,2.7135,2.5902,2.4808,2.3907,2.3251,2.2178,2.1491,2.1228,2.0797,0.0,1.9405,1.9244,1.8257,1.6378,1.6237,0.0,0.0,0.0,0.0,0.0,-0.1845,-0.3426,-0.3931,-0.5652,-0.6693,-0.7203,-0.7771,-0.8613,-0.9354,-0.8237,-0.8632,-0.9316,-0.574,-0.1521,0.2252,0.1147,0.1712,0.2962,0.3452,0.2416,0.0916,0.0208,0.0,-0.0167,-0.0935,-0.5327,-0.997,-1.1122,-1.1321,-1.1136,-1.075,-1.0128,-0.9277,-0.8038,-0.6394,-0.519,-0.5111,-0.575,-0.6543,-0.7418,0.0,0.0,0.0,0.0,0.0,0.0,-1.6569,-1.6784,-1.6578,-1.6666,-1.6746,0.0,0.0,0.0,0.0,0.0,0.0,0.0,0.0,0.0,0.0,-1.9377,-1.7376,-1.5279,-1.4047,-1.2331,-1.0209,-0.9425,-0.8639,-0.786,-0.7447,-0.6986,-0.6455,-0.5858,-0.5221,-0.4597,-0.4323,-0.3732,-0.3087,-0.3124,-0.279,-0.2266,3.614,3.642,3.6173,3.4598,3.4024,3.2976,3.0594,2.9601,2.8794,2.7927,2.6842,2.6609,2.777,2.6531,2.5796,2.6161,2.4505,2.3223,2.2736,2.1997,2.1228,0.0,0.0,1.9405,1.893,1.838,1.7558,1.6378,0.0,0.0,1.162,0.0,0.5112,0.4129,0.1234,-0.0842,-0.2413,-0.4886,-0.618,-0.6753,-0.8146,-0.8764,-0.8804,-0.8698,-0.8143,-0.7149,-0.5141,-0.2633,0.005,0.2661,0.2502,0.151,0.309,0.3577,0.3084,0.07,0.0,-0.0561,-0.3158,-0.3931,-0.5048,-0.9419,-1.033,-1.0025,-0.9693,-0.9283,-0.8438,-0.6443,-0.542,-0.4846,-0.4748,-0.5693,-0.7051,-0.8809,0.0,0.0,0.0,0.0,0.0,-1.5698,-1.6578,-1.6608,-1.5355,-1.6197,0.0,0.0,0.0,0.0,0.0,0.0,0.0,-2.1528,-2.1306,0.0,-2.2575,-2.0531,-1.8074,-1.5296,-1.514,-1.3213,-0.9779,-0.8778,-0.8055,-0.7561,-0.6827,-0.6251,-0.5783,-0.5381,-0.4818,-0.4198,-0.4198,-0.371,-0.3013,-0.3013,-0.2292,-0.1192,3.7565,3.6706,3.5455,3.4124,3.2261,3.0505,2.9246,2.8393,2.7496,2.6435,2.599,2.5832,2.5988,2.5496,2.4947,0.0,2.3435,2.264,0.0,2.1183,2.0456,1.9869,1.9368,1.8712,1.7827,1.7626,1.6815,1.5219,0.0,0.0,0.0,0.9242,0.7494,0.5309,0.3767,0.1282,-0.1908,-0.5073,-0.649,-0.6753,-0.8678,-0.9197,-0.8745,-0.8159,-0.7298,-0.6093,-0.3749,-0.1824,-0.0248,0.0792,0.0269,-0.075,-0.0484,-0.0072,0.0278,0.0063,0.0,-0.0947,-0.5312,-0.6504,-0.6834,-0.8234,-0.8741,-0.8768,-0.8383,-0.7762,-0.7072,-0.6238,-0.5645,-0.5272,-0.5297,-0.597,-0.6804,-0.7714,-0.9028,0.0,0.0,0.0,0.0,-1.3734,-1.5019,-1.5417,-1.4218,-1.5192,0.0,0.0,0.0,0.0,0.0,0.0,0.0,0.0,-2.2371,0.0,-2.2198,-1.905,-1.6466,-1.4516,-1.3079,-1.0978,-0.8357,-0.805,-0.7521,-0.6832,-0.6608,-0.6423,-0.6256,-0.5831,-0.5208,-0.446,-0.4369,-0.3712,-0.2787,-0.2798,-0.2563,-0.1849,3.6443,3.5485,3.4182,3.2654,3.0739,2.9107,2.817,2.7245,2.6327,2.5494,2.4859,2.4257,2.372,2.3292,0.0,2.3333,2.2567,2.1718,2.0909,2.0335,1.9743,1.9082,1.8555,1.7894,1.6995,1.6744,0.0,1.4376,1.3185,1.1899,1.0452,0.9642,0.8307,0.6438,0.4685,0.1947,-0.157,-0.5325,-0.696,-0.7175,-0.9047,-0.9399,-0.8736,-0.8215,-0.7065,-0.5531,-0.3739,-0.2237,-0.1117,-0.1249,-0.1791,-0.2592,-0.3687,-0.3602,-0.3015,-0.2718,-0.1383,-0.0918,-0.5137,-0.6966,-0.7695,-0.7695,-0.7889,-0.7976,-0.7559,-0.708,-0.6643,-0.6307,-0.6007,-0.5857,-0.6062,-0.656,-0.7137,-0.7739,-0.8805,-0.9744,-1.0231,0.0,0.0,0.0,0.0,0.0,0.0,-1.4855,-1.5338,0.0,0.0,0.0,0.0,0.0,0.0,-2.4473,-2.2727,0.0,-2.1706,-1.8443,-1.5812,-1.3791,-1.111,-0.8911,-0.72,-0.7115,-0.671,-0.6006,-0.5909,-0.5831,-0.5767,-0.5345,-0.477,-0.4097,-0.4069,-0.3282,-0.215,-0.1816,-0.1244,-0.0336,3.346,3.3152,3.2507,0.0,2.9361,0.0,2.7199,2.6047,2.5125,2.4742,2.3358,2.2053,2.1148,2.0143,2.0364,2.2474,0.0,0.0,0.0,1.939,1.8927,1.7946,1.7437,1.6857,1.625,1.574,1.4846,1.3569,1.167,1.1057,1.1599,0.8962,0.769,0.7553,0.4351,0.1388,-0.1513,-0.5627,-0.7535,-0.7805,-0.9228,-0.9392,-0.8809,-0.8737,-0.7449,-0.5546,-0.4793,-0.367,-0.2635,-0.3391,-0.3691,-0.4109,-0.6288,-0.6649,-0.6435,-0.6937,-0.3867,-0.0897,-0.3453,-0.5883,-0.7695,-0.7695,-0.7695,-0.7598,-0.7216,-0.7148,-0.7029,-0.6669,-0.6579,-0.6648,-0.6917,-0.7358,-0.7904,-0.8522,-0.9167,-0.9713,-1.0067,0.0,0.0,0.0,0.0,0.0,0.0,-1.4878,-1.4917,0.0,0.0,0.0,0.0,0.0,-2.3564,-2.4091,-2.2414,-2.1329,-2.0975,-1.8378,-1.5654,-1.2859,-0.9323,-0.7184,-0.6297,-0.6113,-0.5703,-0.5125,-0.4886,-0.4689,-0.4538,-0.4172,-0.3737,-0.3327,-0.348,-0.2573,-0.1103,-0.0167,0.1241,0.271,0.0,0.0,3.1099,2.8699,2.7212,2.5881,2.4523,2.3669,2.2765,2.1679,2.084,1.9805,1.856,1.7469,1.6621,1.6111,1.7167,1.7792,1.7562,1.7235,1.6782,1.6153,1.6003,1.5416,1.438,1.4207,1.325,1.1405,1.0475,1.0124,1.024,0.8519,0.7961,0.8294,0.4577,0.0885,-0.2666,-0.6014,-0.7532,-0.7805,-0.9228,-0.9372,-0.8815,-0.8741,-0.7741,-0.624,-0.5235,-0.4763,-0.465,-0.5169,-0.569,-0.619,-0.6325,-0.6914,-0.753,-0.7758,-0.5899,-0.417,-0.6125,-0.7154,-0.7695,-0.7695,-0.7695,-0.7666,-0.7569,-0.7569,-0.7539,-0.7451,-0.7421,-0.745,-0.7514,-0.7622,-0.7751,-0.7907,-0.8338,-0.8546,-0.8348,-0.9386,0.0,0.0,-1.1829,-1.2861,-1.1603,-1.3254,-1.4104,0.0,0.0,0.0,0.0,-1.8638,-2.0252,-2.21,-2.1056,-1.9921,-1.8762,-1.6129,-1.3101,-0.9742,-0.8038,-0.6582,-0.5335,-0.5263,-0.5021,-0.4588,-0.4534,-0.4433,-0.4295,-0.4197,-0.387,-0.348,-0.3761,-0.2405,-0.01,0.1479,0.2329,0.27,3.0718,2.9489,2.8053,2.6522,2.4846,2.3377,2.2309,2.1411,2.0483,1.9466,1.8335,1.7116,1.5763,1.4583,1.335,1.1997,1.4216,1.5445,1.4893,1.4937,1.4759,1.4239,1.4209,1.3647,1.2378,1.2609,1.2143,1.0738,1.01,0.9634,0.9246,0.8111,0.7494,0.7282,0.4042,0.0777,-0.2434,-0.5433,-0.711,-0.7747,-0.8514,-0.8811,-0.8791,-0.8775,-0.7961,-0.6765,-0.6243,-0.5893,-0.5759,-0.6029,-0.6526,-0.694,-0.6653,-0.6979,-0.7572,-0.7897,-0.7257,-0.6618,-0.7378,-0.7647,-0.7695,-0.7695,-0.7695,-0.7695,-0.7695,-0.7695,-0.7695,-0.7695,-0.7569,-0.7471,-0.7666,-0.7539,-0.7567,-0.7958,-0.8112,-0.816,-0.8112,-0.8894,0.0,-0.903,-1.0807,-1.1801,-1.1041,-1.2516,-1.3237,-1.2637,-1.4228,0.0,-1.5658,-1.6464,-1.7882,-1.997,-1.8706,-1.7454,-1.6311,-1.3378,-1.0603,-0.8036,-0.7046,-0.5823,-0.4446,-0.45,-0.4263,-0.3813,-0.386,-0.3784,-0.361,-0.3646,-0.3186,-0.2468,-0.2269,-0.1266,0.0234,0.2317,0.3066,0.3092,2.7243,2.5745,2.4353,2.3777,2.2228,2.0793,2.0051,1.8995,1.8039,1.7288,1.5756,1.4275,1.2963,1.1777,1.0504,0.9085,1.1523,1.2742,1.1909,1.2452,1.2582,1.2106,1.2089,1.1514,1.028,1.0714,1.0705,1.0187,0.9592,0.9009,0.8384,0.7538,0.6624,0.5541,0.3144,0.0837,-0.1494,-0.4456,-0.6362,-0.7446,-0.7641,-0.8094,-0.8633,-0.8692,-0.8094,-0.7164,-0.7279,-0.6838,-0.6276,-0.6449,-0.6699,-0.6979,-0.6979,-0.6979,-0.7091,-0.7669,-0.7982,-0.8095,-0.7854,-0.7733,-0.7695,-0.7695,-0.7695,-0.7695,-0.7695,-0.7666,-0.7598,-0.7598,-0.7275,-0.7118,-0.7451,-0.7275,-0.7393,-0.8252,-0.8191,-0.8139,-0.8573,0.0,-0.8967,-0.9388,-1.031,-1.103,-1.1183,-1.2131,-1.2443,-1.1719,-1.3257,-1.4029,-1.3698,-1.4295,-1.5423,-1.7045,-1.5761,-1.4554,-1.3583,-1.0705,-0.8571,-0.7093,-0.6232,-0.5083,-0.379,-0.389,-0.3674,-0.3195,-0.3286,-0.3189,-0.2938,-0.2874,-0.2131,-0.1009,-0.01,0.0367,0.0766,0.2871,0.37,0.3785,2.3009,2.2101,2.1195,2.0062,1.9118,1.8044,1.6529,1.5674,1.4789,1.3663,1.2775,1.175,1.0316,0.9559,0.8343,0.6322,0.7134,0.8205,0.9207,0.9402,0.9379,0.9327,0.9341,0.8916,0.8109,0.7611,0.7368,0.7272,0.7132,0.7015,0.6908,0.6173,0.5389,0.4567,0.251,0.0947,-0.0447,-0.344,-0.5285,-0.6251,-0.7298,-0.7747,-0.7923,-0.833,-0.7976,-0.7281,-0.7426,-0.7019,-0.6413,-0.6762,-0.6934,-0.6979,-0.6979,-0.6979,-0.7045,-0.7387,-0.75,-0.7619,-0.8025,-0.7925,-0.7695,-0.7695,-0.7695,-0.7695,-0.7695,-0.7442,-0.7178,-0.7178,-0.688,-0.6609,-0.6669,-0.691,-0.7393,-0.8259,-0.8157,-0.8153,-0.8621,0.0,-0.869,-0.8966,-0.9779,-1.042,-1.0687,-1.1444,-1.1665,-1.1174,-1.1368,-1.1708,-1.2121,-1.1338,-1.1022,-1.1428,-1.237,-1.1997,-1.0195,-0.922,-0.791,-0.63,-0.5666,-0.4782,-0.364,-0.3662,-0.3618,-0.351,-0.3534,-0.3449,-0.3161,-0.2348,-0.1268,-0.0071,0.108,0.2093,0.3072,0.3943,0.4543,0.4893,2.0013,1.9162,1.8215,1.7267,1.6332,1.5178,1.3668,1.3193,1.2669,1.1811,1.0748,0.9665,0.8613,0.7617,0.6426,0.5093,0.5291,0.5756,0.6418,0.7154,0.7563,0.7591,0.7587,0.7405,0.7047,0.6352,0.6199,0.6588,0.6573,0.6396,0.6013,0.5791,0.5262,0.4324,0.1839,0.0447,-0.0168,-0.2347,-0.3965,-0.5199,-0.6159,-0.6694,-0.6998,-0.7225,-0.717,-0.6941,-0.6978,-0.6898,-0.6771,-0.6943,-0.6979,-0.6979,-0.6979,-0.6979,-0.71,-0.7586,-0.7644,-0.7569,-0.7584,-0.7642,-0.7637,-0.7442,-0.753,-0.7695,-0.7695,-0.7403,-0.7109,-0.7109,-0.6729,-0.6458,-0.6681,-0.7071,-0.7566,-0.8208,-0.869,0.0,0.0,-0.902,-0.9125,-0.8884,-0.9343,-0.9771,-1.001,-1.07,-1.1025,-1.0641,-1.0792,-1.0885,-1.0891,-0.9809,-0.927,-0.9487,-0.9817,-0.9222,-0.7687,-0.7728,-0.7058,-0.5674,-0.5427,-0.4705,-0.3581,-0.3581,-0.3581,-0.3581,-0.3581,-0.3497,-0.3226,-0.2226,-0.0906,0.0646,0.2315,0.3424,0.4189,0.4934,0.5624,0.6236,1.7001,1.6024,1.5027,1.452,1.366,1.2645,1.1419,1.1234,1.1035,1.0401,0.9416,0.8366,0.7438,0.6425,0.5419,0.4574,0.4519,0.4519,0.4519,0.5495,0.611,0.6119,0.6109,0.6105,0.6105,0.555,0.555,0.61,0.61,0.5823,0.5273,0.5454,0.5191,0.4421,0.2063,0.0671,-0.0056,-0.1232,-0.2792,-0.4519,-0.5033,-0.5588,-0.6187,-0.6375,-0.6513,-0.6596,-0.6693,-0.6833,-0.6979,-0.6979,-0.6979,-0.6979,-0.6979,-0.6979,-0.7072,-0.7594,-0.756,-0.7353,-0.7059,-0.7187,-0.7353,-0.7029,-0.7255,-0.7569,-0.7569,-0.7246,-0.6961,-0.6961,-0.6546,-0.6267,-0.6561,-0.7166,-0.7757,-0.8191,0.0,0.0,0.0,-0.9385,-0.9436,-0.8964,-0.9034,-0.9177,-0.9423,-1.0043,-1.0312,-1.0033,-1.0243,-1.0192,-0.9796,-0.8818,-0.8267,-0.8252,-0.7836,-0.7094,-0.6007,-0.638,-0.6076,-0.5087,-0.5087,-0.4574,-0.3581,-0.3581,-0.3581,-0.3581,-0.3581,-0.35,-0.3271,-0.1986,-0.0456,0.1316,0.3308,0.4382,0.4922,0.5841,0.673,0.7588,1.319,1.2122,1.1209,1.1141,1.1065,1.0779,1.0046,0.9915,0.9703,0.9029,0.8884,0.824,0.683,0.6603,0.5991,0.4625,0.4519,0.4519,0.4519,0.4577,0.4632,0.4629,0.4639,0.4643,0.4643,0.4588,0.4584,0.468,0.468,0.4625,0.457,0.4574,0.4581,0.448,0.4252,0.2625,-0.0,-0.0112,-0.1842,-0.4463,-0.4346,-0.4739,-0.5458,-0.6292,-0.6612,-0.6645,-0.6881,-0.6979,-0.6979,-0.6979,-0.6979,-0.6979,-0.6979,-0.6979,-0.699,-0.6899,-0.6749,-0.6579,-0.6548,-0.6579,-0.6579,-0.6548,-0.685,-0.7148,-0.7148,-0.685,-0.6548,-0.6548,-0.6111,-0.5746,-0.578,-0.6792,-0.7784,-0.8392,0.0,0.0,-0.9675,-0.9221,-0.9009,-0.9311,-0.8978,-0.8875,-0.9286,-0.9503,-0.9497,-0.9231,-0.8973,-0.8837,-0.8813,-0.8018,-0.7132,-0.6256,-0.6533,-0.628,-0.5394,-0.5389,-0.5087,-0.4478,-0.4478,-0.418,-0.3581,-0.3581,-0.3581,-0.3581,-0.3581,-0.3587,-0.3399,-0.1345,0.0387,0.1896,0.3693,0.4807,0.5535,0.655,0.7759,0.8792,1.2248,1.179,1.1149,1.0344,1.0167,0.9961,0.9287,0.9183,0.9093,0.8857,0.8381,0.7907,0.7371,0.6455,0.5694,0.5148,0.4746,0.4519,0.4519,0.4519,0.4519,0.4519,0.4522,0.4525,0.4525,0.4525,0.4522,0.4519,0.4519,0.4736,0.5109,0.5109,0.5113,0.5117,0.467,0.3846,0.2689,0.0781,-0.067,-0.1842,-0.3508,-0.4295,-0.4438,-0.4748,-0.5023,-0.528,-0.576,-0.6192,-0.6562,-0.6894,-0.6901,-0.6754,-0.6754,-0.6627,-0.64,-0.5884,-0.5731,-0.5643,-0.5401,-0.5898,-0.6427,-0.6183,-0.6427,-0.673,-0.673,-0.6427,-0.6184,-0.633,-0.6178,-0.6147,-0.665,-0.7303,-0.7976,-0.8526,0.0,-0.9125,-0.9126,-0.9147,-0.9155,-0.9029,-0.8832,-0.8825,-0.9182,-0.9264,-0.9282,-0.9339,-0.8931,-0.8708,-0.8687,-0.7642,-0.6546,-0.534,-0.5894,-0.5789,-0.4934,-0.5154,-0.5,-0.4387,-0.4387,-0.4136,-0.3581,-0.3581,-0.3581,-0.3581,-0.3581,-0.3602,-0.342,-0.1118,0.1378,0.379,0.4641,0.5496,0.6404,0.7378,0.8413,0.933,1.1639,1.1294,1.0821,0.9688,0.9465,0.9309,0.8857,0.8804,0.8804,0.8804,0.8387,0.7848,0.7419,0.6426,0.5668,0.5203,0.4746,0.4519,0.4519,0.446,0.4388,0.4402,0.4399,0.4392,0.4321,0.4291,0.4341,0.4368,0.4338,0.4609,0.5085,0.535,0.53,0.5085,0.4858,0.4635,0.4304,0.1359,0.0055,-0.0219,-0.2911,-0.3944,-0.3899,-0.3947,-0.416,-0.446,-0.5101,-0.569,-0.624,-0.6615,-0.6691,-0.6587,-0.6587,-0.6364,-0.5907,-0.5285,-0.5161,-0.5156,-0.4884,-0.5446,-0.6068,-0.5797,-0.6006,-0.6305,-0.6305,-0.6098,-0.5979,-0.6234,-0.6392,-0.6605,-0.7064,-0.7712,-0.8191,-0.8284,-0.8759,-0.8933,-0.8533,-0.8796,-0.8941,-0.8568,-0.8456,-0.8561,-0.8783,-0.8906,-0.904,-0.915,-0.8652,-0.8308,-0.827,-0.753,-0.6679,-0.5783,-0.6017,-0.5712,-0.4895,-0.5351,-0.5251,-0.4563,-0.4563,-0.4232,-0.3581,-0.3581,-0.3581,-0.3578,-0.2807,-0.248,-0.2323,-0.0337,0.2206,0.4861,0.5129,0.5888,0.6967,0.7976,0.8854,0.954,1.0923,1.0265,0.9595,0.893,0.8804,0.8804,0.8804,0.8804,0.8804,0.8804,0.8804,0.8209,0.675,0.6605,0.6051,0.4622,0.4519,0.4519,0.4519,0.4291,0.4178,0.4217,0.421,0.4082,0.3926,0.3884,0.3922,0.4,0.4013,0.4097,0.4246,0.4968,0.4916,0.4246,0.4968,0.4995,0.4321,0.1493,0.0156,-0.0259,-0.2623,-0.3728,-0.3947,-0.4268,-0.4408,-0.4492,-0.5076,-0.5696,-0.6181,-0.6181,-0.6366,-0.6587,-0.658,-0.6179,-0.5609,-0.5223,-0.5173,-0.5277,-0.5277,-0.5277,-0.5309,-0.5309,-0.5617,-0.5882,-0.5882,-0.5913,-0.5979,-0.6234,-0.6665,-0.6929,-0.665,-0.7752,-0.8419,-0.7637,-0.8169,-0.8515,-0.7977,-0.8183,-0.8263,-0.7922,-0.7882,-0.7882,-0.7888,-0.8388,-0.8611,-0.8407,-0.7918,-0.7527,-0.733,-0.7536,-0.7723,-0.767,-0.6842,-0.6051,-0.5332,-0.5883,-0.5758,-0.4894,-0.4894,-0.4442,-0.3581,-0.3581,-0.3581,-0.3442,-0.102,-0.0,0.0125,0.1165,0.2829,0.4728,0.4984,0.5879,0.7113,0.8252,0.9039,0.9494,1.1642,1.0943,1.0272,0.9595,0.9109,0.8804,0.8804,0.8804,0.8804,0.8804,0.8336,0.7876,0.7393,0.6448,0.5655,0.525,0.4746,0.4519,0.4519,0.4291,0.4129,0.3999,0.4043,0.4056,0.3975,0.3993,0.4168,0.4607,0.4626,0.5125,0.6012,0.6258,0.6017,0.548,0.5679,0.5164,0.3936,0.1388,-0.0791,-0.2576,-0.33,-0.365,-0.3718,-0.3817,-0.3851,-0.3917,-0.4489,-0.5052,-0.562,-0.6076,-0.6238,-0.625,-0.5833,-0.5345,-0.4844,-0.4455,-0.4563,-0.4762,-0.4479,-0.4826,-0.5309,-0.5309,-0.5404,-0.5554,-0.582,-0.5913,-0.6142,-0.703,-0.7016,-0.7115,-0.792,-0.774,-0.7623,-0.7997,-0.7947,-0.7859,-0.7896,-0.8009,-0.811,-0.823,-0.8056,-0.8041,-0.8504,-0.8507,-0.8557,-0.8657,-0.8532,-0.8204,-0.7606,-0.7682,-0.745,-0.6966,-0.6684,-0.6435,-0.6221,-0.5709,-0.5016,-0.4286,-0.4286,-0.4061,-0.3727,-0.3784,-0.2796,-0.102,-0.0311,0.0972,0.2546,0.2889,0.3677,0.4685,0.4615,0.5365,0.6592,0.7646,0.8238,0.8541,1.1963,1.1268,1.0582,0.9903,0.9228,0.8804,0.8804,0.8804,0.8705,0.8381,0.8,0.7488,0.6881,0.603,0.5387,0.514,0.4746,0.4519,0.4519,0.4309,0.4106,0.3925,0.3853,0.3819,0.3858,0.4036,0.4338,0.4683,0.4918,0.5471,0.6307,0.659,0.6265,0.551,0.5743,0.5087,0.3656,0.1552,-0.0982,-0.3538,-0.3061,-0.3194,-0.3588,-0.3595,-0.3592,-0.3653,-0.3883,-0.4484,-0.5168,-0.5481,-0.5756,-0.5898,-0.5229,-0.4953,-0.4762,-0.4188,-0.428,-0.4505,-0.4118,-0.4505,-0.5023,-0.5023,-0.5151,-0.5372,-0.5617,-0.5672,-0.5916,-0.6848,-0.6941,-0.71,-0.7891,-0.7648,-0.7469,-0.7738,-0.7609,-0.7585,-0.7878,-0.7997,-0.8184,-0.8491,-0.8365,-0.8345,-0.8751,-0.8651,-0.8404,-0.7984,-0.8209,-0.7937,-0.6902,-0.7122,-0.7074,-0.6588,-0.6588,-0.648,-0.6145,-0.5584,-0.5025,-0.4509,-0.4509,-0.4291,-0.3846,-0.3809,-0.241,0.0044,0.1024,0.2299,0.3722,0.3653,0.4055,0.4754,0.4498,0.5179,0.6395,0.7433,0.8014,0.8406,1.2164,1.1336,1.0656,1.0016,0.9341,0.8857,0.8811,0.8752,0.8487,0.78,0.7576,0.6972,0.5639,0.5432,0.5148,0.4574,0.447,0.4504,0.4481,0.4278,0.4145,0.4003,0.3691,0.3534,0.3581,0.4092,0.4391,0.4474,0.5043,0.5409,0.5657,0.6344,0.5976,0.4881,0.5423,0.4911,0.3575,0.1908,-0.0488,-0.3049,-0.2279,-0.2506,-0.3277,-0.328,-0.3353,-0.343,-0.3319,-0.3948,-0.478,-0.4723,-0.5162,-0.559,-0.4879,-0.4922,-0.5087,-0.4248,-0.4248,-0.4473,-0.4053,-0.4248,-0.4538,-0.4538,-0.489,-0.5246,-0.534,-0.534,-0.5542,-0.6176,-0.6688,-0.6989,-0.7079,-0.7489,-0.767,-0.7145,-0.7288,-0.7595,-0.7827,-0.8113,-0.8378,-0.8619,-0.8638,-0.8706,-0.8692,-0.8646,-0.8049,-0.6696,-0.7235,-0.7015,-0.5651,-0.6258,-0.6588,-0.6588,-0.6534,-0.6204,-0.5487,-0.5433,-0.5354,-0.5249,-0.5249,-0.477,-0.39,-0.3614,-0.2207,0.0135,0.2578,0.3756,0.3913,0.3708,0.4079,0.4751,0.4443,0.5159,0.6433,0.7314,0.8082,0.8736,1.2735,1.2092,1.136,1.0701,1.0053,0.9413,0.8857,0.8315,0.7889,0.7729,0.672,0.5837,0.5521,0.5058,0.4632,0.4519,0.435,0.4326,0.4496,0.4164,0.3958,0.4003,0.3149,0.2954,0.3592,0.3714,0.4228,0.5087,0.5216,0.5761,0.6686,0.6815,0.6557,0.587,0.5554,0.4955,0.4085,0.2081,0.0977,0.0401,-0.2194,-0.2243,-0.076,-0.0762,-0.1352,-0.2298,-0.3036,-0.361,-0.419,-0.5133,-0.5581,-0.5624,-0.5274,-0.496,-0.4666,-0.4151,-0.4058,-0.4021,-0.3593,-0.3788,-0.4123,-0.4123,-0.4441,-0.4922,-0.5609,-0.5765,-0.6045,-0.7095,-0.7049,-0.7033,-0.758,-0.7405,-0.7228,-0.7379,-0.7473,-0.7531,-0.7558,-0.7818,-0.7997,-0.8058,-0.8324,-0.8303,-0.796,-0.7402,-0.6966,-0.6642,-0.675,-0.6696,-0.6367,-0.6534,-0.6588,-0.6588,-0.6036,-0.5651,-0.5487,-0.5003,-0.4718,-0.4685,-0.4685,-0.4481,-0.41,-0.3007,-0.1568,0.0146,0.2798,0.3916,0.3961,0.3809,0.3875,0.4011,0.3823,0.4512,0.563,0.6228,0.7194,0.8311,1.2967,1.2299,1.1576,1.0927,1.0246,0.9575,0.8917,0.848,0.8103,0.7723,0.6735,0.5864,0.5546,0.4897,0.4519,0.4519,0.4319,0.4217,0.4266,0.3697,0.3481,0.3808,0.328,0.3176,0.3588,0.3585,0.4144,0.5303,0.5567,0.6173,0.6979,0.6979,0.6713,0.6186,0.5556,0.4957,0.4299,0.2932,0.2135,0.1603,-0.0894,-0.1477,-0.0804,-0.0224,-0.0652,-0.1615,-0.2147,-0.3029,-0.4078,-0.514,-0.5504,-0.5445,-0.5068,-0.4794,-0.4468,-0.3853,-0.3658,-0.356,-0.3134,-0.3331,-0.3658,-0.3658,-0.3983,-0.4468,-0.5131,-0.5563,-0.5932,-0.6406,-0.6395,-0.6447,-0.6982,-0.6816,-0.6777,-0.7184,-0.7255,-0.7341,-0.7652,-0.7926,-0.8133,-0.8273,-0.8567,-0.8514,-0.7753,-0.7348,-0.6853,-0.6145,-0.6091,-0.5932,-0.5605,-0.5609,-0.5609,-0.5609,-0.5222,-0.5003,-0.5003,-0.468,-0.4519,-0.4519,-0.4519,-0.4443,-0.4306,-0.3612,-0.2179,-0.005,0.2973,0.4191,0.4073,0.3965,0.3944,0.3988,0.3768,0.4217,0.5094,0.583,0.7195,0.8858,1.2976,1.2425,1.1755,1.0948,1.0324,0.9724,0.8923,0.8692,0.8415,0.7777,0.6966,0.6164,0.5546,0.4916,0.4519,0.4519,0.4273,0.413,0.3998,0.3161,0.2915,0.3564,0.3592,0.3581,0.3581,0.3581,0.4144,0.5303,0.5787,0.6386,0.6979,0.6979,0.67,0.6193,0.5583,0.4952,0.4347,0.3836,0.3034,0.2001,0.1027,-0.0222,-0.1369,-0.0399,-0.0559,-0.1307,-0.1294,-0.2427,-0.3988,-0.4794,-0.5087,-0.5023,-0.4634,-0.4436,-0.4237,-0.3519,-0.3261,-0.313,-0.2779,-0.294,-0.3196,-0.3196,-0.3554,-0.4016,-0.434,-0.4928,-0.5364,-0.5254,-0.5376,-0.5613,-0.5993,-0.6136,-0.6349,-0.6768,-0.6937,-0.7189,-0.7663,-0.8026,-0.8318,-0.8533,-0.8797,-0.8612,-0.7753,-0.7563,-0.6961,-0.5597,-0.5597,-0.5328,-0.4519,-0.4625,-0.4625,-0.4519,-0.4519,-0.4519,-0.4519,-0.4519,-0.4519,-0.4519,-0.4519,-0.4511,-0.4506,-0.452,-0.3059,-0.0409,0.2462,0.3932,0.4234,0.4131,0.4138,0.4167,0.391,0.4181,0.4883,0.6112,0.7827,0.9699,1.291,1.2813,1.2318,1.1049,1.0748,1.0233,0.9008,0.8271,0.7823,0.7717,0.6524,0.5614,0.5491,0.4916,0.4519,0.4519,0.4206,0.4017,0.3926,0.2974,0.2768,0.3554,0.3588,0.3581,0.3581,0.3581,0.4144,0.5303,0.5394,0.5947,0.6979,0.6979,0.6725,0.6167,0.5578,0.4976,0.4347,0.3836,0.349,0.3353,0.3194,0.1753,-0.0211,-0.0042,-0.0524,-0.1302,-0.1289,-0.2213,-0.349,-0.3988,-0.4188,-0.4156,-0.4091,-0.3788,-0.3453,-0.3323,-0.3068,-0.2779,-0.2716,-0.2746,-0.2779,-0.2779,-0.3219,-0.3682,-0.3717,-0.3981,-0.4377,-0.4852,-0.4836,-0.4886,-0.536,-0.583,-0.6221,-0.6307,-0.6683,-0.7021,-0.7105,-0.7598,-0.7977,-0.8017,-0.7942,-0.7841,-0.7717,-0.7128,-0.6421,-0.5542,-0.6091,-0.5878,-0.457,-0.5058,-0.5109,-0.4515,-0.4519,-0.4519,-0.4519,-0.4519,-0.4519,-0.4519,-0.4519,-0.4508,-0.4491,-0.4512,-0.3322,-0.126,0.0055,0.2098,0.444,0.4457,0.4348,0.4167,0.391,0.4252,0.5149,0.7497,0.8928,0.9933,1.1731,1.1731,1.1425,1.04,1.0229,0.9941,0.8969,0.8514,0.8178,0.7771,0.6801,0.5981,0.555,0.4901,0.446,0.4346,0.4137,0.3949,0.3902,0.3385,0.3217,0.3585,0.3585,0.3581,0.3581,0.3581,0.4144,0.5303,0.5303,0.5739,0.6562,0.6562,0.6227,0.5685,0.5183,0.4739,0.4347,0.3836,0.3581,0.3527,0.2751,0.1535,0.0167,-0.0489,-0.0969,-0.1412,-0.2245,-0.2858,-0.336,-0.3858,-0.3993,-0.3961,-0.3691,-0.3458,-0.3257,-0.3035,-0.2841,-0.2712,-0.2712,-0.2712,-0.2703,-0.2788,-0.2997,-0.3239,-0.3379,-0.3481,-0.3668,-0.4289,-0.4459,-0.4569,-0.4751,-0.5303,-0.5787,-0.6136,-0.6641,-0.7081,-0.7248,-0.7655,-0.8001,-0.8377,-0.8332,-0.8156,-0.7723,-0.7396,-0.6907,-0.6145,-0.6421,-0.6312,-0.5714,-0.5932,-0.5819,-0.5113,-0.5058,-0.4897,-0.4519,-0.4519,-0.4519,-0.4519,-0.4519,-0.4519,-0.4519,-0.448,-0.3522,-0.1836,-0.0557,0.078,0.2117,0.3799,0.4445,0.4344,0.4009,0.4423,0.5276,0.6728,0.7845,0.8907]},{"header":{"parameterUnit":"m.s-1","parameterCategory":1,"la1":30.6,"la2":28.766,"lo1":-90.7593,"lo2":-88.6598,"dy":0.0162,"dx":0.0183,"nx":116,"ny":114,"refTime":"2023-09-14T18:00:00:Z","depth":0,"parameterNumber":3,"parameterNumberName":"V-component_of_WINDS"},"data":[0.0,0.0,0.0,0.0,0.0,0.0,0.0,0.0,0.0,0.0,0.0,0.0,0.0,0.0,0.0,0.0,0.0,0.0,0.0,0.0,0.0,0.0,0.0,0.0,0.0,0.0,0.0,0.0,0.0,0.0,0.0,0.0,0.0,0.0,0.0,0.0,0.0,0.0,0.0,0.0,0.0,0.0,0.0,0.0,0.0,0.0,0.0,0.0,0.0,0.0,0.0,0.0,0.0,0.0,0.0,0.0,0.0,0.0,0.0,0.0,0.0,0.0,0.0,0.0,0.0,0.0,0.0,0.0,0.0,0.0,0.0,0.0,0.0,0.0,0.0,0.0,0.0,0.0,0.0,0.0,0.0,0.0,0.0,0.0,0.0,0.0,0.0,0.0,0.0,0.0,0.0,0.0,0.0,0.0,0.0,0.0,0.0,0.0,0.0,0.0,0.0,0.0,0.0,0.0,0.0,0.0,0.0,0.0,0.0,0.0,0.0,0.0,0.0,0.0,0.0,0.0,0.0,0.0,0.0,0.0,0.0,0.0,0.0,0.0,0.0,0.0,0.0,0.0,0.0,0.0,0.0,0.0,0.0,0.0,0.0,0.0,0.0,0.0,0.0,0.0,0.0,0.0,0.0,0.0,0.0,0.0,0.0,0.0,0.0,0.0,0.0,0.0,0.0,0.0,0.0,0.0,0.0,0.0,0.0,0.0,0.0,0.0,0.0,0.0,0.0,0.0,0.0,0.0,0.0,0.0,0.0,0.0,0.0,0.0,0.0,0.0,0.0,0.0,0.0,0.0,0.0,0.0,0.0,0.0,0.0,0.0,0.0,0.0,0.0,0.0,0.0,0.0,0.0,0.0,0.0,0.0,0.0,0.0,0.0,0.0,0.0,0.0,0.0,0.0,0.0,0.0,0.0,0.0,0.0,0.0,0.0,0.0,0.0,0.0,0.0,0.0,0.0,0.0,0.0,0.0,0.0,0.0,0.0,0.0,0.0,0.0,0.0,0.0,0.0,0.0,0.0,0.0,0.0,0.0,0.0,0.0,0.0,0.0,0.0,0.0,0.0,0.0,0.0,0.0,0.0,0.0,0.0,0.0,0.0,0.0,0.0,0.0,0.0,0.0,0.0,0.0,0.0,0.0,0.0,0.0,0.0,0.0,0.0,0.0,0.0,0.0,0.0,0.0,0.0,0.0,0.0,0.0,0.0,0.0,0.0,0.0,0.0,0.0,0.0,0.0,0.0,0.0,0.0,0.0,0.0,0.0,0.0,0.0,0.0,0.0,0.0,0.0,0.0,0.0,0.0,0.0,0.0,0.0,0.0,0.0,0.0,0.0,0.0,0.0,0.0,0.0,0.0,0.0,0.0,0.0,0.0,0.0,0.0,0.0,0.0,0.0,0.0,0.0,0.0,0.0,0.0,0.0,0.0,0.0,0.0,0.0,0.0,0.0,0.0,0.0,0.0,0.0,0.0,0.0,0.0,0.0,0.0,0.0,0.0,0.0,0.0,0.0,0.0,0.0,0.0,0.0,0.0,0.0,0.0,0.0,0.0,0.0,0.0,0.0,0.0,0.0,0.0,0.0,0.0,0.0,0.0,0.0,0.0,0.0,0.0,0.0,0.0,0.0,0.0,0.0,0.0,0.0,0.0,0.0,0.0,0.0,0.0,0.0,0.0,0.0,0.0,0.0,0.0,0.0,0.0,0.0,0.0,0.0,0.0,0.0,0.0,0.0,0.0,0.0,0.0,0.0,0.0,0.0,0.0,0.0,0.0,0.0,0.0,0.0,0.0,0.0,0.0,0.0,0.0,0.0,0.0,0.0,0.0,0.0,0.0,0.0,0.0,0.0,0.0,0.0,0.0,0.0,0.0,0.0,0.0,0.0,0.0,0.0,0.0,0.0,0.0,0.0,0.0,0.0,0.0,0.0,0.0,0.0,0.0,0.0,0.0,0.0,0.0,0.0,0.0,0.0,0.0,0.0,0.0,0.0,0.0,0.0,0.0,0.0,0.0,0.0,0.0,0.0,0.0,0.0,0.0,0.0,0.0,0.0,0.0,0.0,0.0,0.0,0.0,0.0,0.0,0.0,0.0,0.0,0.0,0.0,0.0,0.0,0.0,0.0,0.0,0.0,0.0,0.0,0.0,0.0,0.0,0.0,0.0,0.0,0.0,0.0,0.0,0.0,0.0,0.0,0.0,0.0,0.0,0.0,0.0,0.0,0.0,0.0,0.0,0.0,0.0,0.0,0.0,0.0,0.0,0.0,0.0,0.0,0.0,0.0,0.0,0.0,0.0,0.0,0.0,0.0,0.0,0.0,0.0,0.0,0.0,0.0,0.0,0.0,0.0,0.0,0.0,0.0,0.0,0.0,0.0,0.0,0.0,0.0,0.0,0.0,0.0,0.0,0.0,0.0,0.0,0.0,0.0,0.0,0.0,0.0,0.0,0.0,0.0,0.0,0.0,0.0,0.0,0.0,0.0,0.0,0.0,0.0,0.0,0.0,0.0,0.0,0.0,0.0,0.0,0.0,0.0,0.0,0.0,0.0,0.0,0.0,0.0,0.0,0.0,0.0,0.0,0.0,0.0,0.0,0.0,0.0,0.0,0.0,0.0,0.0,0.0,0.0,0.0,0.0,0.0,0.0,0.0,0.0,0.0,0.0,0.0,0.0,0.0,0.0,0.0,0.0,0.0,0.0,0.0,0.0,0.0,0.0,0.0,0.0,0.0,0.0,0.0,0.0,0.0,0.0,0.0,0.0,0.0,0.0,0.0,0.0,0.0,0.0,0.0,0.0,0.0,0.0,0.0,0.0,0.0,0.0,0.0,0.0,0.0,0.0,0.0,0.0,0.0,0.0,0.0,0.0,0.0,0.0,0.0,0.0,0.0,0.0,0.0,0.0,0.0,0.0,0.0,0.0,0.0,0.0,0.0,0.0,0.0,0.0,0.0,0.0,0.0,0.0,0.0,0.0,0.0,0.0,0.0,0.0,0.0,0.0,0.0,0.0,0.0,0.0,0.0,0.0,0.0,0.0,0.0,0.0,0.0,0.0,0.0,0.0,0.0,0.0,0.0,0.0,0.0,0.0,0.0,0.0,0.0,0.0,0.0,0.0,0.0,0.0,0.0,0.0,0.0,0.0,0.0,0.0,0.0,0.0,0.0,0.0,0.0,0.0,0.0,0.0,0.0,0.0,0.0,0.0,0.0,0.0,0.0,0.0,0.0,0.0,0.0,0.0,0.0,0.0,0.0,0.0,0.0,0.0,0.0,0.0,0.0,0.0,0.0,0.0,0.0,0.0,0.0,0.0,0.0,0.0,0.0,0.0,0.0,0.0,0.0,0.0,0.0,0.0,0.0,0.0,0.0,0.0,0.0,0.0,0.0,0.0,0.0,0.0,0.0,0.0,0.0,0.0,0.0,0.0,0.0,0.0,0.0,0.0,0.0,0.0,0.0,0.0,0.0,0.0,0.0,0.0,0.0,0.0,0.0,0.0,0.0,0.0,0.0,0.0,0.0,0.0,0.0,0.0,0.0,0.0,0.0,0.0,0.0,0.0,0.0,0.0,0.0,0.0,0.0,0.0,0.0,0.0,0.0,0.0,0.0,0.0,0.0,0.0,0.0,0.0,0.0,0.0,0.0,0.0,0.0,0.0,0.0,0.0,0.0,0.0,0.0,0.0,0.0,0.0,0.0,0.0,0.0,0.0,0.0,0.0,0.0,0.0,0.0,0.0,0.0,0.0,0.0,0.0,0.0,0.0,0.0,0.0,0.0,0.0,0.0,0.0,0.0,0.0,0.0,0.0,0.0,0.0,0.0,0.0,0.0,0.0,0.0,0.0,0.0,0.0,0.0,0.0,0.0,0.0,0.0,0.0,0.0,0.0,0.0,0.0,0.0,0.0,0.0,0.0,0.0,0.0,0.0,0.0,0.0,0.0,0.0,0.0,0.0,0.0,0.0,0.0,0.0,0.0,0.0,0.0,0.0,0.0,0.0,0.0,0.0,0.0,0.0,0.0,0.0,0.0,0.0,0.0,0.0,0.0,0.0,0.0,0.0,0.0,0.0,0.0,0.0,0.0,0.0,0.0,0.0,0.0,0.0,0.0,0.0,0.0,0.0,0.0,0.0,0.0,0.0,0.0,0.0,0.0,0.0,0.0,0.0,0.0,0.0,0.0,0.0,0.0,0.0,0.0,0.0,0.0,0.0,0.0,0.0,0.0,0.0,0.0,0.0,0.0,0.0,0.0,0.0,0.0,0.0,0.0,0.0,0.0,0.0,0.0,0.0,0.0,0.0,0.0,0.0,0.0,0.0,0.0,0.0,0.0,0.0,0.0,0.0,0.0,0.0,0.0,0.0,0.0,0.0,0.0,0.0,0.0,0.0,0.0,0.0,0.0,0.0,0.0,0.0,0.0,0.0,0.0,0.0,0.0,0.0,0.0,0.0,0.0,0.0,0.0,0.0,0.0,0.0,0.0,0.0,0.0,0.0,0.0,0.0,0.0,0.0,0.0,0.0,0.0,0.0,0.0,0.0,0.0,0.0,0.0,0.0,0.0,0.0,0.0,0.0,0.0,0.0,0.0,0.0,0.0,0.0,0.0,0.0,0.0,0.0,0.0,0.0,0.0,0.0,0.0,0.0,0.0,0.0,0.0,0.0,0.0,0.0,0.0,0.0,0.0,0.0,0.0,0.0,0.0,0.0,0.0,0.0,0.0,0.0,0.0,0.0,0.0,0.0,0.0,0.0,0.0,0.0,0.0,0.0,0.0,0.0,0.0,0.0,0.0,0.0,0.0,0.0,0.0,0.0,0.0,0.0,0.0,0.0,0.0,0.0,0.0,0.0,0.0,0.0,0.0,0.0,0.0,0.0,0.0,0.0,0.0,0.0,0.0,0.0,0.0,0.0,0.0,0.0,0.0,0.0,0.0,0.0,0.0,0.0,0.0,0.0,0.0,0.0,0.0,0.0,0.0,0.0,0.0,0.0,0.0,0.0,0.0,0.0,0.0,0.0,0.0,0.0,0.0,0.0,0.0,0.0,0.0,0.0,0.0,0.0,0.0,0.0,0.0,0.0,0.0,0.0,0.0,0.0,0.0,0.0,0.0,0.0,0.0,0.0,0.0,0.0,0.0,0.0,0.0,0.0,0.0,0.0,0.0,0.0,0.0,0.0,0.0,0.0,0.0,0.0,0.0,0.0,0.0,0.0,0.0,0.0,0.0,0.0,0.0,0.0,0.0,0.0,0.0,0.0,0.0,0.0,0.0,0.0,0.0,0.0,0.0,0.0,0.0,0.0,0.0,0.0,0.0,0.0,0.0,0.0,0.0,0.0,0.0,0.0,0.0,0.0,0.0,0.0,0.0,0.0,0.0,0.0,0.0,0.0,0.0,0.0,0.0,0.0,0.0,0.0,0.0,0.0,0.0,0.0,0.0,0.0,0.0,0.0,0.0,0.0,0.0,0.0,0.0,0.0,0.0,0.0,0.0,0.0,0.0,0.0,0.0,0.0,0.0,0.0,0.0,0.0,0.0,0.0,0.0,0.0,0.0,0.0,0.0,0.0,0.0,0.0,0.0,0.0,0.0,0.0,0.0,0.0,0.0,0.0,0.0,0.0,0.0,0.0,0.0,0.0,0.0,0.0,0.0,0.0,0.0,0.0,0.0,0.0,0.0,0.0,0.0,0.0,0.0,0.0,0.0,0.0,0.0,0.0,0.0,0.0,0.0,0.0,0.0,0.0,0.0,0.0,0.0,0.0,0.0,0.0,0.0,0.0,0.0,0.0,0.0,0.0,0.0,0.0,0.0,0.0,0.0,0.0,0.0,0.0,0.0,0.0,0.0,0.0,0.0,0.0,0.0,0.0,0.0,0.0,0.0,0.0,0.0,0.0,0.0,0.0,0.0,0.0,0.0,0.0,0.0,0.0,0.0,0.0,0.0,0.0,0.0,0.0,0.0,0.0,0.0,0.0,0.0,0.0,0.0,0.0,0.0,0.0,0.0,0.0,0.0,0.0,0.0,0.0,0.0,0.0,0.0,0.0,0.0,0.0,0.0,0.0,0.0,0.0,0.0,0.0,0.0,0.0,0.0,0.0,0.0,0.0,0.0,-1.4266,0.0,0.0,0.0,0.0,0.0,0.0,0.0,0.0,0.0,0.0,0.0,0.0,0.0,0.0,0.0,0.0,0.0,0.0,0.0,0.0,0.0,0.0,0.0,0.0,0.0,0.0,0.0,0.0,0.0,0.0,0.0,0.0,0.0,0.0,0.0,0.0,0.0,0.0,0.0,0.0,-0.028,-0.3014,-0.3862,-0.4869,-0.6016,0.0,0.0,0.0,0.0,0.0,0.0,0.0,0.0,0.0,0.0,0.0,0.0,0.0,0.0,0.0,0.0,0.0,0.0,0.0,0.0,0.0,0.0,0.0,0.0,0.0,0.0,0.0,0.0,0.0,0.0,0.0,0.0,0.0,0.0,0.0,0.0,0.0,0.0,0.0,0.0,0.0,0.0,0.0,0.0,0.0,0.0,0.0,0.0,0.0,0.0,0.0,0.0,0.0,0.0,0.0,0.0,0.0,0.0,0.0,0.0,0.0,0.0,0.0,0.0,0.0,0.0,0.0,0.0,0.0,0.0,0.0,-1.5659,0.0,0.0,0.0,0.0,0.0,0.0,0.0,0.0,0.0,0.0,0.0,0.0,0.0,0.0,0.0,0.0,0.0,0.0,0.0,0.0,0.0,0.0,0.0,0.0,0.0,0.0,0.0,0.0,0.0,0.0,0.0,0.0,0.0,0.0,0.0,0.0,0.0,0.0,0.0,-0.1598,-0.6096,-0.8138,-0.9221,-0.9432,-1.0248,0.0,0.0,0.0,0.0,0.0,0.0,0.0,0.0,0.0,0.0,0.0,0.0,0.0,0.0,0.0,0.0,0.0,0.0,0.0,0.0,0.0,0.0,0.0,0.0,0.0,0.0,0.0,0.0,0.0,0.0,0.0,0.0,0.0,0.0,0.0,0.0,0.0,0.0,0.0,0.0,0.0,0.0,0.0,0.0,0.0,0.0,0.0,0.0,0.0,0.0,0.0,0.0,0.0,0.0,0.0,0.0,0.0,0.0,0.0,0.0,0.0,0.0,0.0,-2.1261,-2.1366,-2.1656,-2.1896,-2.1492,-2.0507,-1.9275,-1.8247,-1.7508,0.0,0.0,0.0,0.0,0.0,0.0,0.0,0.0,0.0,0.0,0.0,0.0,0.0,0.0,0.0,0.0,0.0,0.0,0.0,0.0,0.0,0.0,0.0,0.0,0.0,0.0,0.0,0.0,0.0,0.0,0.0,0.0,0.0,0.0,0.0,0.0,0.0,0.0,0.0592,-0.5576,-0.8545,-1.2299,-1.6392,-1.4879,-1.3395,-1.1939,0.0,0.0,0.0,0.0,0.0,0.0,0.0,0.0,0.0,0.0,0.0,0.0,0.0,0.0,0.0,0.0,0.0,0.0,0.0,0.0,0.0,0.0,0.0,0.0,0.0,0.0,0.0,0.0,0.0,0.0,0.0,0.0,0.0,0.0,0.0,0.0,0.0,0.0,0.0,0.0,0.0,0.3409,0.332,0.0,0.0,0.0,0.0,0.0,0.0,0.0,0.0,0.0,0.0,0.0,0.0,0.0,-1.7423,-2.0652,-2.1364,-2.2673,-2.4584,-2.3059,-2.35,-2.5625,-2.3558,-2.315,-2.4054,-2.2188,0.0,-1.8061,-1.8697,0.0,0.0,0.0,0.0,0.0,0.0,0.0,0.0,0.0,0.0,0.0,0.0,0.0,0.0,0.0,0.0,0.0,0.0,0.0,0.0,0.0,0.0,0.0,0.0,0.0,0.0,0.0,0.0,0.0,0.0,0.0,0.0,0.0,0.0,0.0,0.0,0.7532,0.2736,-0.4137,-0.9774,-1.5486,-2.0993,-2.0195,-1.7512,-1.3489,-1.1185,0.0,0.0,0.0,0.0,0.0,0.0,0.0,0.0,0.0,0.0,0.0,0.0,0.0,0.0,0.0,0.0,0.0,0.0,0.0,0.0,0.0,0.0,0.0,0.0,0.0,0.0,0.0,0.0,0.0,0.0,0.0,0.0,0.0,0.0,0.0,0.0,0.0,0.0,0.0,0.0602,0.056,0.0818,0.0861,0.1744,0.0,0.0,0.0,0.0,0.0,0.0,0.0,0.0,0.0,-1.0858,-1.578,-1.9734,-2.2558,-2.3073,-2.3875,-2.478,-2.4522,-2.4847,-2.566,-2.5062,-2.4818,-2.4743,-2.4208,-2.2801,-2.0841,-1.9702,-1.8912,-1.8363,0.0,0.0,0.0,0.0,-1.9315,-1.9271,0.0,0.0,0.0,0.0,0.0,0.0,0.0,0.0,0.0,0.0,0.0,0.0,0.0,0.0,0.0,-1.1185,0.0,0.0,0.0,0.0,0.0,0.0,0.0,0.0,0.0,0.0,0.0,1.5071,0.951,0.357,-0.2718,-1.1388,-1.8746,-2.463,-2.3832,-2.0329,-1.4668,-1.1293,-0.6957,0.0,0.0,0.0,0.0,0.0,0.0,0.0,0.0,0.0,0.0,0.0,0.0,0.0,0.0,0.0,0.0,0.0,0.0,0.0,0.0,0.0,0.0,0.0,0.0,0.0,0.0,0.0,0.0,0.0,0.0,0.0,0.0,0.0,0.0,0.0,0.0,0.0,0.0,-0.1791,-0.1852,-0.116,-0.0765,0.0329,0.0,0.0,0.0,0.0,0.0,0.0,0.1295,-0.3413,-0.7379,-1.0341,-1.5343,-1.9169,-2.1633,-2.3041,-2.4132,-2.5037,-2.5341,-2.5607,-2.584,-2.63,-2.5937,-2.5034,-2.5211,-2.4397,-2.2849,-2.0928,-1.9756,-1.9059,-1.8548,-1.9192,-2.0482,-2.0644,-2.0631,-2.0489,0.0,0.0,0.0,0.0,0.0,0.0,0.0,0.0,0.0,0.0,0.0,0.0,0.0,0.0,-1.0329,-1.1794,-1.3484,-1.4839,0.0,0.0,0.0,0.0,0.0,0.0,0.0,0.0,0.0,1.5277,0.7815,0.2218,-0.1813,-1.3364,-2.1881,-2.7344,-2.459,-2.0493,-1.5476,-1.1076,-0.644,-0.1626,0.0,0.0,0.0,0.0,0.0,0.0,0.0,0.0,0.0,0.0,0.0,0.0,0.0,0.0,0.0,0.0,0.0,0.0,0.0,0.0,0.0,0.0,0.0,0.0,0.0,0.0,0.0,0.0,0.0,0.0,0.0,0.0,0.0,0.0,0.0,0.0,0.0,0.0,0.0,-0.1243,-0.0434,0.0,0.0,0.0,0.0,0.3485,0.342,0.2307,-0.0165,-0.1947,-0.4395,-0.7646,-1.1702,-1.5107,-1.7743,-2.0185,-2.3142,-2.6405,-2.534,-2.5937,-2.7911,-2.6942,-2.6138,-2.5494,-2.4718,-2.3711,-2.2671,-2.233,-2.1537,-2.0473,-1.9184,-1.9885,-2.1697,-2.2272,-2.2094,-2.1608,0.0,0.0,0.0,0.0,0.0,0.0,0.0,0.0,0.0,0.0,0.0,0.0,0.0,-0.9515,-1.3181,-1.6066,-1.7711,-1.8753,-1.9234,0.0,0.0,0.0,0.0,0.0,0.0,0.0,0.8896,1.1916,0.8215,0.2494,-0.5228,-1.7604,-2.5109,-2.7997,-2.3314,-1.7146,-1.0071,-0.7262,-0.2326,0.3793,0.6151,0.8263,0.0,0.0,0.0,0.0,0.0,0.0,0.0,0.0,0.0,0.0,0.0,0.0,0.0,0.0,0.0,0.0,0.0,0.0,0.0,0.0,0.0,0.0,0.0,0.0,0.0,0.0,0.0,0.0,0.0,0.0,0.0,0.0,0.0,0.0,0.0,0.0,0.0,-0.4644,-0.2896,0.0,0.0075,0.1687,0.277,0.304,0.2422,0.0952,-0.1472,-0.2794,-0.5216,-0.8995,-1.2088,-1.4534,-1.6348,-1.9545,-2.2252,-2.4279,-2.3911,-2.4915,-2.7001,-2.6008,-2.5277,-2.4742,-2.4446,-2.3388,-2.1835,-2.1789,-2.1504,-2.1103,-2.0689,-2.139,-2.2604,-2.2479,-2.2674,-2.2858,0.0,0.0,0.0,0.0,0.0,0.0,0.0,0.0,0.0,0.0,0.0,0.0178,-0.5701,-1.0925,-1.5343,-1.876,-2.0223,-2.0807,-2.0473,0.0,0.0,0.0,-1.1479,0.0,0.0,0.2022,0.6234,0.9205,0.6165,0.1479,-0.4872,-1.7704,-2.4718,-2.6252,-1.9799,-1.2402,-0.4629,-0.0969,0.3544,0.8382,0.986,1.1344,1.2819,0.0,0.0,0.0,0.0,0.0,0.0,0.0,0.0,0.0,0.0,0.0,0.0,0.0,0.0,0.0,0.0,0.0,0.0,0.0,0.0,0.0,0.0,0.0,0.0,0.0,0.0,0.0,0.0,0.0,0.0,0.0,0.0,0.0,0.0,0.0,-0.7435,-0.6606,-0.4874,-0.3025,-0.1368,0.0501,0.1742,0.1895,0.1283,0.0188,-0.1375,-0.3056,-0.5248,-0.7895,-1.0914,-1.3324,-1.5038,-1.7873,-2.0447,-2.2754,-2.2664,-2.3699,-2.5727,-2.4702,-2.4003,-2.3557,-2.3569,-2.2648,-2.116,-2.1174,-2.1059,-2.0934,-2.1741,-2.2455,-2.3007,-2.2703,-2.2724,-2.2627,0.0,0.0,0.0,0.0,0.0,0.0,0.0,0.0,0.0,0.0,0.2581,-0.0522,-0.5393,-1.1848,-1.689,-1.967,-2.0565,-2.0481,-1.9253,-1.6655,0.0,0.0,0.0,0.0,-0.5498,-0.202,0.2151,0.703,0.1146,-0.1342,-0.0901,-1.3691,-2.071,-2.2174,-1.4108,-0.6607,0.0365,0.7273,1.0813,1.1883,1.3698,1.4739,1.5331,0.0,0.0,0.0,0.0,0.0,0.0,0.0,0.0,0.0,0.0,0.0,0.0,0.0,0.0,0.0,0.0,0.0,0.0,0.0,0.0,0.0,0.0,0.0,0.0,0.0,0.0,0.0,0.0,0.0,0.0,0.0,0.0,0.0,-0.8565,-0.9665,-0.9488,-0.6844,-0.6072,-0.4765,-0.2125,-0.0729,0.0,0.0,0.0,0.0,-0.0101,-0.2614,-0.4016,-0.4016,-0.7895,-1.1132,-1.3689,-1.493,-1.7804,-2.2061,-2.1553,-2.2351,-2.4111,-2.3162,-2.2436,-2.1865,-2.2024,-2.1487,-2.0506,-2.0662,-2.0322,-1.9834,-2.2068,-2.2907,-2.2911,-2.2955,-2.2207,-2.082,0.0,0.0,0.0,0.0,0.0,0.0,0.0,0.0,0.0,0.0,0.1384,-0.3202,-1.2535,-2.0246,-2.4818,-2.4988,-2.2656,-2.0494,-1.8917,0.0,0.0,0.0,0.0,0.0,-0.9615,-0.8322,-0.7857,-0.8227,-1.0458,-1.2524,-1.4438,-1.9144,-2.0436,-1.8458,-1.1424,-0.437,0.2733,0.9792,1.5058,1.8563,1.7908,1.814,1.9002,0.0,0.0,0.0,0.0,0.0,0.0,0.0,0.0,0.0,0.0,0.0,0.0,0.0,0.0,0.0,0.0,0.0,0.0,0.0,0.0,0.0,0.0,0.0,0.0,0.0,0.0,0.0,0.0,0.0,0.0,0.0,0.0,-1.1991,-1.1202,-1.1582,-1.1499,-1.0207,-0.8434,-0.6343,-0.3647,-0.225,-0.1094,-0.01,0.0,-0.0401,-0.141,-0.3115,-0.4418,-0.5425,-0.8293,-1.0237,-1.1044,-1.2924,-1.4982,-1.7221,-1.747,-1.8564,-2.044,-1.9905,-1.9263,-1.8633,-1.9363,-1.8942,-1.7784,-1.8466,-1.864,-1.8532,-1.9125,-2.086,-2.2867,-2.1262,-1.9805,-1.8511,0.0,0.0,0.0,0.0,0.0,0.0,0.0,0.0,0.0,0.0,-0.2763,-0.8337,-1.6669,-2.3044,-2.6435,-2.5747,-2.2775,-1.9809,-1.7199,0.0,0.0,0.0,0.0,-0.9768,-1.1466,-1.2262,-1.3341,-1.4695,-1.5871,-1.7396,-1.9028,-1.7823,-1.6254,-1.4215,-0.8522,-0.2706,0.3182,0.9923,1.5873,2.082,2.1064,2.1669,2.2423,2.2671,2.3049,2.3545,2.4056,2.4587,2.4846,2.3783,0.0,0.0,0.0,0.0,0.0,0.0,0.0,0.0,0.0,0.0,0.0,0.0,0.0,0.0,0.0,0.0,0.0,0.0,0.0,0.0,0.0,0.0,0.0,0.0,-1.2594,-1.4638,-1.3652,-1.4077,-1.3692,-1.1703,-0.9883,-0.7753,-0.5062,-0.3102,-0.1711,-0.0907,-0.0303,-0.0303,-0.1109,-0.2414,-0.3518,-0.4321,-0.6295,-0.7918,-0.9081,-1.0304,-1.2021,-1.4097,-1.4833,-1.5906,-1.7269,-1.7316,-1.7072,0.0,-1.7051,-1.6738,-1.6062,-1.6816,-1.71,0.0,0.0,0.0,0.0,0.0,-1.8367,-1.6402,0.0,0.0,0.0,0.0,0.0,0.0,0.0,0.0,0.0,0.0,0.0,-1.4362,-1.8891,-2.241,-2.4398,-2.4345,-2.2009,-1.8584,0.0,0.0,0.0,-0.5619,-0.8351,-1.0627,-1.2362,-1.4661,-1.5869,-1.5941,-1.7312,-1.8008,-1.7859,-1.294,-1.0595,-1.0404,-0.6502,-0.2377,0.196,0.795,1.3877,1.9502,2.2604,2.4517,2.5567,2.5948,2.6313,2.665,2.7099,2.6985,2.6607,2.6438,0.0,0.0,0.0,0.0,0.0,0.0,0.0,0.0,0.0,0.0,0.0,0.0,0.0,0.0,0.0,0.0,0.0,0.0,0.0,0.0,0.0,0.0,0.0,0.0,-1.3755,-1.6547,-1.5734,-1.6598,-1.5812,-1.1836,-1.0605,-0.8987,-0.6076,-0.3682,-0.2213,-0.2013,-0.0807,0.0,0.0,0.0,0.0,0.0,0.0,-0.5054,-0.7353,-0.7456,-0.9033,-1.1906,-1.2884,-1.3723,-1.43,-1.4899,-1.5112,-1.5024,-1.4872,-1.4852,-1.5006,-1.5571,-1.593,-1.6121,-1.7551,-1.844,-1.9033,-1.9216,-1.7286,-1.4584,0.0,0.0,0.0,0.0,0.0,0.0,0.0,0.0,0.0,-0.3671,-1.0331,-1.639,-2.106,-2.3079,-2.4885,-2.6861,-2.3182,-1.6961,0.0,0.0,-0.6625,-0.7497,-1.0005,-1.2759,-1.5786,-1.6833,-1.8452,-2.0597,-1.8866,-1.8004,-1.789,-1.2936,-1.0613,-1.0531,-0.9716,-0.6561,-0.1545,0.3322,0.9008,1.5012,1.9233,2.3619,2.7713,2.8647,2.905,2.9185,2.9737,3.0263,3.041,2.8631,2.7159,2.5306,2.0669,1.6087,0.0,0.0,0.0,0.0,0.0,0.0,0.0,0.0,0.0,0.0,0.0,0.0,0.0,0.0,0.0,0.0,0.0,0.0,0.0,-1.115,-1.388,-1.5743,-1.7106,-1.7494,-1.6133,-1.2294,-1.1589,-1.0049,-0.6291,-0.451,-0.3215,-0.2113,-0.0807,0.0,0.0,-0.131,-0.1999,-0.1968,-0.3184,-0.4104,-0.4765,-0.5405,-0.6576,-0.8123,0.0,0.0,-1.0673,-1.0861,-1.0697,-1.0452,-1.1832,-1.2778,-1.3403,-1.4906,-1.5968,-1.6688,-1.8175,-1.9079,-1.9344,-1.7109,-1.4984,-1.3347,0.0,0.0,0.0,0.0,0.0,0.0,0.0,0.0,0.0,0.0,-1.2799,-1.8034,-2.1665,-2.2704,-2.3692,-2.5037,-2.0409,0.0,0.0,-0.6267,-0.7562,-0.9053,-1.2226,-1.505,-1.7292,-1.8298,-1.9323,-2.0424,-1.8369,-1.7135,-1.6619,-1.3332,-1.1646,-1.1396,-1.0839,-0.9125,-0.6472,-0.334,0.1774,0.8443,1.609,2.2939,2.8747,3.0235,3.0612,3.0549,3.2131,3.2415,3.1947,3.1279,3.0109,2.8176,2.3829,1.9462,1.4985,0.0,0.0,0.0,0.0,0.0,0.0,0.0,0.0,0.0,0.0,0.0,0.0,0.0,0.0,0.8758,0.0,0.0,-0.4951,-0.9625,-1.2394,-1.4479,-1.5617,-1.5745,-1.4785,-1.2231,-1.1945,-1.0369,-0.6426,-0.482,-0.3715,-0.3015,-0.1711,-0.131,-0.2012,-0.1995,-0.1976,-0.1957,-0.198,-0.2215,-0.2859,-0.3839,-0.4833,-0.6017,-0.7593,-0.8467,-0.8763,-0.919,-0.9319,-0.9171,-1.0396,-1.1158,-1.1607,-1.3421,-1.4882,-1.6141,-1.6874,-1.7313,-1.7317,-1.502,-1.3621,-1.2978,0.0,0.0,0.0,0.0,0.0,0.0,0.0,0.0,0.0,0.0,-1.4714,-1.8964,-2.1038,-2.1399,-2.1283,0.0,0.0,0.0,0.0,-0.592,-0.8091,-1.0202,-1.4238,-1.7025,-1.8218,-1.9221,-1.9339,-1.8574,-1.7356,-1.6149,-1.4906,-1.3518,-1.2531,-1.1955,-1.166,-1.1344,-1.0938,-0.9235,-0.5345,0.058,1.0638,1.9683,2.7444,2.9674,3.0844,3.1562,3.3601,3.373,3.3007,3.3493,3.2578,3.0728,2.7919,2.355,1.8424,1.3273,0.8631,0.0,0.0,0.0,0.0,0.0,0.0,0.0,0.0,0.0,1.157,1.1682,1.0873,0.8203,0.2043,-0.1446,-0.4273,-0.7022,-1.0156,-1.252,-1.3358,-1.3448,-1.2934,-1.1686,-1.1531,-1.0177,-0.6728,-0.522,-0.4418,-0.4418,-0.3106,-0.28,-0.3896,-0.2837,-0.222,-0.2212,-0.1191,-0.1068,-0.2033,-0.2888,-0.3792,-0.4856,-0.6551,-0.7471,-0.7719,-0.8411,-0.8799,-0.8965,-0.9846,-1.0282,-1.0528,-1.2296,-1.3945,-1.5379,-1.5224,-1.5073,-1.473,-1.3389,-1.2905,-1.2881,0.0,0.0,0.0,0.0,0.0,0.0,0.0,0.0,0.0,0.0,0.0,0.0,0.0,0.0,0.0,0.0,0.0,0.0,-0.2693,-0.4555,-0.7375,-1.0887,-1.5261,-1.8168,-1.9449,-1.9723,-1.907,-1.7372,-1.711,-1.5705,-1.3292,-1.2632,-1.1812,-1.0924,-1.3631,-1.4045,-1.2609,-1.101,-0.9873,-0.8531,-0.1013,0.9585,2.1189,2.4585,2.8699,3.2708,3.2997,3.3971,3.5002,3.4095,3.363,3.3364,3.2977,2.7911,2.0944,1.518,1.0906,0.7436,0.4768,0.2103,0.0169,0.03,0.0424,0.155,0.0,0.0,1.2365,1.2886,1.1286,0.8656,0.4835,0.2496,-0.0481,-0.5408,-0.7527,-0.9437,-1.1838,-1.2134,-1.1574,-1.0245,-1.0184,-0.9608,-0.7935,-0.6531,-0.5727,-0.5727,-0.4453,-0.3629,-0.3824,-0.3407,-0.3126,-0.3165,-0.2908,-0.2841,-0.2955,-0.3044,-0.3651,-0.4693,-0.4804,-0.5744,-0.7364,-0.733,-0.7649,-0.8361,-0.9817,-1.0911,-1.1737,-1.31,-1.4369,-1.5332,-1.4556,-1.3789,-1.3179,-1.2953,-1.2905,-1.2881,0.0,0.0,0.0,0.0,0.0,0.0,0.0,0.0,0.0,0.0,0.0,0.0,0.0,0.0,0.0,0.0,0.0,0.0,-0.2488,-0.6134,-1.0471,-1.4974,-1.6944,-1.8363,-1.9254,-1.8866,-1.8049,-1.6826,-1.5808,-1.4815,-1.3827,-1.3397,-1.3777,-1.4987,-1.6301,-1.5998,-1.4348,-1.3666,-1.3407,-1.3271,-1.1909,-0.7565,-0.0939,0.8488,1.6407,2.3257,2.9203,3.1461,0.0,0.0,3.1881,3.2409,3.2403,2.9019,2.385,1.8071,1.3077,0.8639,0.4815,0.1941,0.0,0.0,0.0819,0.2155,0.4378,0.7826,1.046,1.0108,1.0171,0.9275,0.589,0.3454,0.0989,0.0,-0.499,-0.7502,-0.9371,-0.9596,-0.961,-0.9819,-0.9124,-0.8093,-0.681,-0.6224,-0.593,-0.593,-0.5241,-0.5465,-0.689,-0.5445,-0.4858,-0.5513,-0.3919,-0.3066,-0.312,-0.3691,-0.4281,-0.4676,-0.5132,-0.6088,-0.7327,-0.7045,-0.7632,-0.8887,-0.9316,-1.0241,-1.1518,-1.181,-1.253,-1.3314,-1.1637,-1.18,-1.2924,-1.2907,-1.29,-1.2881,0.0,0.0,0.0,0.0,0.0,0.0,0.0,0.0,0.0,0.0,0.0,0.0,0.0,0.0,0.0,0.0,0.0,0.0,0.0,-0.6639,-1.1406,-1.7056,-1.7506,-1.784,-1.829,-1.7656,-1.6818,-1.5782,-1.4491,-1.3843,-1.3713,-1.4379,-1.5411,-1.6698,-1.7967,-1.734,-1.5429,-1.5417,-1.5879,-1.6799,-1.8713,-1.9198,-1.7283,-0.4209,0.5268,1.2902,2.3436,2.7132,0.0,0.0,2.8474,2.9365,2.8997,2.7021,2.3927,1.9118,1.3805,0.8514,0.4365,0.1803,0.0061,-0.0559,0.065,0.2385,0.372,0.66,0.893,0.8844,0.9728,0.9821,0.7411,0.4818,0.2482,0.0794,-0.2195,-0.5109,-0.7201,-0.7299,-0.7691,-0.908,-0.8222,-0.724,-0.6337,-0.6277,-0.6313,-0.6343,-0.62,-0.6858,-0.8717,-0.6834,-0.6303,-0.7408,-0.5199,-0.4084,-0.4398,-0.4883,-0.514,-0.5104,-0.566,-0.6353,-0.7107,-0.7279,-0.8125,-0.9425,-0.915,-0.9721,-1.0828,-1.0436,-1.0675,-1.1206,-0.9993,-1.0759,-1.2565,-1.2803,-1.2881,-1.2881,0.0,0.0,0.0,0.0,0.0,0.0,0.0,0.0,0.0,0.0,0.0,0.0,0.0,0.0,0.0,0.0,0.0,0.0,0.0,-0.4555,-0.791,-1.516,-1.6315,-1.6743,-1.6748,-1.6373,-1.5317,-1.3672,-1.349,-1.2869,-1.1941,-1.535,-1.5579,-1.3322,-1.7802,-1.8101,-1.5401,-1.5428,-1.7051,-1.9666,-1.9509,-2.0305,-2.0303,-0.8477,-0.1219,0.4166,1.5632,0.0,2.2495,2.2521,2.3374,2.4194,2.2979,2.1351,1.9466,1.7212,1.2267,0.6856,0.3919,0.202,0.0296,-0.2018,-0.1135,0.0844,0.3008,0.5997,0.8825,1.0925,1.0893,1.0371,1.0294,0.7763,0.4781,0.2139,0.0692,-0.1602,-0.5522,-0.593,-0.6302,-0.7527,-0.7604,-0.7543,0.0,-0.7426,-0.7567,-0.7704,-0.7449,-0.7377,-0.7468,-0.6956,-0.712,-0.8098,-0.6889,-0.6644,-0.7633,-0.6718,-0.6186,-0.5959,-0.5881,-0.6143,-0.6753,-0.7966,-0.894,-0.9706,-0.9699,-0.9699,-0.9731,-0.9505,-0.9432,-0.9627,-1.0908,-1.1469,-1.167,-1.255,-1.2881,-1.2881,0.0,0.0,0.0,0.0,0.0,0.0,0.0,0.0,0.0,0.0,0.0,0.0,0.0,0.0,0.0,0.0,-1.1969,0.0,0.0,-0.9559,-1.1679,-1.5214,-1.4639,-1.4218,-1.4266,-1.4302,-1.4108,-1.3474,-1.341,-1.3534,-1.3738,-1.5548,-1.6972,-1.8056,-1.9052,-1.9878,-2.0505,-2.052,-2.0136,-1.941,-1.8562,-1.9031,-1.9902,-1.6961,-1.2839,-0.7266,0.0,0.0,2.038,2.0525,2.0845,2.0889,1.9037,1.8028,1.6766,1.2618,0.8541,0.5031,0.3268,0.1136,-0.1068,-0.3059,-0.1689,0.056,0.1932,0.5179,0.8178,0.9336,0.9606,0.9423,0.8706,0.6718,0.4617,0.2937,0.1051,-0.089,-0.301,-0.4743,-0.5914,-0.6272,-0.6941,0.0,0.0,0.0,0.0,-0.7509,-0.7244,-0.7467,-0.8363,-0.731,-0.7188,-0.8319,-0.7659,-0.7343,-0.7434,-0.7218,-0.6986,-0.6736,-0.6521,-0.6461,-0.6536,-0.7979,-0.8727,-0.8955,-0.9238,-0.9385,-0.9365,-0.9078,-0.8991,-0.9058,-0.9516,-1.0419,-1.1486,-1.1501,-1.2098,-1.2881,0.0,0.0,0.0,0.0,0.0,0.0,0.0,0.0,0.0,0.0,0.0,0.0,0.0,0.0,0.0,0.0,0.0,-1.2814,0.0,0.0,-1.5093,-1.4522,-1.3453,-1.2926,-1.2958,-1.3194,-1.3271,-1.3201,-1.3201,-1.3614,-1.4436,-1.5979,-1.8104,-2.0625,-2.0632,-2.215,-2.4612,-2.2723,-2.096,-1.9414,-1.8536,-1.877,-1.9784,-2.1171,-1.8609,0.0,0.0,0.0,1.4505,1.7518,1.799,1.6853,1.4506,1.374,1.3081,0.9799,0.6323,0.337,0.2332,0.0122,-0.2373,-0.4616,-0.3155,-0.0826,0.054,0.404,0.7279,0.8669,0.8924,0.8646,0.7915,0.6513,0.4949,0.3661,0.2131,0.0465,-0.126,-0.3218,-0.4659,-0.5487,-0.6204,-0.6834,0.0,0.0,0.0,-0.7356,-0.7143,-0.7389,-0.8185,-0.7616,-0.7757,-0.881,-0.8516,-0.836,-0.8432,-0.8144,-0.7618,-0.6952,-0.6326,-0.6124,-0.6241,-0.71,-0.7806,-0.8267,-0.8546,-0.8806,-0.9072,-0.8884,-0.8804,-0.8804,-0.9061,-0.9991,-1.1243,-1.1191,-1.1891,-1.2881,0.0,0.0,0.0,0.0,0.0,0.0,0.0,0.0,0.0,0.0,0.0,0.0,0.0,0.0,0.0,0.0,0.0,0.0,0.0,0.0,0.0,-1.327,-1.3027,-1.2936,-1.2903,-1.3023,-1.3067,-1.3023,-1.3023,-1.3321,-1.3927,-1.6558,-1.8765,-2.0643,-2.233,-2.4696,-2.6953,-2.2083,-1.9917,-1.977,-1.9339,-1.9476,-2.0047,-2.0762,0.0,0.0,0.0,-0.0317,0.5886,1.37,1.4722,1.2246,0.9641,0.8779,0.8792,0.879,0.5626,0.1904,0.1017,-0.1112,-0.3796,-0.6692,-0.5708,-0.3478,-0.1115,0.2441,0.6055,0.8849,0.875,0.8163,0.8163,0.7142,0.5835,0.4361,0.3677,0.2435,-0.0273,-0.1404,-0.2786,0.0,0.0,0.0,0.0,0.0,0.0,-0.7339,0.0,-0.7129,-0.7129,-0.7774,-0.8647,-0.9609,-0.9431,-0.9686,-1.039,-0.9325,-0.8074,-0.6719,-0.5542,-0.5244,-0.5764,-0.5575,-0.6303,-0.767,-0.767,-0.8103,-0.8804,-0.8804,-0.8804,-0.8857,-0.951,-1.0167,-1.0864,-1.1516,-1.2236,-1.2881,0.0,0.0,0.0,0.0,0.0,0.0,0.0,0.0,0.0,0.0,0.0,0.0,0.0,0.0,0.0,0.0,0.0,0.0,0.0,0.0,0.0,0.0,0.0,0.0,0.0,0.0,0.0,-1.4297,-1.4904,-1.5081,-1.4799,-1.6894,-1.8103,-1.8692,-2.189,-2.3192,-2.2979,-2.2701,-2.1493,-1.9585,0.0,-1.9246,-2.151,0.0,0.0,0.0,0.0,0.2698,0.8353,1.2426,1.2036,0.9746,0.9047,0.8824,0.8809,0.882,0.4735,-0.03,-0.2979,-0.4592,-0.6252,-0.9138,-0.8866,-0.7048,-0.3868,-0.0527,0.3106,0.7185,0.8088,0.8027,0.7493,0.6951,0.5738,0.3097,0.3088,0.0,0.0192,-0.1998,0.0,-0.4076,0.0,-0.6905,-0.7064,-0.7105,0.0,0.0,-0.7065,-0.6983,-0.6983,-0.7712,-0.8264,-0.8436,-0.9497,-1.009,-1.0044,-0.9202,-0.8324,-0.7269,-0.6139,-0.5644,-0.5764,-0.5575,-0.5977,-0.6912,-0.7456,-0.8103,-0.8804,-0.8804,-0.8804,-0.8804,-0.9008,-0.9762,-1.0813,-1.1015,-1.1841,-1.2881,0.0,0.0,0.0,0.0,0.0,0.0,0.0,0.0,0.0,0.0,0.0,0.0,0.0,0.0,0.0,0.0,0.0,0.0,0.0,0.0,0.0,0.0,0.0,0.0,0.0,0.0,0.0,0.0,0.0,0.0,-1.5274,-1.6587,-1.7601,-1.8409,-2.0706,-2.2012,-2.23,-2.1018,0.0,0.0,0.0,0.0,0.0,0.0,0.0,0.0,-0.109,0.2982,0.7494,1.1343,1.0949,0.8959,0.9986,0.8928,0.6954,0.5239,0.2388,-0.1117,-0.5212,-0.7141,-0.8626,-1.1301,-1.1853,-1.0701,-0.7106,-0.3271,0.0824,0.5208,0.7093,0.777,0.6996,0.6614,0.5613,0.0,0.0,0.0,0.0829,-0.1465,-0.3112,0.0,-0.523,0.0,-0.6967,-0.6987,-0.6946,0.0,-0.6936,-0.6929,-0.6929,-0.8106,-0.867,-0.8471,-1.0171,-1.0816,-1.0232,-0.9259,-0.8442,-0.7817,-0.645,-0.5901,-0.6151,-0.5703,-0.6086,-0.7128,0.0,-0.8103,-0.8804,-0.8804,-0.8804,-0.8804,-0.9113,-0.9865,-1.0864,-1.1116,-1.194,-1.292,0.0,0.0,0.0,0.0,0.0,0.0,0.0,0.0,0.0,0.0,0.0,0.0,0.0,0.0,0.0,0.0,0.0,0.0,0.0,0.0,0.0,0.0,0.0,0.0,0.0,0.0,0.0,0.0,0.0,0.0,0.0,0.0,0.0,0.0,0.0,0.0,0.0,0.0,0.0,0.0,0.0,0.0,0.0,0.0,0.0,0.0,-0.1536,0.1628,0.53,1.0181,1.0716,0.9631,1.1534,0.9113,0.4748,0.0751,-0.0568,-0.1857,-0.6671,-0.9029,-1.0812,-1.3177,-1.4374,-1.3986,-1.0226,-0.5654,-0.0935,0.3353,0.6196,0.7616,0.675,0.6377,0.5571,0.3744,0.0,0.2316,0.1286,-0.0674,-0.2382,-0.3449,-0.4659,-0.5703,-0.6813,-0.6776,-0.6702,-0.6702,-0.6803,-0.6868,-0.6868,-0.8545,-0.9483,-0.943,-1.0916,-1.1309,-1.0571,-0.9408,-0.8658,-0.8335,-0.6714,-0.6211,-0.6696,-0.5869,-0.6303,-0.7723,-0.7723,0.0,-0.8804,-0.8804,-0.8804,-0.8857,-0.9562,-1.0218,-1.0864,-1.1566,-1.2295,-1.29,0.0,0.0,0.0,0.0,0.0,0.0,0.0,0.0,0.0,0.0,-0.7383,-0.8166,0.0,0.0,0.0,0.0,0.0,0.0,0.0,0.0,0.0,0.0,0.0,0.0,0.0,0.0,0.0,0.0,0.0,0.0,0.0,0.0,0.0,0.0,0.0,0.0,0.0,0.0,0.0,0.0,0.0,0.0,0.0,0.0,0.0,0.0,-0.392,-0.0056,0.5285,0.8382,1.0445,1.1674,1.1594,0.9006,0.5226,0.0863,-0.2517,-0.5529,-0.8526,-1.0795,-1.2786,-1.4869,-1.5818,-1.531,-1.1654,-0.7077,-0.2238,0.2515,0.6226,0.8209,0.6858,0.6773,0.5944,0.2924,0.2567,0.2151,0.0441,-0.1769,-0.3361,0.0,-0.5285,-0.6619,-0.6753,-0.6715,0.0,0.0,0.0,-0.6552,-0.6552,-0.8396,-0.9949,-1.0962,-1.0863,-1.0595,-1.02,-0.9479,-0.9108,-0.901,-0.7285,-0.6841,-0.745,-0.614,-0.6303,-0.7723,-0.7723,0.0,-0.8804,-0.8804,-0.8804,-0.8857,-0.9562,-1.0218,-1.0864,-1.1566,-1.2295,-1.29,0.0,0.0,0.0,0.0,0.0,0.0,0.0,0.0,0.381,-0.0955,0.0923,0.1416,-0.2053,-0.3713,0.0,0.0,0.0,0.0,0.0,0.0,0.0,0.0,0.0,0.0,0.0,0.0,-1.8607,-1.7979,0.0,0.0,0.0,0.0,0.0,0.0,0.0,0.0,0.0,0.0,0.0,0.0,0.0,0.0,0.0,0.0,0.0,0.0,0.0,-0.2581,0.059,0.4297,0.6332,0.7502,0.9009,0.7755,0.5052,0.1584,-0.1779,-0.5132,-0.8477,-1.157,-1.4279,-1.6386,-1.7231,-1.6649,-1.3346,-0.834,-0.3017,0.176,0.5668,0.7883,0.6804,0.6793,0.6066,0.3303,0.2705,0.2103,0.0745,-0.1754,-0.3382,-0.3328,-0.5291,-0.6634,-0.6485,-0.6471,-0.6403,0.0,0.0,-0.6393,-0.6468,-0.8071,-0.9403,-1.0467,-1.0373,-1.0187,-0.9893,-0.9459,-0.911,-0.8957,-0.7728,-0.7563,-0.8209,-0.7122,-0.7224,-0.8262,-0.8262,0.0,-0.8804,-0.8804,-0.9008,-0.9361,-1.0064,-1.0712,-1.1416,-1.2089,-1.2852,-1.3525,0.0,0.0,0.0,0.0,0.0,0.0,0.0,0.978,0.7996,0.3269,0.8577,1.0663,0.5035,0.1276,-0.1826,0.0,0.0,0.0,0.0,0.0,0.0,0.0,0.0,0.0,0.0,0.0,0.0,-1.7814,-1.7726,0.0,0.0,0.0,0.0,0.0,-1.144,0.0,0.0,0.0,0.0,0.0,0.0,0.0,0.0,0.0,0.0,0.0,0.0,-0.4754,-0.3669,0.0122,0.1936,0.3073,0.5561,0.5663,0.4392,0.2287,-0.0899,-0.4516,-0.7857,-1.1764,-1.5262,-1.7012,-1.7701,-1.7209,-1.415,-0.8894,-0.3351,0.1069,0.5019,0.745,0.6529,0.6613,0.6059,0.0,0.2877,0.2124,0.1217,-0.1467,-0.3331,-0.3283,-0.5191,0.0,-0.6274,-0.6338,0.0,0.0,0.0,0.0,-0.6681,-0.7578,-0.8447,-0.9369,-0.9438,-0.9398,-0.9118,-0.8951,-0.8754,-0.854,-0.799,-0.8103,-0.8752,-0.8049,-0.8103,-0.8804,-0.8804,0.0,0.0,-0.8804,-0.9211,-0.9865,-1.0517,-1.1216,-1.1873,-1.2618,-1.3316,-1.3879,0.0,0.0,0.0,0.0,0.0,0.0,0.0,1.3903,1.3352,1.1259,1.4166,1.6352,1.6085,0.4341,-0.4679,0.0,0.0,0.0,0.0,0.0,0.0,0.0,0.0,0.0,0.0,0.0,0.0,-1.7464,-1.6831,0.0,0.0,0.0,0.0,0.0,0.0,-0.9055,-0.7053,0.0,0.0,0.0,0.0,0.0,0.0,0.0,0.0,0.0,0.0,-0.5521,-0.3337,-0.2756,-0.029,0.2523,0.2265,0.2704,0.3149,0.2374,-0.1679,-0.6188,-0.7479,-1.1416,-1.5307,-1.5954,-1.6317,-1.5802,-1.286,-0.7992,-0.3059,0.0485,0.4692,0.7283,0.5869,0.6159,0.5909,0.0,0.0,0.1938,0.1226,-0.1489,-0.336,-0.3144,0.0,0.0,-0.6274,-0.6338,0.0,0.0,0.0,0.0,-0.7389,-0.7174,-0.7409,-0.8317,-0.7859,-0.7512,-0.7348,-0.7669,-0.78,-0.7777,-0.7723,-0.8103,-0.8752,-0.8049,-0.8103,-0.8804,-0.8804,0.0,0.0,-0.8804,-0.9211,-0.9865,-1.0517,-1.1216,-1.1873,-1.2618,-1.2929,-1.322,0.0,0.0,0.0,0.0,0.0,0.0,1.21,1.4943,1.6576,1.4015,1.7449,2.0225,2.0411,0.6941,-0.6506,0.0,0.0,0.0,0.0,0.0,0.0,0.0,0.0,0.0,0.0,0.0,0.0,-1.5954,-1.4626,0.0,0.0,0.0,0.0,0.0,0.0,-0.8294,-0.6622,0.0,0.0,0.0,0.0,0.0,0.0,0.0,0.0,0.0,0.0,0.0,-0.6284,-0.4463,-0.2858,-0.1402,-0.0344,-0.0058,-0.0059,0.0063,-0.2754,-0.6352,-0.8328,-1.1642,-1.4815,-1.6024,-1.5563,-1.4327,-1.2385,-0.7931,-0.3164,0.0379,0.3558,0.5688,0.5538,0.576,0.5368,0.0,0.0,0.0,0.1174,-0.1263,-0.3033,-0.3115,-0.49,0.0,0.0,0.0,0.0,0.0,0.0,0.0,-0.6777,-0.7189,-0.7727,-0.8515,-0.8103,-0.7806,-0.7768,-0.7302,-0.702,-0.702,-0.7509,-0.783,-0.8156,-0.8321,-0.8533,-0.8804,-0.8804,0.0,0.0,-0.9263,-0.9814,-1.0466,-1.1166,-1.1832,-1.251,-1.2774,-1.3344,-1.4082,0.0,0.0,0.0,0.0,0.0,1.2889,0.7361,1.0579,1.287,1.0625,1.6898,2.1534,2.1536,0.7119,-0.8531,-2.3378,0.0,0.0,0.0,0.0,0.0,0.0,0.0,0.0,0.0,0.0,0.0,-1.3153,-1.1808,-1.0611,0.0,0.0,-0.8047,-0.7009,0.0,0.0,0.0,0.0,0.0,0.0,0.0,0.0,0.0,0.0,0.0,0.0,0.0,0.0,0.0,0.0,0.0,-0.4416,-0.2654,-0.2437,-0.2649,-0.1581,-0.347,-0.6281,-0.8161,-1.1036,-1.3719,-1.4755,-1.3969,-1.2598,-1.1156,-0.7285,-0.3074,0.0109,0.2692,0.4539,0.5105,0.521,0.4769,0.3508,0.0,0.1594,0.0902,-0.1221,-0.2864,-0.3263,0.0,-0.5688,0.0,-0.5837,0.0,0.0,0.0,0.0,-0.668,-0.7385,-0.7901,-0.8214,-0.7769,-0.7448,-0.7372,-0.6658,-0.6258,-0.6258,-0.702,-0.7396,-0.7396,-0.8156,-0.848,-0.848,-0.8699,0.0,0.0,-0.951,-1.0218,-1.0864,-1.1566,-1.2236,-1.2929,-1.3104,-1.3695,-1.4468,0.0,0.0,0.0,0.0,0.0,0.0,0.0,-0.0539,0.0179,0.0166,1.1561,1.9708,1.9741,0.4065,-1.0973,-2.2236,0.0,0.0,0.0,0.0,0.0,0.0,0.0,0.0,0.0,0.0,0.0,-0.8777,-0.8595,-0.7856,-0.6531,-0.6536,-0.6172,-0.5608,0.0,0.0,0.0,0.0,0.0,0.0,0.0,0.0,0.0,0.0,0.0,0.0,0.0,0.0,0.0,0.0,0.0,0.0,0.0,-0.4354,-0.3926,-0.1728,-0.3615,-0.6418,-0.6423,-0.9178,-1.1936,-1.1488,-1.1161,-1.0558,-0.8762,-0.5668,-0.2607,-0.044,0.2369,0.4433,0.4512,0.4443,0.4155,0.3398,0.2063,0.0,0.0116,-0.1565,-0.2983,0.0,0.0,-0.5423,-0.5579,0.0,0.0,0.0,0.0,0.0,-0.725,-0.7662,-0.7593,-0.6914,-0.623,-0.5736,-0.5546,-0.5542,-0.5487,-0.5542,-0.6258,-0.6588,-0.6642,-0.7396,-0.7723,0.0,0.0,0.0,0.0,-0.951,-1.0218,-1.0864,-1.1566,-1.2236,-1.2968,-1.3552,-1.3815,-1.4003,0.0,0.0,0.0,0.0,0.0,0.0,0.0,-0.9657,-1.023,-0.1196,0.5658,0.5383,-0.5983,-0.8186,-1.1992,-1.9846,0.0,0.0,0.0,0.0,0.0,0.0,0.0,0.0,0.0,0.0,0.0,-0.6759,-0.6077,-0.5801,-0.5896,-0.5362,-0.5042,-0.4886,-0.6308,0.0,0.0,0.0,0.0,0.0,0.0,0.0,0.0,0.0,0.0,0.0,0.0,0.0,0.0,0.0,0.0,0.0,0.0,0.0,0.0,-0.5089,-0.545,-0.6356,-0.7391,-0.8697,-0.984,-1.0307,-0.9763,-0.885,-0.7823,-0.5321,-0.2804,-0.1106,0.0777,0.2282,0.2843,0.2894,0.267,0.1896,0.1003,0.0,0.0,0.0,0.0,-0.3887,-0.4888,-0.5494,0.0,0.0,0.0,0.0,0.0,0.0,-0.7014,-0.7472,-0.7978,-0.8435,-0.7096,-0.6325,-0.6258,-0.5277,-0.4842,-0.4842,-0.5492,-0.5873,-0.5869,-0.6637,-0.7235,0.0,0.0,0.0,0.0,-0.951,-1.0218,-1.0864,-1.1566,-1.2236,-1.2968,-1.36,-1.405,-1.4514,0.0,0.0,0.0,0.0,0.0,0.0,0.0,-1.6076,-1.7501,-0.8607,-0.5596,-0.7872,-1.737,-1.4799,-1.3539,-1.6397,0.0,0.0,0.0,0.0,0.0,0.0,0.0,0.0,0.0,-0.6441,-0.6181,-0.5886,-0.4938,-0.4562,-0.4776,-0.4288,-0.4177,-0.4501,-0.5982,0.0,0.0,0.0,0.0,0.0,0.0,0.0,-0.8888,0.0,0.0,0.0,0.0,0.0,0.0,0.0,0.0,0.0,0.0,0.0,0.0,0.0,-0.6838,-0.6369,-0.706,-0.7383,-0.7542,-0.7835,-0.735,-0.6724,-0.623,-0.4702,-0.2938,-0.1385,-0.0167,0.1004,0.2007,0.1728,0.1226,0.0781,-0.0167,-0.1168,0.0,0.0,0.0,-0.42,0.0,0.0,0.0,0.0,0.0,0.0,0.0,0.0,-0.6337,-0.7204,-0.8015,-0.8622,-0.7312,-0.6588,-0.6588,-0.5226,-0.4519,-0.4519,-0.4948,-0.5109,-0.5164,-0.5873,-0.6416,0.0,0.0,0.0,0.0,-0.9277,-1.0101,-1.0855,-1.1407,-1.2155,-1.3017,-1.3826,-1.4376,-1.4835,0.0,0.0,0.0,0.0,0.0,0.0,0.0,0.0,-2.1724,-2.0114,-1.9769,-1.8824,-1.6587,-1.6305,-1.5176,-1.2392,0.0,0.0,0.0,0.0,0.0,0.0,0.0,0.0,0.0,-0.6178,-0.5955,-0.5955,-0.4973,-0.4213,-0.3622,-0.3508,-0.3834,-0.4645,-0.6027,0.0,0.0,0.0,0.0,0.0,0.0,0.0,0.0,0.0,0.0,0.0,0.0,0.0,0.0,0.0,0.0,0.0,0.0,0.0,0.0,0.0,0.0,0.0,0.0,-0.5337,-0.5171,-0.445,-0.43,-0.4316,-0.4316,-0.3834,0.0,-0.1554,-0.0666,0.0278,0.1615,0.0779,-0.0167,-0.0167,-0.1392,-0.2837,0.0,-0.4005,0.0,0.0,-0.484,0.0,0.0,0.0,0.0,0.0,0.0,0.0,-0.5605,-0.6832,-0.7641,-0.7747,-0.7031,-0.6602,-0.6671,-0.5303,-0.4594,-0.4594,-0.4549,-0.4556,-0.4556,-0.521,-0.5538,0.0,0.0,0.0,0.0,-0.8883,-0.986,-1.0756,-1.1172,-1.1968,-1.3025,-1.4236,-1.4652,-1.4789,0.0,0.0,0.0,0.0,0.0,0.0,0.0,0.0,0.0,0.0,-2.0309,-1.8673,-1.6964,-1.5361,-1.3463,0.0,0.0,0.0,0.0,0.0,0.0,0.0,0.0,0.0,0.0,-0.6499,-0.6416,-0.6416,-0.5647,-0.5429,-0.5814,-0.5265,-0.5374,-0.614,-0.7015,0.0,0.0,0.0,0.0,0.0,0.0,0.0,0.0,0.0,0.0,0.0,-1.1868,-1.0713,0.0,0.0,0.0,0.0,0.0,0.0,0.0,0.0,-0.647,-0.5479,-0.4197,0.0,-0.3721,-0.2888,-0.3169,-0.3616,0.0,-0.3453,-0.3231,-0.2839,-0.2171,-0.156,-0.1225,-0.1448,-0.1671,-0.1671,-0.2941,-0.3987,-0.4371,0.0,0.0,-0.4999,-0.4962,0.0,0.0,0.0,0.0,0.0,0.0,-0.527,-0.6258,-0.647,-0.7052,-0.8216,-0.7274,-0.6862,-0.712,-0.6056,-0.5471,-0.5471,-0.5112,-0.4967,-0.4971,-0.5317,-0.5814,0.0,0.0,0.0,-0.8241,-0.8247,-0.8904,-1.0012,-1.0449,-1.1357,-1.2553,-1.4106,-1.4422,-1.4136,0.0,0.0,0.0,0.0,0.0,0.0,0.0,0.0,0.0,0.0,0.0,0.0,0.0,0.0,0.0,0.0,0.0,0.0,0.0,0.0,0.0,0.0,0.0,0.0,0.0,-0.7202,-0.7581,-0.7581,-0.7143,-0.6832,-0.6588,-0.6199,-0.6416,-0.7128,-0.7883,0.0,0.0,0.0,0.0,0.0,-1.01,0.0,0.0,0.0,0.0,0.0,-1.2609,-1.1495,0.0,-0.9169,-0.8031,-0.7128,0.0,0.0,0.0,0.0,-0.6091,-0.5261,-0.4094,-0.3332,-0.2676,-0.1898,-0.2287,-0.3007,-0.3724,-0.411,-0.433,-0.432,-0.3984,-0.3597,-0.3264,-0.3487,-0.3707,-0.3707,-0.4645,0.0,0.0,0.0,-0.5959,-0.5029,-0.486,0.0,0.0,0.0,0.0,0.0,0.0,-0.504,-0.577,-0.6263,-0.6839,-0.7653,-0.7323,-0.7121,-0.7049,-0.6222,-0.5819,-0.5819,-0.5539,-0.5439,-0.5393,-0.5298,-0.5453,0.0,0.0,0.0,-0.729,-0.7317,-0.8101,-0.9382,-0.9727,-1.0701,-1.1995,-1.345,-1.3774,-1.3595,0.0,0.0,0.0,0.0,0.0,0.0,0.0,0.0,0.0,0.0,0.0,0.0,0.0,0.0,0.0,0.0,0.0,0.0,0.0,0.0,0.0,0.0,0.0,-0.4469,-0.6569,-0.8214,-0.9037,-0.8985,-0.8776,-0.8106,-0.6912,-0.6804,-0.7128,-0.7883,-0.8533,0.0,0.0,0.0,0.0,0.0,-1.0261,0.0,0.0,0.0,0.0,0.0,0.0,0.0,0.0,-0.9386,-0.8112,-0.7224,-0.6524,0.0,0.0,0.0,0.0,0.0,-0.4433,-0.3345,-0.2245,-0.1454,-0.1896,-0.2837,-0.4097,-0.514,-0.5801,-0.5671,-0.577,-0.5604,-0.4888,-0.5225,0.0,-0.5671,0.0,0.0,-0.6239,-0.6672,-0.653,-0.5201,0.0,0.0,0.0,0.0,0.0,0.0,0.0,-0.4857,-0.5054,-0.6031,-0.6675,-0.6913,-0.7186,-0.7173,-0.6748,-0.6223,-0.5939,-0.5908,-0.5879,-0.5846,-0.5816,-0.5411,-0.5148,-0.5099,0.0,0.0,-0.6102,-0.6424,-0.7399,-0.8799,-0.918,-1.0065,-1.1343,-1.2583,-1.2971,-1.296,0.0,0.0,0.0,0.0,0.0,0.0,0.0,0.0,0.0,0.0,0.0,0.0,0.0,0.0,0.0,0.0,0.0,0.0,0.0,0.0,0.0,0.0,-0.1812,-0.5108,-0.7223,-0.9372,-1.0434,-1.0402,-0.9238,-0.8593,-0.8427,-0.7658,-0.7765,-0.8646,-0.8752,-0.8804,-0.8804,0.0,0.0,0.0,0.0,0.0,0.0,0.0,0.0,0.0,0.0,0.0,0.0,-0.9386,-0.7441,-0.572,-0.4973,0.0,0.0,0.0,0.0,0.0,-0.3674,-0.3414,-0.3177,-0.2247,-0.3056,-0.4097,-0.4371,-0.5882,-0.7132,-0.6573,-0.687,-0.7074,-0.6401,-0.6357,-0.6416,0.0,0.0,-0.7663,0.0,0.0,-0.7307,0.0,0.0,0.0,0.0,0.0,0.0,0.0,0.0,-0.466,-0.578,-0.5746,-0.6241,-0.7348,-0.6965,-0.67,-0.6624,-0.6774,-0.6689,-0.646,-0.6352,-0.6175,-0.599,-0.6357,-0.6256,-0.5868,0.0,-0.6436,-0.651,-0.6343,-0.6993,-0.8127,-0.8985,-0.9701,-1.0496,-1.2011,-1.2251,-1.1864,0.0,0.0,0.0,0.0,0.0,0.0,0.0,0.0,0.0,0.0,0.0,0.0,0.0,0.0,0.0,0.0,0.0,0.0,0.0,0.0,0.0,0.0,-0.4171,-0.8003,-0.8665,-1.0688,-1.1751,-1.176,-1.0277,-0.9256,-0.8804,-0.8362,-0.8368,-0.8804,-0.8804,-0.8804,-0.8804,0.0,0.0,0.0,0.0,0.0,0.0,0.0,0.0,0.0,0.0,0.0,0.0,0.0,-0.7259,-0.5283,-0.4155,0.0,0.0,0.0,0.0,0.0,-0.3956,-0.4278,-0.4531,-0.4067,-0.4382,-0.5133,-0.6416,-0.7651,-0.8536,-0.881,-0.8835,0.0,0.0,0.0,-0.7777,-0.7777,0.0,-0.841,-0.8052,-0.7816,0.0,0.0,0.0,0.0,0.0,0.0,0.0,0.0,0.0,0.0,-0.5565,-0.5789,-0.6247,-0.7001,-0.6734,-0.6513,-0.6398,-0.6486,-0.6486,-0.6398,-0.6302,-0.6231,-0.6125,-0.6186,-0.5919,-0.5395,0.0,-0.541,-0.5444,-0.5609,-0.6215,-0.7083,-0.8146,-0.8826,-0.9392,-1.0724,-1.1191,-1.1227,0.0,0.0,0.0,0.0,0.0,0.0,0.0,0.0,0.0,0.0,0.0,0.0,0.0,0.0,0.0,0.0,0.0,0.0,0.0,0.0,0.1692,-0.0824,-0.8012,-1.1253,-0.9774,-1.1715,-1.2647,-1.2398,-1.1022,-0.9821,-0.8804,-0.8804,-0.8804,-0.8811,-0.8956,-0.9061,-0.9061,-0.9211,-0.9562,0.0,0.0,0.0,0.0,0.0,0.0,0.0,0.0,0.0,0.0,0.0,0.0,0.0,0.0,0.0,0.0,-0.2899,-0.3176,-0.3511,-0.4453,-0.514,-0.5652,-0.5932,-0.5962,-0.6444,-0.8422,-0.9442,-1.0163,-1.0954,0.0,0.0,0.0,-0.9313,0.0,-0.8898,-0.9038,-0.886,-0.8159,0.0,0.0,0.0,0.0,0.0,0.0,0.0,0.0,0.0,0.0,0.0,-0.548,-0.5964,-0.6312,-0.66,-0.6526,-0.6384,-0.6095,-0.6021,-0.6021,-0.6088,-0.6265,-0.6265,-0.6065,-0.6072,-0.5585,-0.4833,-0.4673,-0.4496,-0.4418,-0.5024,-0.5653,-0.6307,-0.7454,-0.8231,-0.8832,-0.967,-1.0302,-1.0794,0.0,0.0,0.0,0.0,0.0,0.0,0.0,0.0,0.0,0.0,0.0,0.0,0.0,0.0,0.0,0.0,0.0,0.0,0.0,0.0,-0.0871,-0.7838,-1.3259,-1.402,-0.9632,-1.2132,-1.2839,-1.1495,-1.1013,-1.0075,-0.8804,-0.8804,-0.8804,-0.8804,-0.9458,-0.9718,-0.9762,-1.0415,-1.0661,-1.0762,0.0,0.0,0.0,0.0,0.0,0.0,0.0,0.0,0.0,0.0,0.0,0.0,0.0,0.0,-0.223,-0.2286,-0.2788,-0.3619,-0.5046,-0.5617,-0.6049,-0.7236,-0.799,-0.8579,-0.9187,-1.0846,-1.2219,-1.2062,0.0,0.0,0.0,-0.956,-0.8891,-0.911,-0.9005,-0.8871,0.0,0.0,0.0,0.0,0.0,0.0,0.0,0.0,0.0,0.0,0.0,0.0,-0.6093,-0.6184,-0.6312,-0.66,-0.6371,-0.6082,-0.5745,-0.5478,-0.5478,-0.5745,-0.6442,-0.6392,-0.5765,-0.669,-0.6175,-0.4643,-0.5074,-0.4853,-0.4285,-0.5009,-0.5653,-0.6307,-0.7454,-0.8537,-0.9444,-0.9524,-0.9881,-1.04,0.0,0.0,0.0,0.0,0.0,0.0,0.0,0.0,0.0,0.0,0.0,0.0,0.0,0.0,0.0,0.0,0.0,0.0,0.0,0.0,-0.4022,-0.6027,-1.1684,-1.2997,-0.9128,-1.1195,-1.225,-1.2218,-1.043,-0.9284,-0.8773,-0.8771,-0.8784,-0.8821,-0.9664,-1.0182,-1.0375,-1.1082,-1.1859,-1.2648,-1.2888,-1.3243,0.0,0.0,0.0,0.0,0.0,0.0,0.0,0.0,-0.7612,-0.5283,-0.3984,-0.2947,-0.2286,-0.2732,-0.3121,-0.3674,-0.5101,-0.6182,-0.7144,-0.8084,-0.9511,-1.0624,-1.0668,-1.1755,-1.2788,-1.2963,-1.2219,0.0,0.0,0.0,-0.9051,-0.8985,-0.9031,-0.9051,0.0,0.0,0.0,0.0,0.0,0.0,0.0,0.0,0.0,0.0,0.0,0.0,-0.6184,-0.599,-0.6021,-0.6333,-0.6032,-0.5876,-0.582,-0.5737,-0.5855,-0.6197,-0.5974,-0.571,-0.5458,-0.6027,-0.5714,-0.4774,-0.4834,-0.4531,-0.4012,-0.4841,-0.5178,-0.533,-0.6402,-0.7602,-0.8686,-0.8686,-0.9378,-1.039,0.0,0.0,0.0,0.0,0.0,0.0,0.0,0.0,0.0,0.0,0.0,0.0,0.0,0.0,0.0,0.0,0.0,0.0,0.0,-1.1387,-0.8981,-0.7595,-1.0535,-1.1137,-0.8875,-1.0011,-1.0939,-1.1498,-0.968,-0.8791,-0.8799,-0.9205,-0.9138,-0.8849,-0.9487,-1.0351,-1.1405,-1.2423,-1.3294,-1.3996,-1.3996,-1.4297,0.0,0.0,0.0,0.0,0.0,0.0,0.0,0.0,-0.8254,-0.6304,-0.5124,-0.3874,-0.3,-0.3503,-0.3643,-0.3893,-0.5412,-0.6823,-0.8034,-0.8815,-1.0522,-1.1959,-1.1716,-1.2492,-1.3321,-1.3503,-1.2324,-1.0748,-0.8805,0.0,0.0,0.0,-0.881,0.0,0.0,0.0,0.0,0.0,0.0,0.0,0.0,0.0,0.0,0.0,0.0,0.0,0.0,-0.6013,-0.6059,-0.6242,-0.602,-0.5956,-0.6098,-0.6098,-0.6152,-0.6305,-0.5765,-0.5554,-0.5686,-0.6102,-0.5813,-0.4994,-0.5015,-0.4565,-0.3868,-0.4768,-0.5126,-0.521,-0.6202,-0.716,-0.7986,-0.8447,-0.9312,-1.0418,0.0,0.0,0.0,0.0,0.0,0.0,0.0,0.0,0.0,0.0,0.0,0.0,0.0,0.0,0.0,0.0,0.0,0.0,0.0,-1.707,-1.58,-1.431,-1.0781,-0.8837,-0.8783,-0.881,-0.8804,-0.8804,-0.8804,-0.8804,-0.8811,-1.0023,-0.9956,-0.8799,-0.8843,-1.0268,-1.2812,-1.4529,-1.5082,-1.4709,-1.4709,-1.4698,-1.4698,0.0,0.0,0.0,0.0,0.0,0.0,0.0,-0.9283,-0.8351,-0.6196,-0.5015,-0.4426,-0.4426,-0.4214,-0.44,-0.6143,-0.7454,-0.8527,-0.957,-1.1162,-1.2387,-1.1969,-1.3059,-1.3978,-1.365,-1.2159,-1.0241,-0.8081,-0.8262,0.0,-0.783,0.0,0.0,0.0,0.0,0.0,0.0,0.0,0.0,0.0,0.0,0.0,0.0,0.0,0.0,0.0,-0.627,-0.6495,-0.6323,-0.6301,-0.6367,-0.6488,-0.6518,-0.6305,-0.5913,-0.5913,-0.6129,-0.6526,-0.7196,-0.6658,-0.5239,-0.5682,-0.5081,-0.3889,-0.4877,-0.5671,-0.629,-0.706,-0.7378,-0.7579,-0.8963,-0.9806,-1.0369,0.0,0.0,0.0,0.0,0.0,0.0,0.0,0.0,0.0,0.0,0.0,0.0,0.0,0.0,0.0,0.0,0.0,0.0,0.0,-1.4278,-1.3064,-1.103,-1.0437,-0.9774,-0.8847,-0.8823,-0.8778,-0.8825,-0.8778,-0.8817,-0.8815,-0.9172,-0.9145,-0.8862,-1.0805,-1.158,-1.1531,-1.3893,-1.529,-1.5976,-1.5976,-1.617,-1.6434,0.0,0.0,0.0,0.0,0.0,0.0,0.0,0.0,0.0,-0.7976,-0.6919,-0.5864,-0.5316,-0.5116,-0.5304,-0.6293,-0.7565,-0.8892,-1.0163,-1.1875,-1.3099,0.0,-1.3004,0.0,0.0,-0.9966,-0.8844,-0.7203,0.0,0.0,0.0,0.0,0.0,0.0,0.0,0.0,0.0,0.0,0.0,0.0,0.0,0.0,0.0,0.0,0.0,0.0,-0.6341,-0.6601,-0.6316,-0.6625,-0.6837,-0.6931,-0.7207,-0.7275,-0.7175,-0.7175,-0.6768,-0.6068,-0.5987,-0.5853,-0.5672,-0.5176,-0.4756,-0.4384,-0.4694,-0.5361,-0.6219,-0.6192,-0.6907,-0.8016,-0.8438,-0.9303,-1.0369,0.0,0.0,0.0,0.0,0.0,0.0,0.0,0.0,0.0,0.0,0.0,0.0,0.0,0.0,0.0,0.0,0.0,0.0,0.0,0.0,-1.1599,-1.01,-0.9787,-0.9387,-0.8824,-0.8438,-0.8146,-0.7907,-0.815,-0.8451,-0.8802,-0.8804,-0.8791,-0.8858,-1.051,-1.1384,-1.1809,-1.4332,-1.5811,-1.6522,-1.6522,-1.6863,-1.7337,0.0,0.0,0.0,0.0,0.0,0.0,0.0,0.0,0.0,-0.9614,-0.8574,-0.7298,-0.677,-0.6433,-0.6289,-0.6776,-0.7893,-0.9184,-1.0163,-1.1773,-1.2968,-1.2452,0.0,0.0,0.0,-0.8239,-0.7128,-0.5584,-0.5739,0.0,0.0,0.0,0.0,0.0,0.0,0.0,0.0,0.0,0.0,0.0,0.0,0.0,0.0,0.0,0.0,0.0,-0.6052,-0.6605,-0.6578,-0.7019,-0.7434,-0.7772,-0.7888,-0.7869,-0.7705,-0.753,-0.7068,-0.6366,-0.6283,-0.6221,-0.6098,-0.5119,-0.4793,-0.4876,-0.4891,-0.5307,-0.6021,-0.6284,-0.6863,-0.764,-0.8442,-0.9223,-1.005,0.0,0.0,0.0,0.0,0.0,0.0,0.0,0.0,0.0,0.0,0.0,0.0,0.0,0.0,0.0,0.0,0.0,0.0,0.0,0.0,-1.1057,-1.0623,-0.868,-0.7847,-0.8413,-0.7583,-0.6895,-0.6405,-0.7079,-0.79,-0.8804,-0.8785,-0.886,-0.8982,-0.9141,-1.0573,-1.3063,-1.5487,-1.6455,-1.6355,-1.6466,-1.696,-1.7609,-1.7568,0.0,0.0,0.0,0.0,0.0,0.0,0.0,0.0,-1.1208,-1.0077,-0.8878,-0.8511,-0.8005,-0.7518,-0.7422,-0.842,-0.949,-0.9739,-1.1085,-1.2131,-1.1456,-1.0539,-0.9512,-0.8276,0.0,-0.5313,-0.3545,-0.4177,0.0,0.0,0.0,0.0,0.0,0.0,0.0,0.0,0.0,0.0,0.0,0.0,0.0,0.0,0.0,0.0,0.0,-0.561,-0.6586,-0.6975,-0.756,-0.8163,-0.8789,-0.8495,-0.8138,-0.7744,-0.7355,-0.7148,-0.7178,-0.7442,-0.7166,-0.6382,-0.5325,-0.5013,-0.5228,-0.521,-0.5396,-0.577,-0.6838,-0.7026,-0.6939,-0.8742,-0.9412,-0.9573,0.0,0.0,0.0,0.0,0.0,0.0,0.0,0.0,0.0,0.0,0.0,0.0,0.0,0.0,0.0,0.0,0.0,0.0,0.0,0.0,-1.0453,-0.919,-0.6657,-0.5274,-0.5437,-0.5217,-0.5062,-0.4973,-0.6597,-0.786,-0.8816,-0.8811,-0.9382,-1.0435,-1.1506,-1.233,-1.305,-1.5499,-1.5942,-1.5175,-1.612,-1.6928,-1.7558,-1.7434,-1.7503,0.0,0.0,0.0,0.0,0.0,0.0,0.0,-1.2561,-1.176,-1.0831,-0.9751,-0.9278,-0.908,-0.854,-0.8992,-0.9672,-0.9784,-1.0478,-1.0951,-1.0041,-0.8502,-0.7095,-0.6249,-0.5395,-0.4262,-0.2741,-0.2654,0.0,0.0,0.0,0.0,0.0,0.0,0.0,0.0,0.0,0.0,0.0,0.0,0.0,0.0,0.0,0.0,-0.4226,-0.613,-0.7184,-0.7005,-0.8318,-0.8953,-0.8789,-0.8734,-0.8523,0.0,-0.7763,-0.7569,-0.7569,-0.7008,-0.6488,-0.5975,-0.5068,-0.4713,-0.4722,-0.4514,-0.4893,-0.5572,-0.5935,-0.668,-0.7732,-0.8569,-0.911,-0.9612,0.0,0.0,0.0,0.0,0.0,0.0,0.0,0.0,0.0,0.0,0.0,0.0,0.0,0.0,0.0,0.0,0.0,0.0,0.0,0.0,0.0,-0.7206,-0.5406,-0.4485,-0.4525,-0.4529,-0.4477,-0.4491,-0.5855,-0.7274,-0.8836,-0.927,-0.9948,-1.0869,-1.2895,-1.3772,-1.3841,-1.512,-1.5603,-1.5664,-1.6803,-1.7569,-1.8066,-1.7949,-1.8147,-1.8285,-1.7179,0.0,0.0,0.0,0.0,0.0,0.0,0.0,-1.2018,-1.0853,-1.039,-1.0132,-0.9632,-0.9649,-0.9673,-0.937,-0.9058,-0.8659,-0.8123,-0.645,-0.4789,-0.4091,-0.3335,-0.2475,-0.1333,0.0,0.0,0.0,0.0,0.0,0.0,0.0,0.0,0.0,0.0,0.0,0.0,0.0,0.0,0.0,0.0,-0.4279,-0.4397,-0.6067,-0.7177,-0.7569,-0.859,-0.9101,-0.9101,-0.8899,-0.854,-0.8013,-0.7608,-0.7412,-0.7403,-0.679,-0.6397,-0.6121,-0.5068,-0.4602,-0.4587,-0.4393,-0.4703,-0.5329,-0.5677,-0.6547,-0.7759,-0.8456,-0.9039,-0.9573,0.0,0.0,0.0,0.0,0.0,0.0,0.0,0.0,0.0,0.0,0.0,0.0,0.0,0.0,0.0,0.0,0.0,0.0,0.0,0.0,0.0,0.0,-0.4673,-0.4506,-0.4519,-0.4236,-0.4236,-0.4519,-0.4886,-0.6173,-0.8244,-0.9429,-1.0252,-1.0922,-1.3283,-1.445,-1.4549,-1.4721,-1.5453,-1.6565,-1.7591,-1.8343,-1.8764,-1.8683,-1.8817,-1.8916,-1.7879,-1.7505,-1.741,-1.6824,0.0,0.0,0.0,0.0,-1.3067,-1.2082,-1.1513,-1.1106,-1.0751,-1.0142,-0.9384,-0.8567,-0.7245,-0.6117,-0.5837,-0.4203,-0.2555,-0.1796,-0.1242,-0.0711,-0.0105,0.0,0.0,0.0,0.0,0.0,0.0,0.0,0.0,0.0,0.0,0.0,0.0,0.0,0.0,0.0,0.0,-0.3883,-0.4462,-0.5822,-0.7032,-0.797,-0.8518,-0.8953,-0.9289,-0.891,-0.8372,-0.7686,-0.7296,-0.7148,-0.7178,-0.679,-0.6579,-0.6419,-0.5093,-0.4505,-0.449,-0.4226,-0.4422,-0.4928,-0.5541,-0.633,-0.7268,-0.8335,-0.8999,-0.9385,0.0,0.0,0.0,0.0,0.0,0.0,0.0,0.0,0.0,0.0,0.0,0.0,0.0,0.0,0.0,0.0,0.0,0.0,-1.6504,0.0,0.0,-0.3874,-0.4239,-0.4492,-0.4473,-0.3174,-0.3169,-0.4519,-0.3729,-0.422,-0.5991,-0.796,-0.9577,-1.0864,-1.2374,-1.3399,-1.4003,-1.4857,-1.5656,-1.6489,-1.7334,-1.8394,-1.9497,-1.9022,-1.9184,-1.953,-1.8878,-1.8674,-1.8598,-1.8025,-1.7826,0.0,0.0,0.0,-1.4902,-1.3803,-1.3072,-1.2452,-1.1809,-1.0242,-0.8521,-0.7233,-0.5752,-0.4379,0.0,0.0,-0.0272,0.0,0.0159,-0.0104,0.0,0.0,0.0,0.0,0.0,0.0,0.0,0.0,0.0,0.0,0.0,0.0,0.0,0.0,0.0,0.0,-0.3395,-0.4108,-0.4096,-0.5884,-0.6996,-0.7172,-0.8217,-0.8816,-0.8871,-0.8523,-0.8127,-0.7686,-0.7296,-0.7275,-0.7598,-0.7216,-0.682,-0.6427,-0.4776,-0.4086,-0.4041,-0.3368,-0.3432,-0.4068,-0.4875,-0.5573,-0.6329,-0.8053,-0.8756,-0.8939,0.0,0.0,0.0,0.0,0.0,0.0,0.0,0.0,0.0,0.0,0.0,0.0,0.0,0.0,0.0,-1.9764,-1.8884,-1.6813,-1.3222,-0.8611,-0.4889,-0.2404,-0.2559,-0.2849,-0.3226,-0.2282,-0.2114,-0.2839,-0.2619,-0.3335,0.0,-0.6673,-0.8417,0.0,0.0,0.0,0.0,-1.544,-1.6323,-1.6995,-1.7935,-1.8865,-1.9634,-1.9681,-2.0004,-2.0398,-2.0162,-2.0078,-2.0008,-1.9498,-1.917,-1.8707,-1.7301,0.0,0.0,0.0,-1.3873,-1.317,-1.2061,-1.03,-0.8254,-0.6405,-0.4534,-0.2695,-0.0771,0.0496,0.1304,0.1453,0.1643,0.0,0.0,0.0,0.0,0.0,0.0,0.0,0.0,0.0,0.0,0.0,0.0,0.0,0.0,0.0,0.0,0.0,-0.3025,-0.3961,-0.4307,-0.5837,-0.7014,-0.7646,-0.8238,-0.8512,-0.8452,-0.8135,-0.753,-0.6691,-0.6943,-0.7041,-0.7038,-0.7305,-0.708,-0.6419,-0.4954,-0.421,-0.3938,-0.3124,-0.3139,-0.3778,-0.4666,-0.5716,-0.6873,-0.7905,-0.8828,-0.9525,0.0,0.0,0.0,0.0,0.0,0.0,0.0,0.0,0.0,0.0,0.0,0.0,0.0,0.0,0.0,0.0,-1.9549,-1.6263,-0.9829,-0.5795,-0.2744,-0.0743,-0.0671,-0.0884,-0.1424,-0.1051,-0.1001,-0.1391,0.0,0.0,-0.3877,-0.5321,-0.7014,0.0,-1.1635,-1.3396,0.0,0.0,-1.6815,-1.7585,-1.8636,-1.9346,-1.9834,-2.0299,-2.0698,-2.0991,-2.0991,-2.0991,-2.0926,-2.0449,-2.0058,-1.9534,-1.8101,-1.7274,0.0,0.0,0.0,-1.3758,-1.2395,-1.068,-0.8572,-0.6039,-0.365,-0.1324,0.0,0.0,0.273,0.0,0.3084,0.0,0.0,0.0,0.0,0.0,0.0,0.0,0.0,0.0,0.0,0.0,0.0,0.0,0.0,0.0,0.0,0.0,-0.2665,-0.3784,-0.4398,-0.5636,-0.6764,-0.7723,-0.8117,-0.8145,-0.7771,-0.72,-0.6674,-0.6213,-0.6721,-0.6958,-0.699,-0.7656,-0.7472,-0.6562,-0.5192,-0.436,-0.3928,-0.3043,-0.2981,-0.3458,-0.4406,-0.5584,-0.6884,-0.7605,-0.8648,-0.9627,0.0,0.0,0.0,0.0,0.0,0.0,0.0,0.0,0.0,0.0,0.0,0.0,0.0,-2.2016,-2.1585,-2.0581,-1.9343,-1.5455,-0.801,-0.4311,-0.1267,0.1247,0.0981,0.0,0.0741,0.0873,0.0277,0.0,0.0,0.0,-0.2341,-0.3819,-0.5275,-0.685,-1.098,-1.3148,-1.3882,0.0,0.0,0.0,0.0,0.0,0.0,0.0,-2.0959,0.0,0.0,-2.0991,-2.0926,0.0,0.0,0.0,0.0,-1.8401,-1.7732,0.0,0.0,0.0,-1.311,-1.1675,-0.9786,-0.6264,-0.3258,-0.0602,0.0,0.0,0.4306,0.4108,0.4473,0.0,0.0,0.0,0.0,0.0,0.0,0.0,0.0,0.0,0.0,0.0,0.0,0.0,0.0,0.0,0.0,0.0,-0.2711,-0.3738,-0.4004,-0.5168,-0.606,-0.657,-0.7715,-0.7753,-0.6597,-0.5373,-0.5536,-0.702,-0.6953,-0.7367,-0.8223,-0.8524,-0.8024,-0.6878,-0.5304,-0.436,-0.3928,-0.3043,-0.2719,-0.2874,-0.3974,-0.4713,-0.533,-0.7021,-0.7911,-0.8374,0.0,0.0,0.0,0.0,0.0,0.0,0.0,0.0,0.0,0.0,0.0,0.0,0.0,-2.3049,-2.2844,-2.199,-1.727,-1.1746,-0.5555,-0.155,0.1828,0.4644,0.3638,0.3031,0.315,0.2263,0.1777,0.0,0.0,0.0668,-0.0835,-0.2318,-0.4005,-0.6021,-0.9314,-1.1871,-1.3835,-1.5588,0.0,0.0,0.0,0.0,0.0,0.0,0.0,0.0,0.0,0.0,0.0,0.0,0.0,0.0,0.0,0.0,0.0,0.0,0.0,-1.4687,-1.4563,-1.2979,-1.064,-0.7829,-0.4751,-0.1773,0.0878,0.2573,0.3447,0.2874,0.3243,0.0,0.0,0.0,0.0,0.0,0.0,0.0,0.0,0.0,0.0,0.0,0.0,0.0,0.0,0.0,0.0,0.0,0.0,-0.3789,-0.4371,-0.5574,-0.6665,-0.755,-0.7811,-0.7189,-0.5678,-0.5505,-0.5662,-0.6158,-0.7627,-0.8523,-0.887,-0.8895,-0.8331,-0.7233,-0.5384,-0.4365,-0.3928,-0.3043,-0.274,-0.2937,-0.3972,-0.4921,-0.5819,-0.6804,-0.7792,-0.8656,0.0,0.0,0.0,0.0,0.0,0.0,0.0,0.0,0.0,0.0,0.0,0.0,0.0,0.0,-2.3555,-2.2237,-1.5515,-0.9148,-0.4018,0.044,0.4141,0.6973,0.569,0.4996,0.5049,0.4392,0.403,0.0,0.0,0.0,0.0,-0.0385,-0.2407,-0.4873,-0.7733,-1.0615,0.0,0.0,0.0,-1.8904,0.0,0.0,-2.2124,0.0,0.0,0.0,0.0,0.0,0.0,0.0,0.0,0.0,0.0,0.0,0.0,0.0,0.0,0.0,-1.5823,0.0,0.0,0.0,-0.6895,-0.345,-0.1097,0.0,0.2487,0.1531,0.0,0.0,0.0,0.0,0.0,0.0,0.0,0.0,0.0,0.0,0.0,0.0,0.0,0.0,0.0,0.0,0.0,0.0,0.0,0.0,-0.4552,-0.5667,-0.6815,-0.8001,-0.7666,-0.6925,-0.5816,-0.5922,-0.6191,-0.6611,-0.8462,-0.9292,-0.9119,-0.9061,-0.8284,-0.6895,-0.5168,-0.4279,-0.3928,-0.3043,-0.274,-0.2937,-0.3901,-0.49,-0.5868,-0.6519,-0.7592,-0.8719,0.0,0.0,0.0,0.0,0.0,0.0,0.0,0.0,0.0,0.0,0.0,0.0,0.0,0.0,0.0,-2.12,-1.4236,-0.808,-0.3524,0.1479,0.5461,0.8078,0.7083,0.6514,0.6514,0.728,0.7004,0.0,0.0,0.0,0.0,0.0,-0.0382,-0.3315,-0.6192,-0.9459,-1.2875,0.0,-1.7276,-1.8964,0.0,-2.1488,-2.218,0.0,0.0,0.0,-2.2721,-2.2537,0.0,-2.1777,0.0,0.0,0.0,0.0,0.0,0.0,0.0,0.0,0.0,0.0,0.0,0.0,0.0,0.0,-0.4102,0.0,0.1574,0.0209,0.0,0.0,0.0,0.0,0.0,0.0,0.0,0.0,0.0,0.0,0.0,0.0,0.0,0.0,0.0,0.0,0.0,0.0,-0.188,-0.3359,-0.4532,-0.5404,-0.6447,-0.7656,-0.7251,-0.6998,-0.6987,-0.6504,-0.7008,-0.8541,-0.9464,-0.9613,-0.9072,-0.9082,-0.7957,-0.5954,-0.4664,-0.4061,-0.3951,-0.3072,-0.2712,-0.2779,-0.363,-0.4483,-0.5297,-0.6159,-0.7257,-0.8315,0.0,0.0,0.0,0.0,0.0,0.0,0.0,0.0,0.0,0.0,0.0,0.0,0.0,0.0,-2.317,-2.0898,-1.4149,-0.7589,-0.1951,0.3103,0.7091,0.987,0.9235,0.8769,0.8735,0.8943,0.9358,0.0,0.0,0.0,0.0,0.0,0.0,0.0,-0.5427,-0.9419,-1.3066,-1.5672,0.0,-1.9917,-2.1007,-2.2012,0.0,0.0,0.0,0.0,0.0,-2.3063,-2.2546,0.0,-2.1653,-2.1182,0.0,0.0,0.0,0.0,0.0,0.0,-1.8064,0.0,0.0,0.0,0.0,0.0,0.0,0.0,0.0,-0.1322,0.0,0.0,0.0,0.0,0.0,0.0,0.0,0.0,0.0,0.0,0.0,0.0,0.0,0.0,0.0,0.0,0.0,0.0,-0.048,-0.246,-0.442,-0.6495,-0.7637,-0.7686,-0.7579,-0.7164,-0.644,-0.7187,-0.8085,-0.9083,-0.995,-1.0413,-1.054,-0.9053,-0.7794,-0.6693,-0.4774,-0.4037,-0.4072,-0.3086,-0.2712,-0.2746,-0.3298,-0.4183,-0.5266,-0.5807,-0.6699,-0.7686,0.0,0.0,0.0,0.0,0.0,0.0,0.0,0.0,0.0,0.0,0.0,0.0,0.0,0.0,-2.2743,-2.0303,-1.3914,-0.7265,-0.0726,0.4574,0.8919,1.2015,1.1776,1.142,1.112,1.1616,1.2353,0.0,0.0,0.0,0.0,0.0,0.0,0.0,0.0,0.0,0.0,0.0,0.0,0.0,-2.1735,0.0,0.0,-2.3494,-2.3595,0.0,0.0,0.0,-2.2848,-2.2495,-2.2,0.0,0.0,0.0,0.0,0.0,0.0,0.0,0.0,0.0,0.0,0.0,0.0,0.0,-0.5148,-0.2993,-0.1952,0.0,0.0,0.0,0.0,0.0,0.0,0.0,0.0,0.0,0.0,0.0,0.0,0.0,0.0,0.0,0.0,0.4889,0.3775,0.2769,0.0728,-0.1741,-0.4622,-0.6674,-0.7589,-0.7198,-0.7686,-0.7569,-0.6739,-0.8374,-0.9435,-0.9939,-1.0847,-1.0972,-1.0314,-0.8685,-0.7311,-0.6139,-0.4504,-0.3882,-0.3935,-0.3291,-0.2963,-0.2903,-0.3339,-0.407,-0.494,-0.5613,-0.6497,-0.7421,0.0,0.0,0.0,0.0,0.0,0.0,0.0,0.0,0.0,0.0,0.0,0.0,0.0,0.0,0.0,0.0,-1.4248,-0.7668,-0.0245,0.5579,1.0438,1.4213,1.4505,1.4352,1.382,1.4959,0.0,0.0,0.0,0.0,0.0,0.0,0.0,0.0,0.0,0.0,0.0,0.0,0.0,-2.1715,-2.2649,-2.3325,0.0,0.0,-2.3959,-2.3837,-2.3837,-2.3592,-2.3218,-2.2873,-2.2269,0.0,0.0,0.0,0.0,0.0,-1.8968,0.0,0.0,0.0,0.0,0.0,0.0,0.0,-0.679,-0.4751,-0.3782,0.0,0.0,0.0,0.0,0.0,0.0,0.0,0.0,0.0,0.0,0.0,0.0,0.0,0.0,0.0,0.7251,0.6151,0.5079,0.4115,0.1691,-0.1345,-0.4922,-0.6254,-0.6794,-0.651,-0.753,-0.7952,-0.7661,-0.9656,-1.0746,-1.0965,-1.1819,-1.1186,-0.9235,-0.8123,-0.6714,-0.5077,-0.4156,-0.3768,-0.3809,-0.3622,-0.3383,-0.3181,-0.365,-0.4081,-0.4566,-0.5476,-0.6457,-0.7318,-0.5431,0.0,0.0,0.0,0.0,0.0,0.0,0.0,0.0,0.0,0.0,0.0,0.0,0.0,0.0,0.0,-1.8029,-1.1655,-0.1907,0.4418,1.0146,1.5424,1.6881,1.7612,1.7691,1.8232,0.0,0.0,0.0,0.0,0.0,0.0,0.0,0.0,0.0,0.0,0.0,0.0,0.0,-2.3719,-2.3771,0.0,-2.4351,-2.4382,-2.449,-2.4591,-2.4591,-2.4266,-2.3771,-2.3287,-2.2609,-2.191,0.0,0.0,0.0,-1.9696,0.0,0.0,0.0,0.0,0.0,0.0,0.0,0.0,-0.5054,-0.4601,-0.5032,0.0,-0.8898,0.0,0.0,0.0,0.0,0.0,0.0,0.0,0.0,0.0,0.0,0.0,0.0,0.0,0.8953,0.7929,0.7004,0.6311,0.1888,-0.1918,-0.4497,-0.5776,-0.6419,-0.6416,-0.6687,-0.7415,-0.8627,-0.973,-1.086,-1.1932,-1.1367,-1.0631,-0.9697,-0.7944,-0.6681,-0.5817,-0.4574,-0.4245,-0.4553,-0.4036,-0.3665,-0.3451,-0.3821,-0.4264,-0.4772,-0.5185,-0.5992,-0.6949,0.0859,0.0,0.0,0.0,0.0,0.0,0.0,0.0,0.0,0.0,0.0,0.0,0.0,0.0,0.0,0.0,0.0,0.0,0.0,0.0,0.7802,1.0601,1.515,1.7266,1.6522,1.7528,0.0,0.0,0.0,0.0,0.0,0.0,0.0,0.0,0.0,0.0,0.0,0.0,-2.3332,-2.4104,-2.4198,0.0,-2.4655,-2.4648,-2.4707,-2.474,-2.4309,-2.3817,-2.3307,-2.303,-2.2822,0.0,0.0,-2.1657,-2.1053,0.0,-1.9576,-1.8579,0.0,0.0,0.0,-1.131,0.0,0.0,0.0,-0.5031,-0.6034,-0.7983,-0.9649,-1.0214,-0.8398,0.0,0.0,0.0,0.0,0.0,0.0,0.0,0.0,0.0,0.0,0.0,1.0626,0.9857,0.8531,0.6607,0.2979,-0.0454,-0.3491,-0.4573,-0.5491,-0.6323,-0.6966,-0.7736,-0.869,-1.0339,-1.1313,-1.165,-1.1381,-1.0648,-0.9444,-0.8017,-0.6902,-0.6048,-0.5145,-0.4772,-0.4772,-0.4478,-0.4279,-0.4164,-0.4417,-0.455,-0.4685,-0.5326,-0.5941,-0.6565,1.1648,0.0,0.0,0.0,0.0,0.0,0.0,0.0,0.0,0.0,0.0,0.0,0.0,0.0,0.0,0.0,0.0,0.0,0.0,0.0,0.0,0.4737,1.149,1.4869,1.4099,1.5591,1.7262,0.0,0.0,0.0,0.0,0.0,0.0,0.0,0.0,0.0,0.0,0.0,0.0,-2.3512,0.0,-2.4382,-2.4746,-2.4796,-2.483,-2.4754,-2.3884,-2.3195,-2.2693,-2.2757,-2.2928,-2.3051,-2.279,-2.2461,0.0,0.0,0.0,0.0,0.0,0.0,0.0,0.0,0.0,-0.6062,0.0,0.0,0.0,-0.9063,-1.0166,0.0,0.0,0.0,0.0,0.0,0.0,0.0,0.0,0.0,0.0,0.0,0.0,0.0,1.2067,1.145,0.9801,0.6719,0.4585,0.1815,-0.1813,-0.3015,-0.4347,-0.5942,-0.7116,-0.807,-0.8754,-1.0827,-1.1617,-1.1168,-1.1477,-1.0741,-0.9055,-0.8123,-0.7207,-0.6335,-0.5776,-0.5363,-0.5064,-0.5098,-0.5043,-0.4944,-0.5012,-0.4798,-0.4578,-0.547,-0.5994,-0.6336,2.1487,0.5642,0.0,0.0,0.0,0.0,0.0,0.0,0.0,0.0,0.0,0.0,0.0,0.0,0.0,0.0,0.0,0.0,-1.5288,0.0,0.0,0.0,0.7038,1.0847,1.3599,1.4428,1.5893,0.0,0.0,0.0,0.0,0.0,0.0,0.0,-0.0107,0.0,0.0,0.0,-2.1783,0.0,-2.2587,-2.3513,0.0,-2.473,-2.4943,-2.5039,-2.4172,-2.3322,-2.2668,0.0,-2.2958,-2.2806,0.0,-2.28,-2.2321,-2.1142,0.0,0.0,0.0,0.0,0.0,0.0,-0.7383,0.0,0.0,0.0,-0.7341,-0.8343,0.0,0.0,0.0,0.0,0.0,0.0,0.0,0.0,0.0,0.0,0.0,0.0,0.0,0.0,0.0,1.2199,1.0743,0.8372,0.6554,0.4165,0.1004,-0.1349,-0.3245,-0.4734,-0.5892,-0.7555,-0.9719,-1.0543,-1.1135,-1.1444,-1.1435,-1.059,-0.8969,-0.809,-0.7563,-0.7294,-0.6402,-0.6023,-0.6041,-0.6173,-0.5896,-0.5407,-0.5235,-0.4996,-0.4798,-0.5211,-0.583,-0.6555,2.0241,1.1312,0.0,0.0,0.0,0.0,0.0,0.0,0.0,0.0,0.0,0.0,0.0,0.0,0.0,0.0,0.0,-2.3402,0.0,0.0,0.0,0.0,0.0,0.0,0.5328,0.7759,1.0061,1.2201,1.4075,0.0,0.0,0.0,0.0,0.0,0.1444,0.0,-1.4004,0.0,-2.0169,0.0,0.0,0.0,0.0,-2.4241,-2.4236,-2.3828,-2.3542,-2.2749,-2.1861,0.0,-2.2492,0.0,0.0,0.0,0.0,0.0,0.0,0.0,0.0,0.0,0.0,0.0,0.0,0.0,-0.5686,0.0,-0.7778,0.0,0.0,0.0,0.0,0.0,0.0,0.0,0.1424,0.0,0.0,0.0,0.0,0.0,0.0,0.0,0.0,0.0,0.0,0.0,0.7984,0.5453,0.2134,-0.0403,-0.2845,-0.5156,-0.7515,-0.9168,-1.0071,-1.196,-1.261,-1.2086,-1.1712,-1.0959,-0.9893,-0.8821,-0.8125,-0.7702,-0.7146,-0.6776,-0.655,-0.6475,-0.623,-0.5893,-0.5699,-0.5374,-0.507,-0.5272,-0.5852,-0.6547,1.9275,0.0,0.0,0.0,0.0,0.0,0.0,0.0,0.0,0.0,0.0,0.0,-2.8237,-2.8633,0.0,0.0,-2.7416,-2.6962,0.0,0.0,-1.5947,0.0,0.0,0.0,0.0,0.0,0.3706,0.6679,0.0,0.0,0.0,0.0,0.0,0.0,0.0,-0.4651,-1.2614,0.0,-1.8262,-1.9241,-2.0048,-2.1424,-2.3082,-2.4081,-2.3969,-2.3266,-2.3137,-2.2374,-2.1409,-2.1336,-2.1909,0.0,-2.2818,0.0,0.0,0.0,0.0,0.0,-1.6784,0.0,0.0,0.0,0.0,0.0,0.0,0.0,0.0,0.0,0.0,0.0,0.0,0.0,0.0,0.0,0.0,0.1564,0.0,0.0,0.0,0.0,0.0,0.0,0.0,0.0,0.0,1.1366,0.9668,0.7331,0.4233,0.0891,-0.2226,-0.5077,-0.8757,-1.089,-1.1407,-1.3327,-1.3836,-1.2901,-1.2308,-1.1522,-1.0571,-0.9665,-0.8863,-0.8213,-0.7947,-0.7605,-0.7192,-0.7014,-0.6737,-0.6433,-0.6219,-0.5822,-0.5347,-0.5257,-0.5717,-0.6412,2.2076,1.8065,0.0,0.0,0.0,0.0,0.0,0.0,0.0,0.0,0.0,0.0,0.0,0.0,0.0,0.0,0.0,-2.8952,-2.6887,0.0,-2.3258,0.0,0.0,-1.6241,0.0,0.0,0.0,0.0,0.0,0.0,0.0,0.0,0.0,0.0,-0.4257,-0.7784,-1.1004,-1.4213,-1.5941,-1.668,-1.8599,-2.116,-2.3927,0.0,-2.4626,-2.4156,-2.3374,0.0,0.0,-2.1417,-2.1328,0.0,0.0,0.0,0.0,0.0,0.0,0.0,0.0,0.0,0.0,-0.9074,0.0,0.0,0.0,0.0,-0.8036,0.0,0.0,0.0,0.0,0.0,0.0,0.0,0.0,0.0,0.0,0.0,0.0,0.0,0.0,0.0,0.0,0.0,1.3454,1.2532,1.1856,1.0561,0.8426,0.2995,-0.1197,-0.3791,-0.8545,-1.2166,-1.4427,-1.4151,-1.3997,-1.393,-1.3341,-1.2198,-1.0593,-1.044,-0.9887,-0.905,-0.8791,-0.8507,-0.8237,-0.8113,-0.7664,-0.705,-0.6851,-0.6357,-0.5697,-0.5054,-0.538,-0.6094,0.0,0.0,0.0,0.0,0.0,0.0,0.0,-1.7562,0.0,0.0,0.0,0.0,0.0,-2.6194,-2.6817,0.0,0.0,-3.0579,-2.7496,-2.611,0.0,0.0,0.0,-1.8003,0.0,0.0,0.0,0.0,0.0,0.0,0.0,0.0,0.0,0.0,0.0,-1.0906,0.0,0.0,0.0,0.0,0.0,-2.2437,-2.4288,0.0,0.0,-2.4186,-2.3393,-2.2514,0.0,-2.0944,-2.107,-2.1477,-2.1375,-2.1313,-2.1147,-2.0499,-1.9681,0.0,0.0,0.0,-1.246,-0.9414,0.0,0.0,0.0,0.0,0.0,0.0,0.0,0.0,0.0,0.0,0.0,0.0,0.0,0.0,0.0,0.0,0.0,0.0,0.0,0.0,0.0,0.0,0.0,1.3369,1.1999,1.0637,0.9488,0.2679,-0.2123,-0.414,-1.1002,-1.4992,-1.5641,-1.6362,-1.6173,-1.5126,-1.4478,-1.3578,-1.2499,-1.193,-1.1442,-1.1035,-1.0095,-0.9634,-0.9485,-0.8659,-0.8059,-0.7663,-0.737,-0.676,-0.5981,-0.5268,-0.5388,-0.5984,2.0522,0.0,0.0,0.0,0.0,0.0,0.0,0.0,0.0,0.0,-2.7256,0.0,-2.9949,0.0,-2.7668,0.0,-3.2201,-2.9938,-2.7543,-2.5976,0.0,-2.2783,-2.1336,0.0,0.0,0.0,0.0,0.0,0.0,-0.6079,0.0,0.0,0.0,0.0,0.0,-1.2919,-1.2797,-1.4688,-1.63,0.0,0.0,-2.3243,0.0,0.0,-2.4986,-2.4616,0.0,-2.3066,-2.2324,-2.1347,-2.1074,-2.0698,-1.7985,-1.864,-2.0352,-1.9899,-1.9155,-1.8058,-1.6211,-1.4513,0.0,-0.9939,-0.8609,0.0,-0.837,0.0,0.0,0.0,0.0,0.0,0.0,0.0,0.0,0.0,0.0,0.0,0.0,0.8152,0.0,0.0,0.0,0.0,0.0,0.0,1.2871,1.37,1.312,1.2318,0.0,0.0,-0.1998,-0.5178,-1.2271,-1.6197,-1.6466,-1.7252,-1.7194,-1.6333,-1.5301,-1.441,-1.3603,-1.2776,-1.2198,-1.1761,-1.0848,-1.0377,-1.0238,-0.9421,-0.8905,-0.858,-0.797,-0.7279,-0.6562,-0.5665,-0.5491,-0.5868,1.952,0.0,0.0,0.0,1.9373,0.0,0.0,0.0,-2.0714,0.0,-3.0414,-3.3582,-3.0163,-2.821,-2.8392,-3.1437,-2.8981,-2.7179,-2.6975,-2.5342,0.0,0.0,-2.1786,-2.0701,-1.9071,0.0,0.0,0.0,0.0,0.0,0.0,0.0,0.0,0.0,-1.3022,0.0,-1.4743,-1.6316,-1.7595,-1.8772,-2.1685,-2.3601,-2.4737,-2.4971,-2.5246,-2.5357,-2.4482,-2.4099,-2.3724,-2.2062,-2.1023,-1.9196,-1.2286,-1.4027,-1.8652,-1.8796,-1.8218,-1.7233,-1.5831,-1.4145,-1.2388,-1.0671,0.0,0.0,0.0,0.0,-1.1155,0.0,0.0,0.0,0.0,0.0,0.0,0.0,0.0,0.0,0.0,0.0,0.0,0.0,0.0,0.0,0.0,1.3475,1.397,1.361,1.514,1.5431,0.0,0.0,-0.084,-0.6549,-1.2319,-1.5873,-1.7036,-1.6972,-1.7123,-1.7497,-1.5894,-1.4709,-1.3932,-1.3073,-1.2233,-1.1465,-1.1072,-1.0764,-1.0542,-1.0315,-1.0044,-0.9636,-0.8546,-0.7865,-0.7369,-0.6239,-0.5698,-0.5775,1.8464,1.7777,1.7375,0.0,1.5507,1.2642,0.0,0.0,0.0,0.0,-2.5181,-2.688,-2.8072,-2.72,-2.7492,-2.9948,-2.7193,0.0,0.0,0.0,0.0,-2.1184,-2.0097,-1.9134,-1.8309,-1.7693,0.0,-1.4767,0.0,0.0,-1.2676,0.0,0.0,0.0,0.0,0.0,-1.6399,-1.7833,-1.9624,-2.1627,-2.3064,-2.4082,0.0,0.0,-2.4851,-2.4924,-2.4014,-2.4292,-2.3883,-1.6,-1.6459,-1.9138,-1.2267,-0.7772,-0.69,-1.6392,-1.8663,-1.7812,-1.6501,-1.5267,-1.3732,-1.1333,-1.0802,-1.0812,0.0,0.0,0.0,0.0,0.0,0.0,0.0,0.0,0.0,0.0,0.0,0.0,0.0,0.0,0.0,1.2401,0.0,0.0,1.3409,1.3252,1.3516,1.4554,1.539,1.5496,1.4587,0.0,0.0,-0.4173,-1.2402,-1.7067,-1.775,-1.8504,-1.8496,-1.7719,-1.7251,-1.6256,-1.483,-1.401,-1.3786,-1.3925,-1.1753,-1.1095,-1.1422,-0.9896,-0.9185,-0.9007,-0.8512,-0.8008,-0.7455,-0.646,-0.6189,-0.6383,1.7594,0.0,0.0,0.9701,0.0,0.0,-0.0926,-1.0119,0.0,-2.1021,-2.1513,0.0,-2.4092,-2.4199,-2.4863,-2.6697,-2.4744,0.0,-2.2216,0.0,0.0,-1.9368,-1.8677,-1.821,-1.8051,-1.734,0.0,-1.6108,0.0,0.0,-1.5098,0.0,0.0,0.0,0.0,-1.8271,-1.8644,-2.0202,-2.1878,-2.352,-2.4063,-2.4531,0.0,-2.4673,-2.452,-2.4373,-2.3936,-2.4498,-2.4543,-1.8792,-1.4433,-1.0748,-0.6903,-0.3076,-0.1433,-0.8725,-1.2602,-1.4908,-1.6561,-1.5987,-1.4332,-1.2013,-1.178,-1.2084,-1.1823,-1.2349,-1.3032,0.0,0.0,0.0,0.0,0.0,0.0,0.0,0.0,0.0,0.0,0.0,0.0,0.0,1.019,0.0,1.1395,1.226,1.3487,1.5259,1.6194,1.6385,0.0,0.0,0.0,-0.3652,-1.1864,-1.6332,-1.6694,-1.8124,-1.8319,-1.7265,-1.706,-1.6309,-1.5122,-1.3937,-1.3556,-1.3747,-1.1687,-1.095,-1.1112,-0.9983,-0.9435,-0.9268,-0.8639,-0.808,-0.7545,-0.7069,-0.6927,-0.7018,1.6836,0.0,0.0,0.0,0.0,0.0,0.0,-1.4782,0.0,-1.8497,0.0,-1.9172,-1.9691,-2.0429,-2.1395,-2.2692,0.0,-2.1349,-2.1288,-1.9464,-1.8089,-1.7427,-1.7356,-1.7461,-1.7773,-1.6951,-1.6951,0.0,0.0,0.0,0.0,0.0,0.0,0.0,0.0,0.0,0.0,-2.2806,-2.3916,-2.4638,-2.4774,-2.484,-2.4831,-2.4605,-2.3577,-2.2428,-2.3558,-2.3101,-2.1996,-2.1996,-1.3382,-0.2654,-0.2654,-0.1443,0.0,0.0,-0.4004,-0.9583,-1.4896,-1.5329,-1.3992,-1.2657,-1.2799,-1.3236,-1.3134,-1.3556,-1.4105,-1.4436,-1.391,-1.3526,0.0,0.0,0.0,0.0,0.0,0.0,0.0,0.0,0.0,0.0,0.0,0.0,0.0,1.0372,1.298,1.5016,1.6578,1.7135,0.0,0.0,0.0,-0.2978,-0.9688,-1.3446,-1.3952,0.0,-1.7011,-1.6361,-1.6143,-1.5659,-1.4906,-1.3372,-1.2572,-1.2336,-1.1204,-1.0537,-1.0252,-1.0146,-0.9978,-0.9731,-0.8795,-0.8149,-0.7724,-0.7854,-0.7795,-0.768,1.6051,0.0,0.0,0.0,0.0,-1.2378,-1.2613,-1.4455,-1.5851,-1.5951,-1.6567,-1.7397,-1.8383,-1.8289,-1.8668,-2.0028,-1.9192,0.0,0.0,0.0,0.0,-1.6353,-1.6098,-1.5983,-1.6046,-1.6355,-1.6595,0.0,0.0,0.0,0.0,0.0,0.0,0.0,0.0,0.0,-2.3537,-2.4138,0.0,-2.4777,-2.4904,-2.4662,-2.4165,-2.4063,-1.9905,-1.4903,-2.0587,-1.48,-0.4422,-0.4422,-0.9921,-1.6734,-1.6734,-0.904,0.0,0.0,-0.0808,-0.271,-0.7311,-0.9792,-1.15,-1.308,-1.3859,-1.4242,-1.4155,-1.4411,-1.4717,-1.4945,-1.4949,-1.5007,-1.5242,0.0,0.0,0.0,0.0,0.0,0.0,0.0,0.0,0.0,0.0,0.3399,0.0,0.0,0.9383,1.1155,1.3888,0.0,0.0,0.0,0.0,0.0,-0.2337,0.0,0.0,0.0,-1.4587,-1.5211,-1.5923,-1.5527,-1.418,-1.3357,-1.2793,-1.2327,-1.0854,-1.018,-1.0077,-0.9296,-0.8959,-0.8911,-0.873,-0.8492,-0.8282,-0.8418,-0.851,-0.8537,0.0,0.0,0.0,0.0,0.0,0.0,0.0,-1.2763,0.0,-1.4227,-1.4429,-1.4935,-1.5801,-1.6328,-1.6952,-1.7847,-1.7393,-1.7108,-1.7331,-1.5928,-1.5165,-1.536,-1.5211,-1.5276,-1.5588,-1.5864,-1.6471,-1.7353,0.0,0.0,0.0,0.0,0.0,0.0,0.0,-2.3756,0.0,0.0,0.0,-2.4943,-2.4908,-2.454,-2.3969,-2.3671,-1.8777,-1.3123,-2.1029,-1.8187,-0.959,-0.2422,-0.9108,-2.0433,-2.0332,-1.5811,-0.9136,-0.2077,-0.3897,-0.8464,-0.9697,-1.111,-1.2455,-1.3189,-1.3952,-1.4405,-1.409,-1.4513,-1.4906,-1.4819,-1.5143,-1.5721,-1.6637,-1.6945,0.0,0.0,0.0,0.0,0.0,0.0,0.0,0.0,0.0,0.0,0.0,0.0,0.0,0.0,0.0,0.0,0.0,0.0,0.0,0.0,0.0,0.0,0.0,0.0,0.0,-1.2835,-1.4307,-1.4452,-1.3402,-1.284,-1.2422,-1.2048,-1.0518,-0.9836,-0.9794,-0.9091,-0.8778,-0.8761,-0.8761,-0.8686,-0.8622,-0.8756,-0.8866,-0.8916,0.0,0.3249,0.0,0.0,-0.852,0.0,-1.1078,-1.1906,-1.2622,-1.2978,-1.2952,-1.3079,-1.3526,-1.4696,-1.5703,-1.6228,-1.5956,-1.5815,-1.5924,-1.493,-1.443,-1.4622,-1.4662,-1.4971,-1.5588,-1.5732,-1.6476,0.0,0.0,0.0,0.0,0.0,0.0,0.0,0.0,0.0,0.0,0.0,-2.5093,-2.5011,-2.4867,-2.4452,-2.389,-2.3424,-1.895,-1.376,-2.0317,-2.1985,-1.9399,-0.8136,-1.1566,-2.0527,-2.0376,-1.9317,-1.6311,-0.704,-0.8179,-1.2643,-1.3503,-1.3651,-1.3533,-1.3465,-1.3905,-1.4245,-1.401,-1.4414,-1.4746,-1.4531,-1.5261,-1.6401,-1.7957,-1.8084,0.0,0.0,0.0,0.0,0.0,0.0,0.0,0.0,0.0,0.0,-0.5923,0.0,0.0,0.0,0.0,0.0,0.766,0.0,0.0,0.0,0.0,-0.1513,-0.4179,0.0,-1.0743,-1.059,-1.2654,-1.3282,-1.2638,-1.2488,-1.2168,-1.1676,-1.0352,-0.9656,-0.9383,-0.9047,-0.8885,-0.8857,-0.8857,-0.8996,-0.923,-0.9347,-0.9553,-0.9735,0.0,0.0,0.0,0.0,0.0,0.0,-1.4473,-1.3909,-1.3057,-1.2462,-1.2908,-1.3247,-1.2915,-1.3761,-1.4666,-1.541,-1.4729,-1.4459,-1.4909,-1.3769,-1.3468,-1.4416,-1.4606,-1.4971,-1.5588,-1.6139,-1.6752,0.0,0.0,0.0,0.0,0.0,0.0,0.0,0.0,0.0,0.0,-2.5224,-2.5114,-2.4828,-2.4813,-2.4369,-2.3696,-2.3544,-2.0174,-1.5411,-1.4421,-1.7824,-2.233,-1.9464,-1.9345,-2.0422,-2.039,-1.6096,-1.2017,-1.6939,-1.0373,-0.3535,-1.2981,-1.373,-1.2338,-1.4387,-1.4334,-1.3938,-1.4564,-1.4284,-1.4031,-1.4413,-1.5821,-1.7453,-1.9057,-1.9178,-1.9008,0.0,0.0,0.0,0.0,0.0,-1.1638,-0.9196,0.0,0.0,0.0,-1.1485,-1.2907,0.0,-0.274,0.0,0.0,0.0,0.0,1.12,0.0,0.4953,0.0409,-0.4075,-0.7373,-0.9464,-1.1906,-1.2618,-1.186,-1.2962,-1.2664,-1.1226,-1.0655,-0.9794,-0.8788,-0.8869,-0.8979,-0.9068,-0.9068,-0.9665,-1.054,-1.0682,-1.1222,-1.182,0.0,0.0,0.0,0.0,0.0,0.0,0.0,-1.4348,-1.447,-1.4213,-1.39,-1.3884,-1.4329,-1.4329,-1.4538,-1.5021,-1.4482,-1.4102,-1.4023,-1.3681,-1.3635,-1.4031,-1.4474,-1.5141,-1.6046,-1.633,-1.7177,0.0,0.0,0.0,0.0,0.0,0.0,0.0,0.0,-2.5372,-2.5347,-2.5281,-2.507,-2.4778,-2.4663,-2.4247,-2.3735,-2.4041,-2.2776,-2.0698,-1.9731,-2.072,-2.2378,-2.1479,-2.0865,-2.0456,-2.0376,-1.5682,-0.9948,-0.8535,-0.427,-0.0929,-0.5171,-0.9729,-1.3277,-1.3346,-1.3483,-1.3699,-1.4171,-1.4316,-1.4345,-1.4128,-1.5643,-1.7573,-1.9292,-1.9518,-1.9339,0.0,0.0,0.0,0.0,0.0,0.0,-1.1351,0.0,-1.0905,0.0,-1.3642,-1.5158,-1.6127,0.0,0.0,0.0,0.0,0.0,1.183,0.0,0.4806,0.1021,-0.3331,-0.6558,-0.8613,-1.0517,-1.1454,-1.1505,-1.2353,-1.2286,-1.1448,-1.1366,-1.0827,-1.0034,-1.0288,-1.0534,-1.0734,-1.0845,-1.1232,-1.1734,-1.1839,-1.2112,-1.2407,-0.3666,0.0,-0.9203,0.0,-1.0783,-1.1468,-1.2972,-1.4077,-1.4946,-1.5585,-1.4504,-1.4004,-1.4852,-1.4775,-1.4656,-1.4506,-1.4179,-1.3942,-1.3902,-1.3859,-1.3956,-1.4318,-1.4903,0.0,-1.6646,-1.6802,-1.7785,-1.9606,-1.9697,0.0,0.0,0.0,0.0,0.0,-2.5578,-2.5592,-2.5539,-2.5234,-2.4978,-2.4714,-2.4459,-2.4155,-2.3899,-2.4265,-2.4376,-2.4269,-2.391,-2.3212,-2.2367,-2.1884,-2.1161,-2.0431,-2.0354,-1.5694,-0.8898,-0.2021,0.0,-0.0287,-0.1603,-0.6942,-1.2258,-1.2795,-1.3139,-1.3449,-1.3759,-1.4199,-1.4492,-1.428,-1.5532,-1.7244,-1.9073,-1.9257,-1.9003,-1.8594,0.0,0.0,0.0,0.0,0.0,0.0,-1.2543,-1.2647,-1.3727,-1.4941,-1.5891,0.0,0.0,0.0,0.0,0.0,0.0,0.0,0.0,0.0,0.0,-0.3373,-0.6281,-0.8124,-0.9836,-1.091,-1.1439,-1.2118,-1.2167,-1.1708,-1.1975,-1.1684,-1.1068,-1.1373,-1.1658,-1.1897,-1.204,-1.24,-1.2857,-1.2888,-1.3125,-1.3364,-0.8427,-0.8074,-0.7359,-0.9352,-1.1137,-1.2411,-1.2751,-1.3179,-1.4122,-1.6043,-1.4499,-1.3339,-1.377,-1.4782,-1.4968,-1.391,-1.3723,-1.4023,-1.4836,-1.4217,-1.4318,0.0,0.0,-1.6646,-1.7271,-1.7827,-1.8584,-1.9606,0.0,0.0,-2.1071,0.0,-2.5409,-2.5706,-2.5693,-2.5709,-2.5648,-2.5135,-2.4788,-2.4557,-2.4172,-2.408,-2.419,-2.4062,-2.4338,-2.4729,-2.4186,-2.3564,-2.2871,-2.2067,-2.1141,-2.0315,-2.0372,-1.5651,-0.877,-0.199,0.0,-0.0962,-0.5416,-0.6706,-0.8039,-1.3266,-1.3834,-1.3184,-1.3526,-1.3763,-1.4184,-1.5088,-1.563,-1.649,-1.8361,-1.8336,-1.79,-1.7476,0.0,0.0,0.0,0.0,0.0,-1.4639,-1.3788,-1.3752,-1.5222,-1.5505,0.0,0.0,0.0,0.0,0.0,0.0,0.0,0.7836,0.6261,0.0,-0.0345,-0.3574,-0.6179,-0.8133,-1.0212,-1.1385,-1.1707,-1.2594,-1.2584,-1.1926,-1.2316,-1.2071,-1.1411,-1.1606,-1.1851,-1.2105,-1.2105,-1.2834,-1.3876,-1.3876,-1.4468,-1.5148,-0.7472,-0.9322,-1.0755,-1.1335,-1.1583,-1.171,-1.1816,-1.2865,-1.401,-1.5032,-1.4629,-1.4026,-1.3313,-1.3202,-1.3405,0.0,-1.4012,-1.4078,0.0,-1.4627,-1.5206,-1.6089,-1.6689,-1.745,-1.838,-1.8574,-1.9259,-2.0567,0.0,0.0,0.0,-2.3019,-2.3768,-2.471,-2.5208,-2.5534,-2.5671,-2.5217,-2.487,-2.4557,-2.4007,-2.3959,-2.419,-2.4209,-2.4441,-2.4669,-2.367,-2.317,-2.2772,-2.1333,-2.0565,-2.022,-2.015,-1.6484,-1.0602,-0.2402,0.0,-0.1641,-0.9201,-1.1265,-1.166,-1.3371,-1.3396,-1.3122,-1.3416,-1.365,-1.4108,-1.5153,-1.5509,-1.5989,-1.7191,-1.7217,-1.6947,-1.6638,-1.6121,0.0,0.0,0.0,0.0,-1.416,-1.4504,-1.4823,-1.5049,-1.6009,0.0,0.0,0.0,0.0,0.0,0.0,0.0,0.0,0.2747,0.0,-0.3021,-0.5961,-0.8165,-0.9563,-1.1121,-1.2192,-1.2808,-1.3072,-1.3226,-1.3266,-1.3401,-1.3317,-1.3116,-1.3331,-1.3566,-1.383,-1.3961,-1.4352,-1.4858,-1.4916,-1.5116,-1.5338,-0.9086,-1.1444,-1.3465,-1.3442,-1.2654,-1.2206,-1.2838,-1.351,-1.422,-1.4943,-1.479,-1.4503,-1.4182,-1.2647,0.0,-1.2735,-1.3293,-1.4037,-1.4915,-1.5463,-1.6059,-1.6809,-1.7531,-1.8288,-1.9126,-1.9346,0.0,-2.1213,-2.1836,-2.2496,-2.3204,-2.2578,-2.2978,-2.4238,-2.4974,-2.5453,-2.5675,-2.5325,-2.4885,-2.4417,-2.4037,-2.386,-2.384,-2.386,-2.4042,-2.42,-2.3948,-2.3232,-2.2238,-2.1174,-2.0469,-2.0028,-1.9896,-1.7903,-1.4494,-0.8891,-0.3799,-0.159,-0.8897,-1.2126,-1.3396,-1.3396,-1.326,-1.3208,-1.3429,-1.36,-1.3927,-1.4679,-1.4868,-1.5158,-1.6,-1.6034,-1.5936,-1.5956,-1.5484,-1.5004,-1.4748,0.0,0.0,0.0,0.0,0.0,0.0,-1.6717,-1.6886,0.0,0.0,0.0,0.0,0.0,0.0,0.0053,-0.0595,0.0,-0.4961,-0.7686,-0.9595,-1.0678,-1.1966,-1.2906,-1.347,-1.3889,-1.4068,-1.4064,-1.4443,-1.4433,-1.4185,-1.4391,-1.4571,-1.4774,-1.4924,-1.5117,-1.5299,-1.5342,-1.5379,-1.5406,-1.251,-1.4072,-1.5505,0.0,-1.4162,0.0,-1.5467,-1.4963,-1.48,-1.5762,-1.5097,-1.4945,-1.6008,-1.3269,-1.1404,-1.1389,0.0,0.0,0.0,-1.6634,-1.7042,-1.7712,-1.8536,-1.9222,-1.9713,-2.0147,-2.0814,-2.1715,-2.2659,-2.3182,-2.3265,-2.2752,-2.3151,-2.4323,-2.4995,-2.5431,-2.5658,-2.538,-2.4839,-2.4202,-2.4198,-2.3842,-2.325,-2.3215,-2.327,-2.3555,-2.4656,-2.3504,-2.146,-2.1413,-2.0669,-1.9753,-1.9643,-1.9586,-1.9513,-1.932,-1.0481,-0.1713,-0.6103,-1.0293,-1.3396,-1.3396,-1.3396,-1.3429,-1.3572,-1.3586,-1.3648,-1.3827,-1.387,-1.4097,-1.4834,-1.4838,-1.4865,-1.5374,-1.5181,-1.4885,-1.4648,0.0,0.0,0.0,0.0,0.0,0.0,-1.7575,-1.6713,0.0,0.0,0.0,0.0,0.0,-0.5332,-0.3708,-0.3801,-0.468,-0.6413,-0.9013,-1.0809,-1.1783,-1.295,-1.3655,-1.3979,-1.5035,-1.5154,-1.4574,-1.5498,-1.5457,-1.4727,-1.4916,-1.499,-1.5007,-1.5072,-1.5174,-1.5292,-1.5312,-1.534,-1.5368,0.0,0.0,-1.6973,-1.5663,-1.5084,-1.5705,-1.8312,-1.7594,-1.6846,-1.7014,-1.6876,-1.699,-1.7383,-1.7167,-1.7669,-1.9371,-1.7167,-1.588,-1.6449,-1.8645,-1.9649,-1.9081,-1.9587,-2.0273,-2.1021,-2.1162,-2.1728,-2.275,-2.2592,-2.3008,-2.3979,-2.4395,-2.487,-2.5337,-2.5312,-2.5336,-2.5368,-2.505,-2.4636,-2.4202,-2.4198,-2.4101,-2.3895,-2.338,-2.3648,-2.4128,-2.2905,-2.2409,-2.2114,-2.0732,-2.0007,-1.9633,-1.9611,-1.939,-1.9117,-1.8963,-1.3897,-0.9046,-1.242,-1.3384,-1.3396,-1.3396,-1.3396,-1.3413,-1.3446,-1.3446,-1.3462,-1.3511,-1.3528,-1.3579,-1.3767,-1.3751,-1.3769,-1.3905,-1.3674,-1.3545,-1.3622,-1.5093,0.0,0.0,-1.8748,-1.9523,-1.8843,-1.8327,-1.7731,0.0,0.0,0.0,0.0,-1.3918,-1.1284,-0.8263,-0.782,-0.8303,-0.9767,-1.199,-1.3927,-1.5515,-1.5523,-1.5793,-1.6297,-1.6567,-1.6683,-1.6685,-1.6923,-1.6545,-1.5753,-1.58,-1.5521,-1.5072,-1.5085,-1.5182,-1.5312,-1.5359,-1.5352,-1.5311,-1.4899,-1.5928,-1.6525,-1.5545,-1.5375,-1.5917,-1.7508,-1.8206,-1.8524,-1.8473,-1.8097,-1.8275,-1.9379,-1.8498,-1.8978,-2.1867,-2.0303,-1.9159,-1.9148,-2.0941,-2.1779,-2.121,-2.1066,-2.1319,-2.2102,-2.2061,-2.2365,-2.3159,-2.2954,-2.3259,-2.4087,-2.478,-2.53,-2.5606,-2.5522,-2.5418,-2.5274,-2.4762,-2.4395,-2.42,-2.4211,-2.4208,-2.4153,-2.3785,-2.3966,-2.4189,-2.251,-2.1613,-2.1124,-2.0519,-1.9936,-1.9464,-1.946,-1.9305,-1.9101,-1.8948,-1.6395,-1.3722,-1.4325,-1.3939,-1.3396,-1.3396,-1.3396,-1.3396,-1.3396,-1.3396,-1.3396,-1.3396,-1.3446,-1.3478,-1.3413,-1.3462,-1.3581,-1.3853,-1.4193,-1.457,-1.5019,-1.6728,0.0,-1.8825,-2.0112,-2.0543,-1.9515,-1.8909,-1.8219,-1.7157,-1.6513,0.0,-1.7466,-1.6681,-1.4938,-1.2118,-1.186,-1.2052,-1.2686,-1.4284,-1.5794,-1.7135,-1.67,-1.6792,-1.7349,-1.7719,-1.7757,-1.756,-1.7969,-1.7426,-1.6284,-1.6276,-1.5835,-1.5152,-1.5183,-1.524,-1.5291,-1.5274,-1.5241,-1.5196,-1.8463,-1.7366,-1.6426,-1.6265,-1.6224,-1.6245,-1.6237,-1.8343,-1.9947,-2.0064,-1.9284,-1.9468,-2.1468,-1.9218,-1.8853,-2.207,-2.2494,-2.2637,-2.2756,-2.3175,-2.3416,-2.338,-2.2616,-2.2476,-2.3088,-2.2976,-2.3088,-2.3428,-2.3593,-2.378,-2.4008,-2.4655,-2.5158,-2.5519,-2.5608,-2.5553,-2.5327,-2.4639,-2.4379,-2.4356,-2.4234,-2.419,-2.421,-2.4209,-2.419,-2.3992,-2.2402,-2.1046,-2.0057,-2.0453,-2.0022,-1.9305,-1.9305,-1.9305,-1.9222,-1.8746,-1.7719,-1.6326,-1.4315,-1.3599,-1.3396,-1.3396,-1.3396,-1.3396,-1.3396,-1.3413,-1.3429,-1.3429,-1.354,-1.3601,-1.3511,-1.354,-1.3832,-1.4585,-1.5487,-1.6413,-1.7288,0.0,-2.038,-2.0963,-2.1374,-2.1188,-2.0174,-1.932,-1.8275,-1.6972,-1.7277,-1.7716,-1.8095,-1.8053,-1.7204,-1.5483,-1.5421,-1.5403,-1.5286,-1.6173,-1.7005,-1.7778,-1.7477,-1.7581,-1.8024,-1.8701,-1.8685,-1.8119,-1.8876,-1.8318,-1.6875,-1.6727,-1.6188,-1.5397,-1.5312,-1.5269,-1.5254,-1.512,-1.512,-1.518,-2.0446,-2.0973,-2.101,-2.0237,-2.0146,-2.0127,-2.014,-2.0519,-2.1023,-2.1655,-2.158,-2.1867,-2.2901,-2.2656,-2.2923,-2.4228,-2.4083,-2.4173,-2.4791,-2.4655,-2.4433,-2.414,-2.3715,-2.369,-2.4061,-2.4325,-2.4482,-2.4551,-2.447,-2.4463,-2.4494,-2.4991,-2.5352,-2.5572,-2.5482,-2.551,-2.5621,-2.5275,-2.5134,-2.5072,-2.4441,-2.42,-2.4205,-2.4192,-2.4188,-2.3814,-2.0825,-2.0677,-2.1648,-2.0063,-1.9445,-1.9305,-1.9305,-1.9305,-1.8968,-1.7297,-1.665,-1.6338,-1.5749,-1.4521,-1.3396,-1.3396,-1.3396,-1.3396,-1.3396,-1.3494,-1.357,-1.357,-1.3724,-1.3856,-1.3827,-1.3709,-1.4053,-1.5451,-1.5923,-1.6624,-1.8176,0.0,-2.124,-2.1252,-2.1708,-2.1603,-2.0529,-1.9236,-1.8135,-1.7289,-1.7256,-1.7523,-1.814,-1.8684,-1.8805,-1.8377,-1.7183,-1.6897,-1.7569,-1.7902,-1.8412,-1.9105,-1.9282,-1.9541,-1.9884,-2.0,-2.0007,-1.9908,-2.0042,-1.9561,-1.864,-1.7834,-1.7062,-1.6308,-1.5451,-1.5129,-1.5101,-1.4978,-1.5215,-1.5639,-2.1182,-2.185,-2.2294,-2.22,-2.2173,-2.2084,-2.1768,-2.2286,-2.2856,-2.318,-2.3584,-2.3922,-2.4155,-2.4344,-2.4625,-2.5034,-2.4893,-2.493,-2.5272,-2.5155,-2.4933,-2.4638,-2.4435,-2.4409,-2.4576,-2.4785,-2.4864,-2.4804,-2.4747,-2.4733,-2.4809,-2.5082,-2.5298,-2.5495,-2.55,-2.5582,-2.5683,-2.5537,-2.5395,-2.5271,-2.4934,-2.4553,-2.4204,-2.4198,-2.3092,-2.1362,-1.9844,-1.9893,-2.0533,-1.9608,-1.9305,-1.9305,-1.9305,-1.9305,-1.899,-1.7446,-1.5937,-1.4776,-1.4724,-1.4075,-1.343,-1.3494,-1.3445,-1.3396,-1.3396,-1.3493,-1.3584,-1.3584,-1.4188,-1.4677,-1.4577,-1.4826,-1.5258,-1.5852,-1.7054,0.0,0.0,-2.1251,-2.2729,-2.2845,-2.2556,-2.1946,-2.0868,-1.9504,-1.8349,-1.7622,-1.7873,-1.8296,-1.8768,-1.9356,-1.9879,-2.023,-1.8758,-1.8296,-1.8907,-1.889,-1.913,-1.9626,-1.9736,-1.9981,-2.0312,-2.0312,-2.0312,-2.0312,-2.0312,-1.9831,-1.9025,-1.8126,-1.7281,-1.6452,-1.5492,-1.5285,-1.5498,-1.5298,-1.5558,-1.6037,-2.1565,-2.2157,-2.2704,-2.3124,-2.319,-2.3048,-2.2656,-2.3422,-2.4076,-2.4208,-2.4691,-2.5005,-2.4909,-2.5069,-2.5225,-2.5293,-2.5303,-2.5303,-2.5303,-2.5309,-2.5208,-2.5004,-2.4966,-2.4947,-2.4947,-2.5037,-2.5037,-2.4929,-2.4929,-2.4975,-2.5077,-2.5118,-2.5233,-2.5399,-2.5503,-2.5616,-2.5703,-2.5654,-2.5492,-2.5303,-2.5305,-2.4948,-2.4363,-2.3587,-2.1639,-1.9294,-1.9302,-1.9295,-1.9305,-1.9305,-1.9305,-1.9305,-1.9305,-1.9305,-1.9042,-1.7676,-1.5501,-1.3543,-1.3632,-1.3588,-1.3543,-1.3648,-1.3573,-1.3446,-1.3446,-1.3556,-1.3661,-1.3661,-1.4617,-1.5415,-1.5271,-1.5816,-1.6446,-1.6888,0.0,0.0,0.0,-2.2517,-2.3803,-2.3818,-2.2933,-2.1884,-2.0797,-1.9499,-1.8603,-1.8288,-1.8574,-1.9068,-1.9755,-2.004,-2.059,-2.1498,-2.0151,-1.9491,-1.9649,-1.949,-1.9567,-1.9847,-1.9847,-2.0011,-2.0312,-2.0312,-2.0312,-2.0312,-2.0312,-1.985,-1.9037,-1.8134,-1.7396,-1.6726,-1.573,-1.5668,-1.61,-1.5832,-1.6048,-1.646,-2.2061,-2.2798,-2.3369,-2.3228,-2.3199,-2.3248,-2.3382,-2.3502,-2.3717,-2.4149,-2.4244,-2.445,-2.484,-2.4861,-2.4955,-2.5264,-2.5303,-2.5303,-2.5303,-2.5312,-2.5302,-2.5283,-2.534,-2.536,-2.536,-2.537,-2.5351,-2.5253,-2.5253,-2.5264,-2.5274,-2.5293,-2.5331,-2.5409,-2.5408,-2.551,-2.5703,-2.5683,-2.5539,-2.5313,-2.5293,-2.5262,-2.4877,-2.1765,-2.0051,-1.9298,-1.9298,-1.9305,-1.9305,-1.9305,-1.9305,-1.9305,-1.9305,-1.9305,-1.8947,-1.7182,-1.5339,-1.387,-1.3885,-1.387,-1.387,-1.3885,-1.3739,-1.3586,-1.3586,-1.3739,-1.3885,-1.3885,-1.4846,-1.568,-1.5667,-1.6001,-1.708,-1.9416,0.0,0.0,-2.3073,-2.3866,-2.378,-2.2759,-2.1945,-2.1036,-1.9914,-1.8854,-1.8638,-1.9573,-1.9025,-1.939,-2.1147,-2.0751,-2.101,-2.2182,-2.1204,-2.0382,-1.9786,-1.9767,-1.9847,-1.9993,-1.9993,-2.0097,-2.0312,-2.0312,-2.0312,-2.0312,-2.0312,-1.9835,-1.9035,-1.8095,-1.773,-1.7672,-1.6486,-1.6359,-1.6787,-1.6522,-1.6639,-1.698,-2.2441,-2.3015,-2.3506,-2.3508,-2.3522,-2.361,-2.3883,-2.3923,-2.3999,-2.417,-2.434,-2.4518,-2.4685,-2.496,-2.5165,-2.5302,-2.5301,-2.5303,-2.5303,-2.5303,-2.5303,-2.5303,-2.5322,-2.5341,-2.5341,-2.5341,-2.5322,-2.5303,-2.5303,-2.5243,-2.5111,-2.5111,-2.513,-2.5149,-2.5196,-2.5354,-2.5582,-2.5574,-2.5577,-2.5539,-2.5364,-2.4053,-2.2058,-2.0773,-2.0145,-1.9877,-1.9601,-1.9489,-1.9471,-1.9335,-1.8959,-1.8555,-1.8555,-1.8207,-1.7582,-1.6502,-1.5227,-1.4235,-1.4349,-1.4152,-1.3941,-1.4051,-1.3941,-1.3798,-1.3798,-1.3941,-1.4222,-1.4733,-1.5683,-1.6552,-1.6882,-1.7523,-1.8234,-1.9037,0.0,-2.0374,-2.2032,-2.2783,-2.3242,-2.3522,-2.2278,-2.1438,-2.15,-2.0096,-1.957,-2.0492,-2.0417,-2.064,-2.1368,-2.1432,-2.1751,-2.246,-2.1997,-2.1419,-2.075,-2.0112,-1.9869,-1.9993,-1.9993,-2.0106,-2.0312,-2.0312,-2.0312,-2.0312,-2.0312,-2.0169,-1.9904,-1.8951,-1.8543,-1.8423,-1.7319,-1.7169,-1.7477,-1.7173,-1.7345,-1.7734,-2.272,-2.3284,-2.3744,-2.3828,-2.3876,-2.3937,-2.417,-2.419,-2.419,-2.419,-2.4358,-2.4517,-2.465,-2.4847,-2.505,-2.5291,-2.5301,-2.5303,-2.5303,-2.5293,-2.5207,-2.4966,-2.4947,-2.4909,-2.4822,-2.4649,-2.462,-2.4774,-2.4601,-2.4571,-2.4717,-2.4641,-2.4671,-2.4717,-2.4703,-2.4706,-2.4726,-2.4885,-2.5039,-2.5077,-2.4142,-2.237,-2.0293,-2.0304,-2.0221,-2.0117,-1.9904,-1.9682,-1.9494,-1.935,-1.8765,-1.8096,-1.8096,-1.7367,-1.6452,-1.6026,-1.5203,-1.446,-1.4595,-1.4374,-1.4123,-1.4257,-1.4149,-1.3997,-1.3997,-1.411,-1.4436,-1.5239,-1.6123,-1.6984,-1.7705,-1.839,-1.895,-1.9165,-1.9789,-2.0544,-2.1388,-2.2187,-2.2844,-2.3382,-2.2319,-2.1734,-2.2297,-2.1108,-2.0668,-2.1556,-2.1551,-2.1644,-2.1972,-2.2504,-2.2914,-2.3196,-2.2854,-2.2489,-2.2081,-2.1069,-2.049,-2.0374,-2.0374,-2.0346,-2.0312,-2.0312,-2.0312,-2.0292,-2.0295,-2.02,-2.0002,-1.9333,-1.8993,-1.8796,-1.8035,-1.7987,-1.8267,-1.7914,-1.7955,-1.8132,-2.29,-2.3607,-2.4203,-2.4206,-2.419,-2.419,-2.419,-2.419,-2.419,-2.419,-2.419,-2.4357,-2.476,-2.4436,-2.4498,-2.5244,-2.5303,-2.5303,-2.5303,-2.5303,-2.4965,-2.4225,-2.4187,-2.407,-2.378,-2.3212,-2.3127,-2.3589,-2.3052,-2.3235,-2.4082,-2.3883,-2.3894,-2.4082,-2.3883,-2.3498,-2.3036,-2.3566,-2.3867,-2.3788,-2.1363,-2.0365,-2.0304,-2.0298,-2.0089,-1.985,-2.0172,-1.9864,-1.9308,-1.9308,-1.8754,-1.8096,-1.8078,-1.6977,-1.5729,-1.5841,-1.524,-1.4499,-1.4499,-1.4499,-1.4488,-1.4488,-1.435,-1.4201,-1.4201,-1.4188,-1.4436,-1.5239,-1.5991,-1.6833,-1.7906,-1.8373,-1.9021,-2.029,-2.1007,-2.1479,-2.1768,-2.2483,-2.2703,-2.1913,-2.1803,-2.1803,-2.1821,-2.1571,-2.1861,-2.2942,-2.2205,-2.2175,-2.3247,-2.4083,-2.4495,-2.4512,-2.3863,-2.3612,-2.3805,-2.2748,-2.1872,-2.12,-2.12,-2.09,-2.0312,-2.0312,-2.0312,-2.0296,-2.0306,-1.9844,-1.9101,-1.9046,-1.893,-1.8789,-1.8602,-1.8789,-1.9151,-1.8753,-1.843,-1.8045,-2.2849,-2.3602,-2.4199,-2.4203,-2.4202,-2.419,-2.419,-2.419,-2.419,-2.419,-2.421,-2.4241,-2.4372,-2.4275,-2.4492,-2.5241,-2.5301,-2.5303,-2.5303,-2.5303,-2.4676,-2.3272,-2.3225,-2.3004,-2.2543,-2.2361,-2.2488,-2.29,-2.2737,-2.265,-2.2633,-2.2566,-2.2652,-2.2828,-2.2779,-2.2821,-2.2906,-2.2692,-2.2662,-2.2608,-2.1131,-2.0438,-2.0307,-2.0348,-2.0282,-2.015,-2.025,-2.0077,-1.9763,-1.9567,-1.8508,-1.7055,-1.5918,-1.5305,-1.5019,-1.516,-1.4924,-1.4656,-1.4765,-1.4635,-1.4488,-1.4488,-1.4453,-1.4375,-1.4227,-1.4188,-1.4558,-1.5791,-1.633,-1.6967,-1.8216,-1.8801,-1.9353,-2.0172,-2.0569,-2.102,-2.1694,-2.2006,-2.2281,-2.2611,-2.2134,-2.2243,-2.3364,-2.2905,-2.2886,-2.3786,-2.3603,-2.3657,-2.4122,-2.4364,-2.4559,-2.47,-2.4515,-2.4441,-2.4496,-2.3114,-2.2394,-2.2307,-2.2307,-2.1912,-2.1139,-2.1188,-2.0888,-2.0306,-2.0349,-2.0231,-2.0014,-1.9928,-1.9838,-1.9705,-1.9601,-1.951,-1.9419,-1.8924,-1.8289,-1.7608,-2.2617,-2.3492,-2.4193,-2.4205,-2.4198,-2.419,-2.419,-2.419,-2.4246,-2.434,-2.4262,-2.4302,-2.4603,-2.4644,-2.4812,-2.5264,-2.5301,-2.5303,-2.5303,-2.413,-2.2996,-2.1977,-2.185,-2.1658,-2.1334,-2.1261,-2.1321,-2.1568,-2.1515,-2.1543,-2.1639,-2.1554,-2.1671,-2.1895,-2.1815,-2.1817,-2.1845,-2.1526,-2.1423,-2.1429,-2.0791,-2.0455,-2.035,-2.0389,-2.0369,-2.02,-1.952,-1.923,-1.9119,-1.8502,-1.7454,-1.6206,-1.4973,-1.4592,-1.4656,-1.485,-1.4804,-1.4737,-1.485,-1.4737,-1.4589,-1.4589,-1.4545,-1.4464,-1.435,-1.4307,-1.4736,-1.6232,-1.6553,-1.7037,-1.859,-1.9049,-1.933,-1.977,-2.0217,-2.056,-2.0658,-2.0968,-2.1461,-2.2264,-2.1936,-2.2319,-2.4043,-2.3768,-2.3732,-2.4391,-2.4357,-2.4426,-2.4678,-2.4636,-2.467,-2.4804,-2.4804,-2.4832,-2.4877,-2.3947,-2.3392,-2.3199,-2.3199,-2.2604,-2.1534,-2.16,-2.1152,-2.0332,-2.0384,-2.0575,-2.0842,-2.0458,-2.0621,-2.1012,-2.0289,-2.0025,-1.9978,-1.9113,-1.8431,-1.7824,-2.2287,-2.3242,-2.4075,-2.418,-2.4176,-2.417,-2.4208,-2.4209,-2.4303,-2.4552,-2.4398,-2.4516,-2.5177,-2.5282,-2.5302,-2.5293,-2.5034,-2.4908,-2.5091,-2.2268,-2.0603,-2.0591,-2.0411,-2.03,-2.0312,-2.0115,-2.0012,-1.9974,-1.9858,-2.0186,-2.0929,-2.0751,-2.084,-2.1143,-2.097,-2.0655,-2.0273,-2.0281,-2.0346,-2.0398,-2.04,-2.0413,-2.0403,-2.0422,-2.0311,-1.9961,-1.8355,-1.781,-1.7686,-1.6607,-1.6005,-1.557,-1.4905,-1.4603,-1.4567,-1.4813,-1.4813,-1.4747,-1.4867,-1.4813,-1.4727,-1.4727,-1.4614,-1.4511,-1.4476,-1.4476,-1.4922,-1.652,-1.6657,-1.7083,-1.8935,-1.9134,-1.9104,-1.9368,-2.0023,-2.018,-1.9251,-1.983,-2.0608,-2.1332,-2.1514,-2.2244,-2.4044,-2.4247,-2.441,-2.4775,-2.4623,-2.4666,-2.4974,-2.4869,-2.4804,-2.4804,-2.4818,-2.4883,-2.501,-2.5022,-2.466,-2.3923,-2.3923,-2.3186,-2.1842,-2.1891,-2.1449,-2.0625,-2.0621,-2.1034,-2.1641,-2.0765,-2.1233,-2.2352,-2.068,-2.0312,-2.056,-1.9305,-1.8699,-1.8316,-2.2281,-2.2504,-2.3035,-2.4034,-2.3974,-2.3896,-2.417,-2.4321,-2.4462,-2.4513,-2.4647,-2.4791,-2.4903,-2.5141,-2.5302,-2.5303,-2.2911,-2.2,-2.34,-2.1674,-2.06,-2.0591,-2.0462,-2.0373,-2.0369,-2.0288,-2.0107,-1.9847,-1.9813,-1.9763,-1.9697,-1.9653,-1.974,-1.9976,-2.0025,-2.0061,-2.0077,-2.0225,-2.0348,-2.0406,-2.0449,-2.0483,-2.0474,-2.0533,-1.9954,-1.9061,-1.8641,-1.7742,-1.6649,-1.6034,-1.576,-1.5558,-1.4791,-1.4611,-1.4687,-1.4841,-1.4886,-1.4876,-1.4965,-1.4917,-1.4868,-1.4868,-1.4756,-1.4603,-1.4332,-1.427,-1.4683,-1.6125,-1.6507,-1.7085,-1.8761,-1.9166,-1.9463,-2.0136,-2.0393,-2.0413,-2.0215,-2.091,-2.1532,-2.1696,-2.2264,-2.3125,-2.4316,-2.4594,-2.47,-2.479,-2.476,-2.4775,-2.4842,-2.4818,-2.4804,-2.4804,-2.4904,-2.4974,-2.501,-2.5152,-2.5147,-2.4974,-2.4974,-2.4476,-2.3552,-2.3638,-2.315,-2.2285,-2.2384,-2.2494,-2.2466,-2.16,-2.143,-2.1643,-2.0625,-2.0145,-1.9963,-1.9457,-1.8619,-1.7523,-2.2124,-2.2302,-2.2598,-2.3567,-2.3849,-2.4,-2.4169,-2.4284,-2.4393,-2.4495,-2.4704,-2.4905,-2.5018,-2.5192,-2.5303,-2.5303,-2.2221,-2.0728,-2.1694,-2.0966,-2.0527,-2.0548,-2.0422,-2.0339,-2.035,-2.0331,-2.0144,-1.979,-1.9738,-1.9577,-1.9305,-1.9305,-1.9357,-1.9471,-1.97,-1.988,-2.0012,-2.0218,-2.0318,-2.0367,-2.0469,-2.0474,-2.0453,-2.0565,-1.9931,-1.8935,-1.8489,-1.7176,-1.5629,-1.5251,-1.5123,-1.5062,-1.4718,-1.4645,-1.4728,-1.49,-1.495,-1.4973,-1.5068,-1.5026,-1.495,-1.495,-1.4866,-1.4728,-1.4489,-1.4685,-1.5254,-1.6474,-1.7105,-1.7835,-1.9054,-1.9383,-1.9542,-1.9874,-1.9932,-1.99,-1.9804,-2.0514,-2.1188,-2.1553,-2.2318,-2.3235,-2.4403,-2.461,-2.4712,-2.4877,-2.4891,-2.4949,-2.5024,-2.5043,-2.5043,-2.5043,-2.5107,-2.5152,-2.5152,-2.5253,-2.5303,-2.5303,-2.5303,-2.488,-2.4111,-2.4165,-2.3709,-2.2891,-2.2972,-2.3179,-2.3398,-2.2485,-2.237,-2.262,-2.137,-2.0728,-2.0429,-1.9682,-1.8745,-1.767,-2.2029,-2.23,-2.2461,-2.2952,-2.3603,-2.4067,-2.4188,-2.4209,-2.4266,-2.4478,-2.47,-2.4953,-2.5278,-2.5288,-2.5303,-2.5303,-2.2508,-2.0765,-2.0811,-2.0539,-2.0418,-2.0473,-2.0369,-2.0312,-2.0312,-2.0312,-2.0144,-1.979,-1.9695,-1.9509,-1.9305,-1.9305,-1.932,-1.9345,-1.9632,-1.9861,-2.0022,-2.0205,-2.0302,-2.0312,-2.0443,-2.0389,-2.0208,-2.0328,-1.9719,-1.8685,-1.7942,-1.6482,-1.4885,-1.4645,-1.4567,-1.4589,-1.4697,-1.4738,-1.4776,-1.4943,-1.5021,-1.5049,-1.5177,-1.5127,-1.5035,-1.5035,-1.5095,-1.512,-1.501,-1.528,-1.5917,-1.7184,-1.7861,-1.8503,-1.9449,-1.9609,-1.9541,-1.938,-1.932,-1.9227,-1.9086,-1.9866,-2.0717,-2.1388,-2.2334,-2.3345,-2.4403,-2.4545,-2.4682,-2.4986,-2.4986,-2.5065,-2.5303,-2.5264,-2.5264,-2.5303,-2.5303,-2.5303,-2.5303,-2.5303,-2.5303,-2.5303,-2.5303,-2.4947,-2.4312,-2.4389,-2.4044,-2.3414,-2.3426,-2.3818,-2.4322,-2.3428,-2.3466,-2.3937,-2.2177,-2.1511,-2.1363,-2.0148,-1.9251,-1.8533,-2.2248,-2.2304,-2.2337,-2.2404,-2.2917,-2.3535,-2.4094,-2.4192,-2.4258,-2.4476,-2.478,-2.5063,-2.529,-2.5288,-2.5303,-2.5303,-2.3553,-2.2496,-2.2551,-2.1159,-2.034,-2.0416,-2.035,-2.0312,-2.0312,-2.0312,-2.0144,-1.979,-1.9786,-1.9606,-1.9305,-1.9305,-1.9394,-1.9559,-1.9613,-1.9774,-2.0022,-2.0205,-2.0308,-2.0311,-2.0455,-2.0041,-1.9374,-1.9453,-1.8469,-1.7021,-1.6845,-1.6,-1.497,-1.4885,-1.485,-1.4859,-1.4877,-1.4917,-1.4958,-1.4988,-1.5082,-1.5177,-1.5209,-1.5183,-1.5177,-1.5177,-1.5649,-1.6108,-1.61,-1.5533,-1.5649,-1.795,-1.7893,-1.792,-1.9491,-1.9682,-1.9582,-1.9555,-1.9409,-1.9289,-1.9259,-2.0596,-2.1622,-2.1732,-2.3231,-2.4314,-2.4476,-2.4654,-2.4828,-2.4998,-2.4891,-2.4962,-2.5274,-2.5141,-2.5111,-2.5284,-2.5303,-2.5303,-2.5303,-2.5303,-2.5303,-2.5303,-2.5303,-2.5245,-2.5149,-2.5264,-2.5231,-2.5086,-2.5195,-2.5245,-2.5178,-2.4341,-2.4044,-2.3937,-2.2177,-2.1876,-2.2304,-2.1318,-2.078,-2.0254,-2.2297,-2.2297,-2.2302,-2.2304,-2.3111,-2.3851,-2.415,-2.4211,-2.4264,-2.4459,-2.4524,-2.4676,-2.5037,-2.5212,-2.5293,-2.5293,-2.3764,-2.2686,-2.2417,-2.1077,-2.0313,-2.0331,-2.0331,-2.0312,-2.0312,-2.0312,-2.0144,-1.979,-1.979,-1.9688,-1.9471,-1.9471,-1.9601,-1.9826,-1.9862,-1.9933,-2.0022,-2.0205,-2.0312,-2.0262,-1.9889,-1.951,-1.9159,-1.8685,-1.7747,-1.6561,-1.5976,-1.5421,-1.4999,-1.4919,-1.4904,-1.4913,-1.4942,-1.4977,-1.5002,-1.5088,-1.5146,-1.5189,-1.5189,-1.5189,-1.533,-1.5811,-1.617,-1.6661,-1.7588,-1.711,-1.6892,-1.8393,-1.8754,-1.903,-1.9789,-1.979,-1.9695,-1.9609,-1.9423,-1.9455,-1.9913,-2.1033,-2.2133,-2.3015,-2.386,-2.4375,-2.4495,-2.4575,-2.4697,-2.4877,-2.4828,-2.4855,-2.5,-2.4949,-2.4956,-2.513,-2.5141,-2.5192,-2.5303,-2.5303,-2.5303,-2.5303,-2.5303,-2.5303,-2.5303,-2.5409,-2.5461,-2.5461,-2.5521,-2.5535,-2.5479,-2.5045,-2.4582,-2.4024,-2.2735,-2.1742,-2.0967,-2.0404,-2.0043,-1.9658]}]]